LS860 / G-JZBI 7700 Squawk Report (16th of August, 2022)

Aircraft B738 Reg No. G-JZBI Age 4 years old
Model 737 Jet engines 2 First flight 02-02-18
Registered 15-02-18 Rollout N/A Delivered 15-02-18
Construction No. 63166 Line No. 6808 Series 800
ADSHEX 407176 Airline name Jet2 Owner N/A
Airfield based Leeds-Bradford~Yorks~G First tracked N/A
Time Lat Lon Altitude Heading Speed Vertical Rate
2022-08-16 14:02:50 GMT 55.949375 -3.359885 0 255 0 0
2022-08-16 14:02:35 GMT 55.949375 -3.359881 0 255 0 0
2022-08-16 14:02:25 GMT 55.949375 -3.359885 0 255 0 0
2022-08-16 14:02:15 GMT 55.949375 -3.359881 0 255 0 0
2022-08-16 14:02:08 GMT 55.949375 -3.359885 0 255 0 0
2022-08-16 14:01:59 GMT 55.949375 -3.359881 0 255 0 0
2022-08-16 14:01:56 GMT 55.949375 -3.359885 0 255 0 0
2022-08-16 14:01:46 GMT 55.949375 -3.359864 0 255 0 0
2022-08-16 14:01:36 GMT 55.949402 -3.359756 0 255 4 0
2022-08-16 14:01:26 GMT 55.949459 -3.359349 0 255 7 0
2022-08-16 14:01:16 GMT 55.949551 -3.358812 0 227 7 0
2022-08-16 14:01:06 GMT 55.949810 -3.358570 0 199 8 0
2022-08-16 14:00:58 GMT 55.950085 -3.358362 0 191 10 0
2022-08-16 14:00:52 GMT 55.950356 -3.358319 0 149 12 0
2022-08-16 14:00:45 GMT 55.950588 -3.358748 0 118 12 0
2022-08-16 14:00:36 GMT 55.950912 -3.359885 0 109 12 0
2022-08-16 14:00:25 GMT 55.951042 -3.360550 0 106 15 0
2022-08-16 14:00:21 GMT 55.951134 -3.361065 0 109 15 0
2022-08-16 14:00:15 GMT 55.951241 -3.361671 0 106 14 0
2022-08-16 14:00:10 GMT 55.951344 -3.362203 0 109 12 0
2022-08-16 13:59:58 GMT 55.951687 -3.363231 0 149 14 0
2022-08-16 13:59:55 GMT 55.951832 -3.363404 0 149 13 0
2022-08-16 13:59:50 GMT 55.952122 -3.363710 0 149 12 0
2022-08-16 13:59:42 GMT 55.952496 -3.364112 0 137 9 0
2022-08-16 13:59:31 GMT 55.952637 -3.364649 0 59 19 0
2022-08-16 13:59:24 GMT 55.952076 -3.366280 0 59 63 0
2022-08-16 13:59:21 GMT 55.951664 -3.367559 125 59 78 0
2022-08-16 13:59:18 GMT 55.951218 -3.368808 125 58 149 -640
2022-08-16 13:59:15 GMT 55.950481 -3.371000 100 59 110 -128
2022-08-16 13:59:05 GMT 55.947418 -3.380044 125 58 148 -128
2022-08-16 13:58:59 GMT 55.945408 -3.385935 175 58 149 -704
2022-08-16 13:58:55 GMT 55.943848 -3.390697 250 58 148 -640
2022-08-16 13:58:48 GMT 55.941589 -3.397264 325 57 147 -768
2022-08-16 13:58:45 GMT 55.940277 -3.401018 375 58 148 -832
2022-08-16 13:58:40 GMT 55.938538 -3.406095 450 59 148 -832
2022-08-16 13:58:37 GMT 55.937679 -3.408594 475 59 148 -704
2022-08-16 13:58:34 GMT 55.936565 -3.411856 500 58 149 -768
2022-08-16 13:58:29 GMT 55.934517 -3.417950 575 59 148 -704
2022-08-16 13:58:25 GMT 55.933090 -3.422158 625 59 148 -768
2022-08-16 13:58:21 GMT 55.931629 -3.426533 675 59 148 -832
2022-08-16 13:58:18 GMT 55.930435 -3.430148 725 58 149 -704
2022-08-16 13:58:15 GMT 55.929489 -3.432884 750 58 150 -896
2022-08-16 13:58:10 GMT 55.927917 -3.437555 825 58 151 -896
2022-08-16 13:58:07 GMT 55.925674 -3.444131 875 58 151 -768
2022-08-16 13:58:04 GMT 55.925674 -3.444131 900 58 151 -640
2022-08-16 13:58:00 GMT 55.924026 -3.448875 950 58 150 -768
2022-08-16 13:57:57 GMT 55.923298 -3.450994 1,000 58 150 -768
2022-08-16 13:57:54 GMT 55.922180 -3.454342 1,000 58 150 -768
2022-08-16 13:57:50 GMT 55.920731 -3.458529 1,100 58 151 -832
2022-08-16 13:57:47 GMT 55.918579 -3.464938 1,125 58 151 -832
2022-08-16 13:57:44 GMT 55.918579 -3.464938 1,150 58 150 -832
2022-08-16 13:57:41 GMT 55.917435 -3.468184 1,200 58 149 -896
2022-08-16 13:57:37 GMT 55.915833 -3.472845 1,275 58 149 -704
2022-08-16 13:57:34 GMT 55.914825 -3.475885 1,300 58 149 -768
2022-08-16 13:57:31 GMT 55.913727 -3.479004 1,350 58 148 -704
2022-08-16 13:57:29 GMT 55.912994 -3.481168 1,375 58 148 -704
2022-08-16 13:57:27 GMT 55.912170 -3.483438 1,400 58 149 -704
2022-08-16 13:57:26 GMT 55.911163 -3.486411 1,425 58 150 -768
2022-08-16 13:57:24 GMT 55.911163 -3.486411 1,425 58 150 -768
2022-08-16 13:57:23 GMT 55.909424 -3.491572 1,450 58 152 -768
2022-08-16 13:57:19 GMT 55.909424 -3.491572 1,500 58 152 -768
2022-08-16 13:57:16 GMT 55.908417 -3.494485 1,575 59 156 -832
2022-08-16 13:57:13 GMT 55.907097 -3.498373 1,575 59 156 -832
2022-08-16 13:57:11 GMT 55.906303 -3.500690 1,600 59 156 -832
2022-08-16 13:57:09 GMT 55.905655 -3.502665 1,650 59 156 -960
2022-08-16 13:57:08 GMT 55.905304 -3.503806 1,650 59 156 -960
2022-08-16 13:57:04 GMT 55.903839 -3.508158 1,700 58 155 -832
2022-08-16 13:57:01 GMT 55.903000 -3.510733 1,775 58 155 -832
2022-08-16 13:56:58 GMT 55.901791 -3.514166 1,775 58 156 -768
2022-08-16 13:56:57 GMT 55.901138 -3.516054 1,800 58 157 -704
2022-08-16 13:56:56 GMT 55.900772 -3.517123 1,825 58 157 -704
2022-08-16 13:56:54 GMT 55.900177 -3.518871 1,850 58 157 -704
2022-08-16 13:56:53 GMT 55.899582 -3.520536 1,850 58 157 -704
2022-08-16 13:56:52 GMT 55.899044 -3.522234 1,900 58 158 -768
2022-08-16 13:56:49 GMT 55.897411 -3.526869 1,925 58 158 -832
2022-08-16 13:56:47 GMT 55.897411 -3.526869 1,925 58 158 -896
2022-08-16 13:56:45 GMT 55.896698 -3.528942 1,950 58 159 -896
2022-08-16 13:56:43 GMT 55.895878 -3.531418 1,975 58 159 -896
2022-08-16 13:56:42 GMT 55.895084 -3.533649 2,025 58 159 -896
2022-08-16 13:56:40 GMT 55.894669 -3.534851 2,025 58 160 -896
2022-08-16 13:56:38 GMT 55.893906 -3.537015 2,075 58 161 -896
2022-08-16 13:56:37 GMT 55.893131 -3.539228 2,100 58 162 -832
2022-08-16 13:56:35 GMT 55.892715 -3.540511 2,100 59 163 -832
2022-08-16 13:56:34 GMT 55.891548 -3.543949 2,150 59 163 -896
2022-08-16 13:56:32 GMT 55.891548 -3.543949 2,150 59 163 -896
2022-08-16 13:56:30 GMT 55.890755 -3.546352 2,175 59 164 -896
2022-08-16 13:56:29 GMT 55.890430 -3.547297 2,200 59 164 -960
2022-08-16 13:56:27 GMT 55.889919 -3.548927 2,225 59 164 -896
2022-08-16 13:56:26 GMT 55.888916 -3.551830 2,250 59 165 -896
2022-08-16 13:56:22 GMT 55.887405 -3.556408 2,325 58 166 -960
2022-08-16 13:56:20 GMT 55.886993 -3.557573 2,325 59 167 -960
2022-08-16 13:56:19 GMT 55.886242 -3.559914 2,350 59 168 -896
2022-08-16 13:56:17 GMT 55.885822 -3.561115 2,375 59 168 -832
2022-08-16 13:56:15 GMT 55.884933 -3.563732 2,400 59 170 -832
2022-08-16 13:56:14 GMT 55.884193 -3.566008 2,425 59 171 -768
2022-08-16 13:56:12 GMT 55.883774 -3.567381 2,450 59 171 -960
2022-08-16 13:56:10 GMT 55.882919 -3.569891 2,475 59 172 -1024
2022-08-16 13:56:09 GMT 55.882599 -3.570890 2,500 59 172 -1024
2022-08-16 13:56:07 GMT 55.881866 -3.573046 2,525 59 173 -960
2022-08-16 13:56:06 GMT 55.881409 -3.574468 2,550 59 173 -960
2022-08-16 13:56:04 GMT 55.880840 -3.576136 2,550 59 173 -960
2022-08-16 13:56:01 GMT 55.879353 -3.580685 2,625 59 173 -960
2022-08-16 13:55:59 GMT 55.878002 -3.584719 2,675 59 174 -1024
2022-08-16 13:55:57 GMT 55.877380 -3.586620 2,700 59 174 -1088
2022-08-16 13:55:55 GMT 55.876785 -3.588451 2,725 59 174 -1088
2022-08-16 13:55:53 GMT 55.876053 -3.590698 2,750 59 174 -1024
2022-08-16 13:55:52 GMT 55.875595 -3.592030 2,775 58 174 -1024
2022-08-16 13:55:49 GMT 55.874741 -3.594589 2,800 58 174 -1024
2022-08-16 13:55:47 GMT 55.873901 -3.597024 2,850 58 174 -1152
2022-08-16 13:55:46 GMT 55.873440 -3.598366 2,875 57 174 -1152
2022-08-16 13:55:45 GMT 55.872574 -3.600852 2,900 57 175 -1088
2022-08-16 13:55:43 GMT 55.872181 -3.601885 2,925 56 174 -1024
2022-08-16 13:55:41 GMT 55.871292 -3.604348 2,950 55 175 -896
2022-08-16 13:55:39 GMT 55.870365 -3.606863 2,975 55 176 -832
2022-08-16 13:55:38 GMT 55.869919 -3.608093 2,975 54 175 -768
2022-08-16 13:55:37 GMT 55.869389 -3.609352 3,000 54 176 -704
2022-08-16 13:55:34 GMT 55.867619 -3.613729 3,050 54 179 -640
2022-08-16 13:55:32 GMT 55.866409 -3.616734 3,075 54 180 -640
2022-08-16 13:55:29 GMT 55.865524 -3.618879 3,075 54 180 -640
2022-08-16 13:55:27 GMT 55.864655 -3.621077 3,100 53 183 -576
2022-08-16 13:55:24 GMT 55.862408 -3.626518 3,150 52 184 -640
2022-08-16 13:55:21 GMT 55.861523 -3.628750 3,175 51 185 -768
2022-08-16 13:55:18 GMT 55.858727 -3.634930 3,250 49 185 -1024
2022-08-16 13:55:16 GMT 55.858727 -3.634930 3,250 48 185 -1088
2022-08-16 13:55:13 GMT 55.856632 -3.639221 3,325 45 185 -1216
2022-08-16 13:55:10 GMT 55.854679 -3.642912 3,400 43 185 -1408
2022-08-16 13:55:08 GMT 55.854073 -3.644028 3,425 43 184 -1536
2022-08-16 13:55:07 GMT 55.852707 -3.646296 3,475 42 183 -1792
2022-08-16 13:55:05 GMT 55.852066 -3.647378 3,500 42 183 -1920
2022-08-16 13:55:04 GMT 55.850739 -3.649542 3,575 42 182 -1856
2022-08-16 13:55:01 GMT 55.850143 -3.650540 3,600 42 181 -1856
2022-08-16 13:55:00 GMT 55.849136 -3.652122 3,650 42 180 -1856
2022-08-16 13:54:59 GMT 55.848534 -3.653126 3,675 42 179 -1856
2022-08-16 13:54:58 GMT 55.847351 -3.655035 3,750 41 177 -1792
2022-08-16 13:54:56 GMT 55.846481 -3.656450 3,800 39 177 -1728
2022-08-16 13:54:55 GMT 55.845474 -3.658198 3,825 36 175 -1728
2022-08-16 13:54:52 GMT 55.844063 -3.660164 3,900 31 174 -1600
2022-08-16 13:54:51 GMT 55.843552 -3.660936 3,925 24 174 -1536
2022-08-16 13:54:49 GMT 55.842110 -3.662567 3,975 21 173 -1472
2022-08-16 13:54:46 GMT 55.839733 -3.664370 4,025 15 173 -1280
2022-08-16 13:54:45 GMT 55.837502 -3.665485 4,075 7 174 -960
2022-08-16 13:54:43 GMT 55.837502 -3.665485 4,100 4 175 -896
2022-08-16 13:54:42 GMT 55.835964 -3.665829 4,125 0 176 -896
2022-08-16 13:54:40 GMT 55.835220 -3.665938 4,125 357 176 -896
2022-08-16 13:54:39 GMT 55.833591 -3.665915 4,175 352 176 -896
2022-08-16 13:54:36 GMT 55.831192 -3.665439 4,200 345 177 -832
2022-08-16 13:54:34 GMT 55.830284 -3.665056 4,225 339 179 -704
2022-08-16 13:54:32 GMT 55.828190 -3.663855 4,250 337 180 -640
2022-08-16 13:54:31 GMT 55.827724 -3.663597 4,250 334 180 -576
2022-08-16 13:54:29 GMT 55.825195 -3.661277 4,275 332 181 -576
2022-08-16 13:54:28 GMT 55.825195 -3.661277 4,300 326 181 -768
2022-08-16 13:54:27 GMT 55.823685 -3.659612 4,325 321 182 -1152
2022-08-16 13:54:24 GMT 55.822723 -3.658114 4,350 318 183 -1216
2022-08-16 13:54:23 GMT 55.822083 -3.657116 4,400 314 183 -1344
2022-08-16 13:54:21 GMT 55.821205 -3.655529 4,425 312 184 -1344
2022-08-16 13:54:20 GMT 55.820461 -3.653984 4,450 309 185 -1344
2022-08-16 13:54:19 GMT 55.819904 -3.652868 4,475 308 186 -1280
2022-08-16 13:54:17 GMT 55.818741 -3.650208 4,500 307 187 -1152
2022-08-16 13:54:16 GMT 55.817810 -3.647804 4,550 306 189 -1024
2022-08-16 13:54:14 GMT 55.817482 -3.647118 4,550 306 189 -960
2022-08-16 13:54:13 GMT 55.816181 -3.643942 4,575 307 190 -960
2022-08-16 13:54:11 GMT 55.815762 -3.642912 4,625 307 191 -960
2022-08-16 13:54:09 GMT 55.814758 -3.640386 4,650 306 192 -960
2022-08-16 13:54:08 GMT 55.814209 -3.639138 4,650 307 193 -960
2022-08-16 13:54:07 GMT 55.813202 -3.636646 4,675 307 194 -960
2022-08-16 13:54:05 GMT 55.812641 -3.635359 4,700 307 195 -896
2022-08-16 13:54:04 GMT 55.811523 -3.632612 4,725 307 196 -896
2022-08-16 13:54:02 GMT 55.810867 -3.630898 4,750 306 197 -832
2022-08-16 13:54:00 GMT 55.809906 -3.628568 4,775 307 199 -832
2022-08-16 13:53:59 GMT 55.809338 -3.627291 4,800 307 199 -896
2022-08-16 13:53:57 GMT 55.808823 -3.626003 4,800 307 200 -896
2022-08-16 13:53:55 GMT 55.807148 -3.621883 4,850 307 201 -1088
2022-08-16 13:53:53 GMT 55.806080 -3.619308 4,900 307 202 -1088
2022-08-16 13:53:52 GMT 55.804634 -3.615875 4,950 307 203 -1152
2022-08-16 13:53:50 GMT 55.804031 -3.614416 4,950 307 203 -1216
2022-08-16 13:53:48 GMT 55.803543 -3.613170 5,000 307 203 -1344
2022-08-16 13:53:45 GMT 55.801655 -3.608665 5,050 307 205 -1216
2022-08-16 13:53:43 GMT 55.800797 -3.606595 5,100 307 206 -1152
2022-08-16 13:53:42 GMT 55.800259 -3.605404 5,100 307 206 -1088
2022-08-16 13:53:40 GMT 55.799149 -3.602683 5,175 308 208 -1088
2022-08-16 13:53:39 GMT 55.798443 -3.601112 5,150 308 208 -1152
2022-08-16 13:53:38 GMT 55.797363 -3.598522 5,225 308 209 -1216
2022-08-16 13:53:36 GMT 55.796768 -3.597107 5,225 308 209 -1280
2022-08-16 13:53:35 GMT 55.795322 -3.593903 5,275 308 210 -1344
2022-08-16 13:53:33 GMT 55.794159 -3.591198 5,300 308 210 -1408
2022-08-16 13:53:31 GMT 55.793701 -3.590116 5,350 308 210 -1472
2022-08-16 13:53:30 GMT 55.792557 -3.587536 5,400 308 210 -1600
2022-08-16 13:53:28 GMT 55.791412 -3.584890 5,450 309 209 -1792
2022-08-16 13:53:26 GMT 55.790764 -3.583431 5,475 309 209 -1984
2022-08-16 13:53:24 GMT 55.789551 -3.580685 5,600 309 207 -2432
2022-08-16 13:53:23 GMT 55.788898 -3.579226 5,625 309 206 -2624
2022-08-16 13:53:21 GMT 55.787830 -3.576822 5,725 309 204 -2688
2022-08-16 13:53:19 GMT 55.786385 -3.573475 5,775 309 202 -2688
2022-08-16 13:53:18 GMT 55.785507 -3.571555 5,850 309 200 -2688
2022-08-16 13:53:16 GMT 55.784683 -3.569724 5,925 309 200 -2688
2022-08-16 13:53:14 GMT 55.783779 -3.567638 6,000 309 197 -2624
2022-08-16 13:53:13 GMT 55.782394 -3.564564 6,100 309 196 -2560
2022-08-16 13:53:11 GMT 55.781845 -3.563316 6,225 309 195 -2496
2022-08-16 13:53:09 GMT 55.780655 -3.560652 6,225 309 194 -2432
2022-08-16 13:53:08 GMT 55.780148 -3.559484 6,250 309 194 -2304
2022-08-16 13:53:07 GMT 55.779007 -3.556990 6,325 309 192 -2112
2022-08-16 13:53:05 GMT 55.778519 -3.555880 6,350 309 192 -1984
2022-08-16 13:53:04 GMT 55.777355 -3.553305 6,425 309 192 -1664
2022-08-16 13:53:02 GMT 55.776890 -3.552275 6,475 309 193 -1472
2022-08-16 13:53:00 GMT 55.775711 -3.549583 6,500 309 193 -1280
2022-08-16 13:52:59 GMT 55.775116 -3.548334 6,525 309 195 -1152
2022-08-16 13:52:57 GMT 55.774002 -3.545837 6,550 309 195 -896
2022-08-16 13:52:56 GMT 55.773422 -3.544422 6,550 308 196 -896
2022-08-16 13:52:54 GMT 55.772369 -3.542009 6,600 309 198 -960
2022-08-16 13:52:53 GMT 55.771774 -3.540760 6,625 309 198 -960
2022-08-16 13:52:51 GMT 55.770721 -3.538347 6,650 308 198 -1152
2022-08-16 13:52:50 GMT 55.770172 -3.537098 6,650 308 198 -1216
2022-08-16 13:52:48 GMT 55.769073 -3.534601 6,700 308 198 -1344
2022-08-16 13:52:47 GMT 55.768524 -3.533353 6,725 308 198 -1344
2022-08-16 13:52:46 GMT 55.767334 -3.530606 6,775 308 199 -1344
2022-08-16 13:52:43 GMT 55.766327 -3.528359 6,825 308 201 -1216
2022-08-16 13:52:41 GMT 55.765137 -3.525613 6,850 308 201 -1024
2022-08-16 13:52:40 GMT 55.763344 -3.521461 6,875 308 203 -960
2022-08-16 13:52:38 GMT 55.762802 -3.520286 6,925 308 204 -896
2022-08-16 13:52:36 GMT 55.762161 -3.518788 6,925 308 204 -896
2022-08-16 13:52:33 GMT 55.760513 -3.514959 6,975 308 206 -896
2022-08-16 13:52:31 GMT 55.759384 -3.512449 7,000 308 208 -896
2022-08-16 13:52:29 GMT 55.757401 -3.507801 7,050 308 210 -960
2022-08-16 13:52:26 GMT 55.756222 -3.505068 7,075 308 211 -960
2022-08-16 13:52:24 GMT 55.755569 -3.503640 7,100 308 211 -1024
2022-08-16 13:52:22 GMT 55.754173 -3.500347 7,150 308 213 -1024
2022-08-16 13:52:21 GMT 55.753464 -3.498646 7,150 308 214 -1024
2022-08-16 13:52:20 GMT 55.752823 -3.497231 7,175 308 214 -1088
2022-08-16 13:52:19 GMT 55.751587 -3.494318 7,225 308 216 -1088
2022-08-16 13:52:17 GMT 55.751007 -3.493052 7,225 308 216 -1152
2022-08-16 13:52:15 GMT 55.748978 -3.488326 7,300 308 218 -1216
2022-08-16 13:52:12 GMT 55.748108 -3.486328 7,325 308 218 -1216
2022-08-16 13:52:11 GMT 55.747421 -3.484830 7,350 308 218 -1280
2022-08-16 13:52:10 GMT 55.746780 -3.483415 7,375 308 219 -1344
2022-08-16 13:52:08 GMT 55.745747 -3.480949 7,425 309 220 -1344
2022-08-16 13:52:06 GMT 55.744583 -3.478289 7,450 308 221 -1216
2022-08-16 13:52:05 GMT 55.743931 -3.476830 7,500 309 222 -1088
2022-08-16 13:52:04 GMT 55.742489 -3.473568 7,525 308 223 -704
2022-08-16 13:52:01 GMT 55.741241 -3.470681 7,525 308 224 -704
2022-08-16 13:52:00 GMT 55.740509 -3.469100 7,550 309 225 -704
2022-08-16 13:51:58 GMT 55.739227 -3.466187 7,550 309 226 -704
2022-08-16 13:51:57 GMT 55.738579 -3.464727 7,575 309 227 -704
2022-08-16 13:51:56 GMT 55.737350 -3.462025 7,600 309 228 -704
2022-08-16 13:51:53 GMT 55.736061 -3.459063 7,625 309 230 -704
2022-08-16 13:51:52 GMT 55.735413 -3.457603 7,650 308 230 -704
2022-08-16 13:51:50 GMT 55.733963 -3.454285 7,675 309 233 -704
2022-08-16 13:51:49 GMT 55.733364 -3.452969 7,675 309 233 -704
2022-08-16 13:51:48 GMT 55.731968 -3.449793 7,700 309 235 -704
2022-08-16 13:51:46 GMT 55.731400 -3.448459 7,700 309 236 -640
2022-08-16 13:51:45 GMT 55.729637 -3.444557 7,725 308 237 -448
2022-08-16 13:51:42 GMT 55.728882 -3.442799 7,750 308 240 -320
2022-08-16 13:51:41 GMT 55.728291 -3.441467 7,750 308 241 -384
2022-08-16 13:51:39 GMT 55.726845 -3.438206 7,750 308 243 -448
2022-08-16 13:51:38 GMT 55.726101 -3.436489 7,775 308 244 -512
2022-08-16 13:51:36 GMT 55.724808 -3.433477 7,775 308 245 -576
2022-08-16 13:51:35 GMT 55.724194 -3.432112 7,800 308 247 -576
2022-08-16 13:51:33 GMT 55.722702 -3.428764 7,800 308 248 -512
2022-08-16 13:51:32 GMT 55.721008 -3.424905 7,825 309 249 -512
2022-08-16 13:51:30 GMT 55.720459 -3.423656 7,850 309 249 -576
2022-08-16 13:51:29 GMT 55.719131 -3.420660 7,850 309 250 -704
2022-08-16 13:51:27 GMT 55.718399 -3.418995 7,875 309 250 -832
2022-08-16 13:51:26 GMT 55.717537 -3.417091 7,900 309 250 -960
2022-08-16 13:51:24 GMT 55.716141 -3.413830 7,925 309 250 -1024
2022-08-16 13:51:23 GMT 55.715347 -3.412113 7,950 309 250 -960
2022-08-16 13:51:21 GMT 55.713913 -3.408841 7,975 309 252 -960
2022-08-16 13:51:20 GMT 55.713181 -3.407260 8,000 309 252 -896
2022-08-16 13:51:18 GMT 55.711670 -3.403847 8,025 309 252 -896
2022-08-16 13:51:17 GMT 55.710320 -3.400784 8,050 309 252 -896
2022-08-16 13:51:15 GMT 55.709564 -3.399187 8,075 309 252 -896
2022-08-16 13:51:13 GMT 55.708225 -3.396063 8,100 309 252 -960
2022-08-16 13:51:12 GMT 55.707436 -3.394260 8,100 309 252 -960
2022-08-16 13:51:09 GMT 55.705292 -3.389626 8,150 309 253 -1024
2022-08-16 13:51:07 GMT 55.703934 -3.386536 8,200 309 253 -1024
2022-08-16 13:51:06 GMT 55.702835 -3.384122 8,225 309 253 -1024
2022-08-16 13:51:04 GMT 55.701508 -3.381209 8,250 309 253 -1024
2022-08-16 13:51:03 GMT 55.699612 -3.376923 8,275 309 253 -1024
2022-08-16 13:51:00 GMT 55.697937 -3.373232 8,325 309 254 -1024
2022-08-16 13:50:58 GMT 55.696518 -3.370139 8,350 310 255 -960
2022-08-16 13:50:56 GMT 55.695694 -3.368392 8,375 310 255 -960
2022-08-16 13:50:54 GMT 55.694366 -3.365479 8,425 310 255 -1024
2022-08-16 13:50:53 GMT 55.692722 -3.361902 8,425 310 255 -1024
2022-08-16 13:50:51 GMT 55.691895 -3.360152 8,475 310 256 -1088
2022-08-16 13:50:49 GMT 55.690395 -3.356924 8,500 310 255 -1024
2022-08-16 13:50:47 GMT 55.688210 -3.352203 8,550 310 256 -896
2022-08-16 13:50:45 GMT 55.686630 -3.348833 8,575 310 257 -768
2022-08-16 13:50:42 GMT 55.685135 -3.345594 8,600 310 258 -640
2022-08-16 13:50:41 GMT 55.683693 -3.342505 8,625 310 259 -640
2022-08-16 13:50:38 GMT 55.682098 -3.339011 8,650 310 260 -640
2022-08-16 13:50:36 GMT 55.680573 -3.335724 8,675 309 260 -640
2022-08-16 13:50:35 GMT 55.679829 -3.334093 8,675 309 262 -640
2022-08-16 13:50:33 GMT 55.678387 -3.330917 8,700 309 262 -640
2022-08-16 13:50:32 GMT 55.676895 -3.327570 8,725 309 263 -640
2022-08-16 13:50:30 GMT 55.676105 -3.325939 8,725 309 264 -640
2022-08-16 13:50:29 GMT 55.674591 -3.322532 8,750 309 265 -704
2022-08-16 13:50:27 GMT 55.673870 -3.321047 8,750 309 265 -768
2022-08-16 13:50:26 GMT 55.672211 -3.317288 8,800 309 266 -832
2022-08-16 13:50:23 GMT 55.670609 -3.313793 8,825 309 266 -896
2022-08-16 13:50:21 GMT 55.669167 -3.310575 8,850 309 266 -896
2022-08-16 13:50:20 GMT 55.668457 -3.309049 8,875 309 267 -896
2022-08-16 13:50:19 GMT 55.666992 -3.305803 8,900 309 267 -896
2022-08-16 13:50:17 GMT 55.666214 -3.304055 8,900 309 268 -960
2022-08-16 13:50:15 GMT 55.664513 -3.300276 8,950 309 268 -1024
2022-08-16 13:50:13 GMT 55.663147 -3.297230 8,975 309 268 -1024
2022-08-16 13:50:12 GMT 55.662369 -3.295482 9,000 309 268 -1152
2022-08-16 13:50:11 GMT 55.661533 -3.293581 9,025 309 268 -1152
2022-08-16 13:50:10 GMT 55.659904 -3.290062 9,050 309 268 -1152
2022-08-16 13:50:08 GMT 55.659210 -3.288491 9,075 309 268 -1152
2022-08-16 13:50:06 GMT 55.657810 -3.285427 9,125 310 269 -1216
2022-08-16 13:50:05 GMT 55.656784 -3.283164 9,125 310 269 -1280
2022-08-16 13:50:03 GMT 55.655273 -3.280002 9,175 310 268 -1344
2022-08-16 13:50:02 GMT 55.654633 -3.278587 9,200 310 268 -1344
2022-08-16 13:50:00 GMT 55.653061 -3.275213 9,225 310 269 -1344
2022-08-16 13:49:58 GMT 55.651386 -3.271694 9,275 310 268 -1344
2022-08-16 13:49:57 GMT 55.650593 -3.269978 9,325 310 268 -1280
2022-08-16 13:49:56 GMT 55.649872 -3.268516 9,325 310 268 -1280
2022-08-16 13:49:55 GMT 55.648312 -3.265085 9,350 310 269 -1216
2022-08-16 13:49:53 GMT 55.646713 -3.261691 9,400 310 269 -1216
2022-08-16 13:49:51 GMT 55.645985 -3.260193 9,450 310 269 -1280
2022-08-16 13:49:50 GMT 55.645157 -3.258362 9,450 310 269 -1344
2022-08-16 13:49:48 GMT 55.643646 -3.255116 9,500 310 269 -1344
2022-08-16 13:49:47 GMT 55.641953 -3.251537 9,525 310 269 -1344
2022-08-16 13:49:45 GMT 55.641174 -3.249872 9,575 310 269 -1344
2022-08-16 13:49:44 GMT 55.639561 -3.246546 9,600 310 269 -1344
2022-08-16 13:49:42 GMT 55.637978 -3.243113 9,625 310 269 -1280
2022-08-16 13:49:39 GMT 55.635372 -3.237534 9,725 310 269 -1152
2022-08-16 13:49:36 GMT 55.633804 -3.234142 9,750 310 269 -1088
2022-08-16 13:49:35 GMT 55.633091 -3.232641 9,775 310 269 -1088
2022-08-16 13:49:33 GMT 55.631413 -3.229122 9,800 310 269 -1024
2022-08-16 13:49:32 GMT 55.629730 -3.225486 9,825 310 271 -960
2022-08-16 13:49:29 GMT 55.628433 -3.222771 9,875 310 271 -896
2022-08-16 13:49:28 GMT 55.626713 -3.219080 9,900 310 272 -832
2022-08-16 13:49:26 GMT 55.625885 -3.217330 9,900 310 272 -768
2022-08-16 13:49:23 GMT 55.623550 -3.212419 9,950 310 274 -704
2022-08-16 13:49:22 GMT 55.622772 -3.210671 9,950 310 274 -768
2022-08-16 13:49:20 GMT 55.621216 -3.207425 9,975 310 274 -832
2022-08-16 13:49:19 GMT 55.620438 -3.205677 10,000 310 275 -832
2022-08-16 13:49:17 GMT 55.618561 -3.201682 10,025 310 276 -768
2022-08-16 13:49:16 GMT 55.617821 -3.200111 10,025 310 277 -768
2022-08-16 13:49:15 GMT 55.615307 -3.194704 10,050 310 277 -704
2022-08-16 13:49:13 GMT 55.615307 -3.194704 10,075 310 278 -704
2022-08-16 13:49:11 GMT 55.613678 -3.191185 10,100 310 279 -768
2022-08-16 13:49:10 GMT 55.612198 -3.188033 10,125 310 279 -768
2022-08-16 13:49:08 GMT 55.611374 -3.186285 10,125 310 279 -896
2022-08-16 13:49:06 GMT 55.609722 -3.182774 10,150 310 281 -832
2022-08-16 13:49:05 GMT 55.608994 -3.181208 10,175 310 281 -896
2022-08-16 13:49:04 GMT 55.608276 -3.179598 10,200 310 281 -896
2022-08-16 13:49:02 GMT 55.606430 -3.175715 10,225 310 282 -960
2022-08-16 13:49:00 GMT 55.603867 -3.170222 10,275 310 283 -896
2022-08-16 13:48:58 GMT 55.603043 -3.168474 10,275 310 283 -896
2022-08-16 13:48:56 GMT 55.601486 -3.165061 10,300 310 284 -832
2022-08-16 13:48:54 GMT 55.599792 -3.161482 10,325 310 284 -832
2022-08-16 13:48:53 GMT 55.598190 -3.158070 10,350 310 286 -896
2022-08-16 13:48:50 GMT 55.596451 -3.154325 10,400 310 286 -960
2022-08-16 13:48:48 GMT 55.594574 -3.150330 10,425 310 286 -1024
2022-08-16 13:48:47 GMT 55.593658 -3.148415 10,450 310 287 -960
2022-08-16 13:48:45 GMT 55.591965 -3.144753 10,475 310 288 -960
2022-08-16 13:48:43 GMT 55.590363 -3.141341 10,500 310 289 -896
2022-08-16 13:48:42 GMT 55.588760 -3.137845 10,550 310 289 -1024
2022-08-16 13:48:39 GMT 55.587467 -3.135138 10,550 310 289 -1024
2022-08-16 13:48:38 GMT 55.585693 -3.131270 10,600 310 291 -1088
2022-08-16 13:48:36 GMT 55.584778 -3.129272 10,625 310 291 -1216
2022-08-16 13:48:33 GMT 55.582123 -3.123613 10,675 310 291 -1280
2022-08-16 13:48:32 GMT 55.581371 -3.122005 10,725 310 292 -1088
2022-08-16 13:48:30 GMT 55.579369 -3.117714 10,725 310 293 -896
2022-08-16 13:48:29 GMT 55.578857 -3.116598 10,750 310 294 -704
2022-08-16 13:48:28 GMT 55.577179 -3.112876 10,775 310 295 -512
2022-08-16 13:48:26 GMT 55.576309 -3.111045 10,775 310 297 -384
2022-08-16 13:48:23 GMT 55.573689 -3.105440 10,800 310 299 -448
2022-08-16 13:48:22 GMT 55.572849 -3.103552 10,800 310 300 -448
2022-08-16 13:48:20 GMT 55.569855 -3.097146 10,825 310 303 -512
2022-08-16 13:48:18 GMT 55.568989 -3.095226 10,825 310 303 -512
2022-08-16 13:48:16 GMT 55.567291 -3.091569 10,850 310 305 -512
2022-08-16 13:48:15 GMT 55.566425 -3.089647 10,850 310 306 -512
2022-08-16 13:48:14 GMT 55.565495 -3.087759 10,875 310 306 -448
2022-08-16 13:48:12 GMT 55.563812 -3.084079 10,875 310 308 -448
2022-08-16 13:48:10 GMT 55.562004 -3.080206 10,900 310 311 -448
2022-08-16 13:48:09 GMT 55.559910 -3.075743 10,925 310 312 -512
2022-08-16 13:48:07 GMT 55.558914 -3.073592 10,925 310 313 -512
2022-08-16 13:48:05 GMT 55.556992 -3.069513 10,950 310 314 -512
2022-08-16 13:48:04 GMT 55.556141 -3.067675 10,950 310 315 -448
2022-08-16 13:48:03 GMT 55.554474 -3.064187 10,975 310 316 -448
2022-08-16 13:48:01 GMT 55.553623 -3.062353 10,975 310 318 -448
2022-08-16 13:47:59 GMT 55.551716 -3.058147 10,975 310 320 -384
2022-08-16 13:47:58 GMT 55.549530 -3.053533 11,000 310 322 -384
2022-08-16 13:47:56 GMT 55.548615 -3.051536 11,000 310 322 -384
2022-08-16 13:47:54 GMT 55.547012 -3.048040 11,025 310 324 -448
2022-08-16 13:47:52 GMT 55.544922 -3.043556 11,025 310 326 -448
2022-08-16 13:47:51 GMT 55.542068 -3.037387 11,050 310 328 -576
2022-08-16 13:47:49 GMT 55.542068 -3.037387 11,050 310 329 -576
2022-08-16 13:47:47 GMT 55.540264 -3.033514 11,075 310 330 -640
2022-08-16 13:47:45 GMT 55.538315 -3.029314 11,100 310 332 -768
2022-08-16 13:47:44 GMT 55.537472 -3.027420 11,125 310 333 -768
2022-08-16 13:47:43 GMT 55.536575 -3.025568 11,125 310 334 -832
2022-08-16 13:47:41 GMT 55.533653 -3.019266 11,175 310 335 -1152
2022-08-16 13:47:39 GMT 55.532303 -3.016262 11,200 310 335 -1216
2022-08-16 13:47:36 GMT 55.527878 -3.006758 11,300 310 336 -1728
2022-08-16 13:47:34 GMT 55.527878 -3.006758 11,325 310 336 -1984
2022-08-16 13:47:32 GMT 55.525925 -3.002529 11,475 310 335 -2304
2022-08-16 13:47:30 GMT 55.522385 -2.994940 11,525 310 335 -2176
2022-08-16 13:47:27 GMT 55.521317 -2.992573 11,575 310 335 -2176
2022-08-16 13:47:26 GMT 55.518768 -2.987033 11,650 310 336 -1856
2022-08-16 13:47:25 GMT 55.518768 -2.987033 11,650 310 336 -1664
2022-08-16 13:47:24 GMT 55.516800 -2.982788 11,700 310 338 -1344
2022-08-16 13:47:22 GMT 55.515747 -2.980458 11,725 310 339 -1216
2022-08-16 13:47:21 GMT 55.513962 -2.976629 11,775 310 340 -1152
2022-08-16 13:47:19 GMT 55.511963 -2.972317 11,800 310 341 -1216
2022-08-16 13:47:17 GMT 55.509075 -2.966137 11,875 310 342 -1728
2022-08-16 13:47:15 GMT 55.509075 -2.966137 11,875 310 342 -1728
2022-08-16 13:47:13 GMT 55.506866 -2.961398 11,950 310 342 -1984
2022-08-16 13:47:11 GMT 55.504852 -2.957070 12,025 310 342 -2112
2022-08-16 13:47:10 GMT 55.503674 -2.954550 12,050 310 342 -2112
2022-08-16 13:47:09 GMT 55.502651 -2.952318 12,100 310 342 -2112
2022-08-16 13:47:07 GMT 55.500557 -2.947855 12,175 310 342 -2048
2022-08-16 13:47:05 GMT 55.498787 -2.943907 12,225 310 343 -1984
2022-08-16 13:47:03 GMT 55.496750 -2.939592 12,300 310 343 -1984
2022-08-16 13:47:02 GMT 55.495789 -2.937428 12,325 310 344 -1920
2022-08-16 13:47:00 GMT 55.493759 -2.933092 12,375 310 344 -1920
2022-08-16 13:46:58 GMT 55.491943 -2.929230 12,450 310 344 -1856
2022-08-16 13:46:57 GMT 55.489849 -2.924681 12,500 310 345 -1792
2022-08-16 13:46:55 GMT 55.489056 -2.922878 12,525 310 346 -1792
2022-08-16 13:46:53 GMT 55.487045 -2.918535 12,600 310 346 -1792
2022-08-16 13:46:51 GMT 55.484589 -2.913351 12,650 310 346 -1792
2022-08-16 13:46:49 GMT 55.482773 -2.909403 12,725 310 347 -1856
2022-08-16 13:46:48 GMT 55.481552 -2.906799 12,750 310 347 -1920
2022-08-16 13:46:46 GMT 55.479950 -2.903304 12,800 310 347 -1984
2022-08-16 13:46:45 GMT 55.477932 -2.898932 12,875 310 347 -2048
2022-08-16 13:46:43 GMT 55.476906 -2.896700 12,900 310 347 -2048
2022-08-16 13:46:39 GMT 55.473324 -2.889061 13,025 310 348 -1920
2022-08-16 13:46:37 GMT 55.471298 -2.884660 13,175 310 349 -1920
2022-08-16 13:46:34 GMT 55.468735 -2.879250 13,175 310 349 -1920
2022-08-16 13:46:31 GMT 55.465485 -2.872176 13,325 310 350 -2176
2022-08-16 13:46:29 GMT 55.463104 -2.867099 13,350 310 350 -2240
2022-08-16 13:46:27 GMT 55.460541 -2.861689 13,450 310 350 -2240
2022-08-16 13:46:25 GMT 55.459076 -2.858609 13,600 310 351 -1920
2022-08-16 13:46:21 GMT 55.454727 -2.849371 13,675 310 351 -1920
2022-08-16 13:46:18 GMT 55.451340 -2.842130 13,750 310 351 -1920
2022-08-16 13:46:15 GMT 55.448322 -2.835760 13,900 310 353 -1856
2022-08-16 13:46:12 GMT 55.444508 -2.827606 14,025 310 352 -2048
2022-08-16 13:46:09 GMT 55.442318 -2.822987 14,050 310 353 -1920
2022-08-16 13:46:07 GMT 55.439621 -2.817185 14,100 310 353 -1856
2022-08-16 13:46:04 GMT 55.436733 -2.811002 14,225 310 355 -1728
2022-08-16 13:46:01 GMT 55.434219 -2.805634 14,275 310 355 -1792
2022-08-16 13:45:59 GMT 55.431427 -2.799656 14,350 310 355 -1984
2022-08-16 13:45:55 GMT 55.427353 -2.790931 14,500 310 356 -2240
2022-08-16 13:45:53 GMT 55.425236 -2.786449 14,575 310 356 -2176
2022-08-16 13:45:49 GMT 55.421356 -2.778168 14,700 310 357 -1920
2022-08-16 13:45:47 GMT 55.419571 -2.774371 14,750 310 357 -1920
2022-08-16 13:45:45 GMT 55.416962 -2.768797 14,825 310 359 -1792
2022-08-16 13:45:42 GMT 55.410290 -2.754655 14,975 310 360 -1856
2022-08-16 13:45:39 GMT 55.410290 -2.754655 15,025 310 360 -1920
2022-08-16 13:45:37 GMT 55.409222 -2.752408 15,100 310 361 -1920
2022-08-16 13:45:35 GMT 55.406380 -2.746332 15,150 310 361 -1920
2022-08-16 13:45:33 GMT 55.403732 -2.740685 15,225 310 361 -1856
2022-08-16 13:45:30 GMT 55.400620 -2.734061 15,350 310 363 -1856
2022-08-16 13:45:27 GMT 55.398514 -2.729520 15,375 310 363 -1920
2022-08-16 13:45:25 GMT 55.395813 -2.723860 15,475 310 363 -2176
2022-08-16 13:45:21 GMT 55.391739 -2.715239 15,625 310 363 -2240
2022-08-16 13:45:19 GMT 55.387897 -2.707048 15,750 310 364 -2240
2022-08-16 13:45:17 GMT 55.384594 -2.699973 15,800 310 364 -2240
2022-08-16 13:45:15 GMT 55.384594 -2.699973 15,850 310 364 -2240
2022-08-16 13:45:12 GMT 55.381989 -2.694559 16,000 310 365 -2240
2022-08-16 13:45:09 GMT 55.375992 -2.681795 16,125 310 365 -2176
2022-08-16 13:45:07 GMT 55.375992 -2.681795 16,150 310 365 -2176
2022-08-16 13:45:04 GMT 55.373749 -2.677002 16,225 310 365 -2176
2022-08-16 13:45:02 GMT 55.367462 -2.663768 16,400 310 365 -2304
2022-08-16 13:44:59 GMT 55.367462 -2.663768 16,450 310 365 -2368
2022-08-16 13:44:57 GMT 55.365974 -2.660606 16,625 310 367 -2048
2022-08-16 13:44:54 GMT 55.362854 -2.653947 16,600 310 366 -2240
2022-08-16 13:44:50 GMT 55.356903 -2.641404 16,800 310 367 -1984
2022-08-16 13:44:47 GMT 55.355347 -2.638254 16,850 310 367 -1984
2022-08-16 13:44:44 GMT 55.351681 -2.630477 16,925 310 368 -1920
2022-08-16 13:44:40 GMT 55.346470 -2.619407 17,100 310 369 -1920
2022-08-16 13:44:37 GMT 55.344040 -2.614423 17,200 310 369 -1984
2022-08-16 13:44:34 GMT 55.340553 -2.607006 17,300 310 371 -2048
2022-08-16 13:44:30 GMT 55.336578 -2.598671 17,425 310 372 -2048
2022-08-16 13:44:27 GMT 55.333191 -2.591562 17,575 310 373 -1920
2022-08-16 13:44:24 GMT 55.329895 -2.584617 17,625 310 373 -1856
2022-08-16 13:44:21 GMT 55.326031 -2.576460 17,725 310 374 -1728
2022-08-16 13:44:18 GMT 55.322819 -2.569719 17,800 310 375 -1792
2022-08-16 13:44:16 GMT 55.320602 -2.565065 17,925 310 376 -1856
2022-08-16 13:44:13 GMT 55.318405 -2.560380 17,925 310 376 -1856
2022-08-16 13:44:10 GMT 55.314392 -2.551908 18,100 308 377 -1984
2022-08-16 13:44:07 GMT 55.307465 -2.536145 18,175 307 377 -1984
2022-08-16 13:44:04 GMT 55.305408 -2.531183 18,350 306 379 -1984
2022-08-16 13:43:59 GMT 55.300735 -2.519747 18,450 306 380 -2112
2022-08-16 13:43:57 GMT 55.300735 -2.519747 18,500 306 380 -2176
2022-08-16 13:43:55 GMT 55.296753 -2.509972 18,575 306 380 -2240
2022-08-16 13:43:53 GMT 55.293213 -2.501137 18,725 306 380 -2240
2022-08-16 13:43:50 GMT 55.293213 -2.501137 18,750 306 381 -2176
2022-08-16 13:43:47 GMT 55.290161 -2.493654 18,950 306 382 -1984
2022-08-16 13:43:44 GMT 55.287689 -2.487596 18,925 306 382 -1984
2022-08-16 13:43:42 GMT 55.285126 -2.481295 19,025 305 382 -2048
2022-08-16 13:43:39 GMT 55.281830 -2.472893 19,150 304 382 -2176
2022-08-16 13:43:37 GMT 55.279945 -2.467929 19,200 302 382 -2304
2022-08-16 13:43:34 GMT 55.277710 -2.461665 19,300 302 382 -2368
2022-08-16 13:43:32 GMT 55.275288 -2.454778 19,400 302 383 -2432
2022-08-16 13:43:30 GMT 55.273727 -2.450274 19,475 302 383 -2496
2022-08-16 13:43:27 GMT 55.271439 -2.443650 19,550 302 383 -2560
2022-08-16 13:43:25 GMT 55.269238 -2.437300 19,675 302 382 -2624
2022-08-16 13:43:23 GMT 55.267410 -2.432018 19,850 302 383 -2368
2022-08-16 13:43:20 GMT 55.264664 -2.424101 19,925 302 384 -2112
2022-08-16 13:43:17 GMT 55.261883 -2.416160 19,975 302 384 -1344
2022-08-16 13:43:14 GMT 55.259308 -2.408672 20,050 302 385 -1024
2022-08-16 13:43:11 GMT 55.255783 -2.398598 20,150 302 385 -960
2022-08-16 13:43:07 GMT 55.252899 -2.390359 20,150 302 386 -960
2022-08-16 13:43:05 GMT 55.250336 -2.382902 20,225 302 386 -960
2022-08-16 13:43:02 GMT 55.248001 -2.376278 20,400 302 392 -960
2022-08-16 13:42:59 GMT 55.245758 -2.369816 20,400 302 392 -960
2022-08-16 13:42:57 GMT 55.243355 -2.362893 20,325 302 389 -960
2022-08-16 13:42:54 GMT 55.239807 -2.352690 20,375 302 389 -960
2022-08-16 13:42:50 GMT 55.237061 -2.344935 20,425 302 392 -960
2022-08-16 13:42:47 GMT 55.233486 -2.334595 20,500 302 394 -1088
2022-08-16 13:42:44 GMT 55.230553 -2.326189 20,525 302 395 -1216
2022-08-16 13:42:41 GMT 55.228088 -2.319085 20,625 302 396 -1792
2022-08-16 13:42:38 GMT 55.225159 -2.310603 20,725 302 398 -1984
2022-08-16 13:42:35 GMT 55.219521 -2.294395 20,875 302 398 -2048
2022-08-16 13:42:33 GMT 55.219521 -2.294395 20,925 302 399 -2048
2022-08-16 13:42:30 GMT 55.217609 -2.288902 20,950 302 399 -2048
2022-08-16 13:42:27 GMT 55.214722 -2.280632 21,075 302 400 -2176
2022-08-16 13:42:25 GMT 55.211231 -2.270674 21,225 302 400 -2304
2022-08-16 13:42:20 GMT 55.207836 -2.261020 21,325 302 400 -2240
2022-08-16 13:42:17 GMT 55.205460 -2.254112 21,450 302 402 -2240
2022-08-16 13:42:15 GMT 55.202911 -2.246946 21,550 302 402 -2240
2022-08-16 13:42:13 GMT 55.199036 -2.235884 21,625 302 403 -2176
2022-08-16 13:42:11 GMT 55.195824 -2.226729 21,725 302 403 -2112
2022-08-16 13:42:07 GMT 55.195824 -2.226729 21,825 302 404 -2112
2022-08-16 13:42:04 GMT 55.192799 -2.218073 21,975 302 406 -2112
2022-08-16 13:42:01 GMT 55.189499 -2.208656 22,050 302 406 -2176
2022-08-16 13:41:58 GMT 55.186249 -2.199447 22,175 302 406 -2240
2022-08-16 13:41:56 GMT 55.181808 -2.186845 22,275 302 407 -2304
2022-08-16 13:41:53 GMT 55.181808 -2.186845 22,725 302 408 -2304
2022-08-16 13:41:50 GMT 55.176739 -2.172630 22,500 302 408 -2304
2022-08-16 13:41:48 GMT 55.176739 -2.172630 22,575 302 409 -2240
2022-08-16 13:41:46 GMT 55.171005 -2.156390 22,675 302 409 -2304
2022-08-16 13:41:43 GMT 55.171005 -2.156390 22,750 302 409 -2304
2022-08-16 13:41:40 GMT 55.168823 -2.150158 23,000 302 409 -2368
2022-08-16 13:41:37 GMT 55.163269 -2.134417 23,000 302 410 -2304
2022-08-16 13:41:34 GMT 55.163269 -2.134417 23,075 302 410 -2304
2022-08-16 13:41:32 GMT 55.159470 -2.123673 23,375 302 412 -2496
2022-08-16 13:41:30 GMT 55.159470 -2.123673 23,200 302 412 -2304
2022-08-16 13:41:27 GMT 55.153381 -2.106467 23,350 302 412 -2432
2022-08-16 13:41:25 GMT 55.153381 -2.106467 23,450 302 412 -2496
2022-08-16 13:41:22 GMT 55.150810 -2.099055 23,550 302 413 -2496
2022-08-16 13:41:20 GMT 55.148987 -2.093946 23,625 302 413 -2496
2022-08-16 13:41:18 GMT 55.147385 -2.089422 23,725 302 413 -2496
2022-08-16 13:41:16 GMT 55.144272 -2.080617 23,850 302 413 -2432
2022-08-16 13:41:13 GMT 55.140793 -2.070681 24,025 302 414 -2496
2022-08-16 13:41:10 GMT 55.136147 -2.057689 24,250 302 414 -2624
2022-08-16 13:41:07 GMT 55.136147 -2.057689 24,150 302 414 -2624
2022-08-16 13:41:05 GMT 55.133972 -2.051374 24,275 302 414 -2624
2022-08-16 13:41:02 GMT 55.128754 -2.036591 24,475 302 415 -2496
2022-08-16 13:41:00 GMT 55.128754 -2.036591 24,475 302 415 -2496
2022-08-16 13:40:58 GMT 55.126740 -2.030936 24,550 302 416 -2496
2022-08-16 13:40:56 GMT 55.124741 -2.025230 24,700 302 416 -2560
2022-08-16 13:40:53 GMT 55.121521 -2.016072 24,775 302 415 -2752
2022-08-16 13:40:50 GMT 55.118732 -2.008084 24,950 302 412 -3648
2022-08-16 13:40:48 GMT 55.116623 -2.002097 25,025 302 414 -3328
2022-08-16 13:40:45 GMT 55.113056 -1.991771 25,225 302 412 -3840
2022-08-16 13:40:42 GMT 55.110634 -1.984697 25,400 302 409 -4352
2022-08-16 13:40:40 GMT 55.108864 -1.979620 25,525 302 409 -4480
2022-08-16 13:40:37 GMT 55.105839 -1.970881 25,850 303 408 -4416
2022-08-16 13:40:35 GMT 55.104397 -1.967052 26,025 305 408 -4288
2022-08-16 13:40:32 GMT 55.100765 -1.957481 26,200 307 407 -4032
2022-08-16 13:40:29 GMT 55.097031 -1.948538 26,325 308 406 -3968
2022-08-16 13:40:27 GMT 55.095108 -1.944095 26,425 310 406 -3648
2022-08-16 13:40:25 GMT 55.092899 -1.939253 26,625 311 406 -3328
2022-08-16 13:40:22 GMT 55.086411 -1.926162 26,900 314 408 -2176
2022-08-16 13:40:19 GMT 55.086411 -1.926162 27,350 315 408 -1984
2022-08-16 13:40:17 GMT 55.083260 -1.920111 26,875 316 409 -1792
2022-08-16 13:40:15 GMT 55.076431 -1.908309 27,025 320 408 -1344
2022-08-16 13:40:12 GMT 55.076431 -1.908309 27,075 320 408 -1344
2022-08-16 13:40:10 GMT 55.073673 -1.903797 27,125 320 408 -1344
2022-08-16 13:40:07 GMT 55.069435 -1.897306 27,150 321 408 -1344
2022-08-16 13:40:05 GMT 55.066544 -1.893122 27,225 323 407 -1408
2022-08-16 13:40:02 GMT 55.061966 -1.886902 27,275 324 407 -1408
2022-08-16 13:39:59 GMT 55.058308 -1.882407 27,375 327 404 -1408
2022-08-16 13:39:57 GMT 55.054119 -1.877497 27,400 329 401 -1216
2022-08-16 13:39:55 GMT 55.050022 -1.873002 27,475 329 399 -1088
2022-08-16 13:39:52 GMT 55.046997 -1.869840 27,500 329 399 -1088
2022-08-16 13:39:49 GMT 55.042740 -1.865333 27,575 329 399 -1536
2022-08-16 13:39:47 GMT 55.038990 -1.861350 27,600 329 399 -1664
2022-08-16 13:39:45 GMT 55.035507 -1.857659 27,750 329 401 -1792
2022-08-16 13:39:42 GMT 55.028561 -1.850364 28,025 330 403 -1856
2022-08-16 13:39:40 GMT 55.023514 -1.845057 28,025 330 403 -1856
2022-08-16 13:39:37 GMT 55.023514 -1.845057 27,925 329 401 -1792
2022-08-16 13:39:35 GMT 55.019714 -1.841099 27,950 330 403 -1856
2022-08-16 13:39:32 GMT 55.009827 -1.830839 28,225 330 403 -1792
2022-08-16 13:39:29 GMT 55.009827 -1.830839 28,150 330 403 -1792
2022-08-16 13:39:26 GMT 55.002640 -1.823327 28,300 330 404 -1792
2022-08-16 13:39:24 GMT 55.002640 -1.823327 28,275 330 404 -1792
2022-08-16 13:39:22 GMT 54.998817 -1.819319 28,350 330 404 -1792
2022-08-16 13:39:19 GMT 54.993370 -1.813660 28,725 329 405 -1792
2022-08-16 13:39:16 GMT 54.990017 -1.810164 29,425 330 405 -1792
2022-08-16 13:39:14 GMT 54.986015 -1.806003 28,600 330 405 -1792
2022-08-16 13:39:12 GMT 54.982635 -1.802485 28,675 330 405 -1792
2022-08-16 13:39:09 GMT 54.977646 -1.797315 28,750 329 407 -1792
2022-08-16 13:39:06 GMT 54.970280 -1.789523 28,850 329 407 -1792
2022-08-16 13:39:04 GMT 54.970280 -1.789523 28,875 329 407 -1792
2022-08-16 13:39:02 GMT 54.962036 -1.780997 28,975 330 408 -1792
2022-08-16 13:38:59 GMT 54.962036 -1.780997 29,100 330 408 -1792
2022-08-16 13:38:57 GMT 54.958649 -1.777442 29,100 330 408 -1728
2022-08-16 13:38:55 GMT 54.954437 -1.773080 29,625 329 411 -1792
2022-08-16 13:38:52 GMT 54.950409 -1.768880 29,250 329 409 -1728
2022-08-16 13:38:50 GMT 54.947021 -1.765325 29,325 329 410 -1792
2022-08-16 13:38:47 GMT 54.942486 -1.760559 29,375 329 410 -1792
2022-08-16 13:38:45 GMT 54.935989 -1.753773 29,575 329 410 -1792
2022-08-16 13:38:41 GMT 54.932899 -1.750572 29,575 329 411 -1792
2022-08-16 13:38:38 GMT 54.927872 -1.745245 29,650 329 411 -1792
2022-08-16 13:38:36 GMT 54.925591 -1.742914 29,700 329 411 -1792
2022-08-16 13:38:34 GMT 54.920059 -1.737052 29,775 329 412 -1856
2022-08-16 13:38:31 GMT 54.917488 -1.734342 29,925 329 413 -1856
2022-08-16 13:38:29 GMT 54.912735 -1.729377 29,950 329 412 -1856
2022-08-16 13:38:26 GMT 54.903946 -1.720168 30,075 329 413 -1856
2022-08-16 13:38:23 GMT 54.903946 -1.720168 30,100 329 413 -1856
2022-08-16 13:38:20 GMT 54.897263 -1.713140 30,250 329 415 -1856
2022-08-16 13:38:17 GMT 54.894287 -1.710070 30,350 329 414 -1856
2022-08-16 13:38:14 GMT 54.887741 -1.703204 30,450 329 415 -1856
2022-08-16 13:38:11 GMT 54.884171 -1.699407 30,525 329 416 -1856
2022-08-16 13:38:08 GMT 54.880051 -1.695126 30,550 329 415 -1856
2022-08-16 13:38:05 GMT 54.873497 -1.688316 30,675 329 416 -1856
2022-08-16 13:38:03 GMT 54.866749 -1.681241 30,775 329 416 -1792
2022-08-16 13:38:01 GMT 54.866749 -1.681241 30,800 330 417 -1792
2022-08-16 13:37:58 GMT 54.863583 -1.677995 31,000 329 418 -1856
2022-08-16 13:37:55 GMT 54.856979 -1.671053 30,975 329 418 -1856
2022-08-16 13:37:53 GMT 54.848221 -1.661932 31,075 330 419 -1792
2022-08-16 13:37:50 GMT 54.848221 -1.661932 31,250 330 419 -1792
2022-08-16 13:37:47 GMT 54.844074 -1.657604 31,250 330 419 -1792
2022-08-16 13:37:44 GMT 54.838440 -1.651746 31,350 329 421 -1792
2022-08-16 13:37:40 GMT 54.826759 -1.639626 31,500 329 421 -1792
2022-08-16 13:37:37 GMT 54.823593 -1.636380 31,700 330 422 -1856
2022-08-16 13:37:34 GMT 54.823593 -1.636380 31,575 330 423 -1856
2022-08-16 13:37:31 GMT 54.816425 -1.628890 31,725 330 422 -1856
2022-08-16 13:37:28 GMT 54.812885 -1.625227 31,850 330 423 -1856
2022-08-16 13:37:26 GMT 54.805717 -1.617820 31,925 330 424 -1856
2022-08-16 13:37:24 GMT 54.805717 -1.617820 32,025 329 424 -1856
2022-08-16 13:37:21 GMT 54.800995 -1.612890 32,025 329 424 -1856
2022-08-16 13:37:19 GMT 54.798660 -1.610466 32,050 330 425 -1856
2022-08-16 13:37:17 GMT 54.794128 -1.605781 32,150 330 425 -1856
2022-08-16 13:37:15 GMT 54.790401 -1.601923 32,200 330 425 -1792
2022-08-16 13:37:13 GMT 54.787746 -1.599093 32,250 329 426 -1856
2022-08-16 13:37:10 GMT 54.780670 -1.591725 32,400 329 427 -1792
2022-08-16 13:37:07 GMT 54.775597 -1.586526 32,475 329 427 -1856
2022-08-16 13:37:04 GMT 54.765427 -1.575892 32,725 330 429 -1856
2022-08-16 13:37:01 GMT 54.765427 -1.575892 32,675 329 428 -1856
2022-08-16 13:36:58 GMT 54.761902 -1.572257 32,725 330 429 -1856
2022-08-16 13:36:55 GMT 54.753067 -1.563055 32,850 329 429 -1856
2022-08-16 13:36:53 GMT 54.753067 -1.563055 33,000 329 429 -1856
2022-08-16 13:36:50 GMT 54.744595 -1.554149 32,975 329 430 -1856
2022-08-16 13:36:48 GMT 54.744595 -1.554149 33,025 329 431 -1856
2022-08-16 13:36:46 GMT 54.741520 -1.550987 33,075 329 432 -1856
2022-08-16 13:36:43 GMT 54.733841 -1.543014 33,225 329 432 -1856
2022-08-16 13:36:40 GMT 54.730774 -1.539782 33,275 329 432 -1856
2022-08-16 13:36:37 GMT 54.726517 -1.535339 33,500 329 434 -1856
2022-08-16 13:36:34 GMT 54.721527 -1.530169 30,125 329 433 -1856
2022-08-16 13:36:31 GMT 54.716217 -1.524676 33,600 329 434 -1920
2022-08-16 13:36:28 GMT 54.710907 -1.519102 33,650 330 435 -1920
2022-08-16 13:36:26 GMT 54.701431 -1.509328 33,775 330 435 -1920
2022-08-16 13:36:23 GMT 54.696972 -1.504711 33,825 330 435 -1920
2022-08-16 13:36:20 GMT 54.696972 -1.504711 33,900 330 436 -1920
2022-08-16 13:36:17 GMT 54.692642 -1.500199 34,050 330 439 -1984
2022-08-16 13:36:14 GMT 54.687103 -1.494557 34,175 330 438 -1920
2022-08-16 13:36:12 GMT 54.682076 -1.489313 34,250 330 438 -1920
2022-08-16 13:36:09 GMT 54.678268 -1.485416 34,325 330 439 -1984
2022-08-16 13:36:06 GMT 54.672157 -1.479159 34,400 330 440 -1984
2022-08-16 13:36:03 GMT 54.666962 -1.473784 34,450 330 440 -1984
2022-08-16 13:36:00 GMT 54.658752 -1.465426 34,575 330 441 -1920
2022-08-16 13:35:58 GMT 54.658752 -1.465426 34,600 330 441 -1920
2022-08-16 13:35:56 GMT 54.656113 -1.462716 34,650 330 441 -1984
2022-08-16 13:35:54 GMT 54.648422 -1.454800 35,125 330 442 -1984
2022-08-16 13:35:52 GMT 54.648422 -1.454800 34,800 330 442 -1984
2022-08-16 13:35:49 GMT 54.643845 -1.450195 34,900 330 442 -1984
2022-08-16 13:35:46 GMT 54.637711 -1.443894 35,025 330 443 -1856
2022-08-16 13:35:43 GMT 54.632404 -1.438460 35,150 330 445 -1792
2022-08-16 13:35:40 GMT 54.628029 -1.433966 35,175 330 445 -1792
2022-08-16 13:35:37 GMT 54.622742 -1.428546 35,250 330 446 -1792
2022-08-16 13:35:34 GMT 54.616928 -1.422487 35,350 330 447 -1856
2022-08-16 13:35:32 GMT 54.613361 -1.418901 35,500 330 447 -1856
2022-08-16 13:35:29 GMT 54.607178 -1.412470 35,525 330 447 -1856
2022-08-16 13:35:26 GMT 54.602562 -1.407748 35,675 330 448 -1856
2022-08-16 13:35:23 GMT 54.597244 -1.402292 35,775 330 449 -1856
2022-08-16 13:35:20 GMT 54.592274 -1.397095 35,850 330 449 -1920
2022-08-16 13:35:17 GMT 54.587852 -1.392517 35,925 330 450 -1920
2022-08-16 13:35:15 GMT 54.584267 -1.388855 35,975 330 451 -1920
2022-08-16 13:35:13 GMT 54.579426 -1.383944 36,275 330 457 -1856
2022-08-16 13:35:10 GMT 54.573189 -1.377536 36,275 330 453 -1856
2022-08-16 13:35:06 GMT 54.566856 -1.371210 36,525 330 456 -1920
2022-08-16 13:35:04 GMT 54.564156 -1.368464 36,375 330 453 -1856
2022-08-16 13:35:02 GMT 54.559662 -1.363920 36,475 330 453 -1856
2022-08-16 13:34:59 GMT 54.555683 -1.359891 36,450 330 453 -1920
2022-08-16 13:34:57 GMT 54.550053 -1.354231 37,225 330 455 -1920
2022-08-16 13:34:55 GMT 54.546795 -1.350985 36,600 330 456 -1920
2022-08-16 13:34:52 GMT 54.542084 -1.346229 36,675 330 456 -1920
2022-08-16 13:34:50 GMT 54.531570 -1.335588 36,825 330 457 -1856
2022-08-16 13:34:47 GMT 54.531570 -1.335588 36,875 330 458 -1792
2022-08-16 13:34:45 GMT 54.528824 -1.332841 37,000 330 459 -1728
2022-08-16 13:34:42 GMT 54.524826 -1.328780 37,000 330 459 -1728
2022-08-16 13:34:40 GMT 54.519745 -1.323610 37,050 330 460 -1664
2022-08-16 13:34:38 GMT 54.511181 -1.314864 37,125 330 461 -1664
2022-08-16 13:34:35 GMT 54.511181 -1.314864 37,200 330 461 -1600
2022-08-16 13:34:33 GMT 54.506386 -1.310036 37,250 330 463 -1600
2022-08-16 13:34:29 GMT 54.497772 -1.301234 37,575 330 466 -1984
2022-08-16 13:34:26 GMT 54.493164 -1.296553 37,450 330 465 -1792
2022-08-16 13:34:23 GMT 54.489487 -1.292832 37,475 330 465 -1856
2022-08-16 13:34:21 GMT 54.483902 -1.287231 37,600 330 466 -1920
2022-08-16 13:34:18 GMT 54.479107 -1.282404 37,725 330 467 -1856
2022-08-16 13:34:15 GMT 54.469051 -1.272250 37,800 330 468 -1408
2022-08-16 13:34:12 GMT 54.469051 -1.272250 37,800 330 468 -1408
2022-08-16 13:34:09 GMT 54.460903 -1.263927 37,900 330 468 -1024
2022-08-16 13:34:06 GMT 54.452526 -1.255354 37,975 330 469 -256
2022-08-16 13:34:04 GMT 54.452526 -1.255354 37,975 330 469 -384
2022-08-16 13:34:01 GMT 54.447693 -1.250422 37,975 330 469 -192
2022-08-16 13:33:59 GMT 54.444191 -1.246782 38,000 330 468 0
2022-08-16 13:33:56 GMT 54.439163 -1.241705 38,000 330 470 0
2022-08-16 13:33:54 GMT 54.435253 -1.237710 38,000 330 469 64
2022-08-16 13:33:52 GMT 54.431351 -1.233700 38,000 330 469 64
2022-08-16 13:33:49 GMT 54.420547 -1.222633 38,000 330 469 0
2022-08-16 13:33:46 GMT 54.420547 -1.222633 38,000 330 469 0
2022-08-16 13:33:44 GMT 54.417389 -1.219402 38,000 330 469 0
2022-08-16 13:33:42 GMT 54.412537 -1.214474 38,000 330 469 0
2022-08-16 13:33:39 GMT 54.406952 -1.208829 38,000 330 469 0
2022-08-16 13:33:36 GMT 54.401001 -1.202761 38,000 330 469 0
2022-08-16 13:33:34 GMT 54.396698 -1.198398 38,000 330 469 -64
2022-08-16 13:33:31 GMT 54.391663 -1.193309 38,000 330 469 -64
2022-08-16 13:33:28 GMT 54.386093 -1.187605 38,000 330 469 0
2022-08-16 13:33:25 GMT 54.381626 -1.183111 38,000 330 469 -64
2022-08-16 13:33:23 GMT 54.373993 -1.175376 38,000 330 469 64
2022-08-16 13:33:21 GMT 54.368591 -1.169882 38,000 330 469 64
2022-08-16 13:33:19 GMT 54.368591 -1.169882 38,000 330 469 64
2022-08-16 13:33:16 GMT 54.363564 -1.164800 38,000 330 469 0
2022-08-16 13:33:14 GMT 54.360580 -1.161804 38,000 330 468 -64
2022-08-16 13:33:11 GMT 54.347168 -1.148233 38,000 330 468 0
2022-08-16 13:33:08 GMT 54.347168 -1.148233 38,000 330 468 0
2022-08-16 13:33:05 GMT 54.343460 -1.144517 38,000 330 468 0
2022-08-16 13:33:03 GMT 54.333755 -1.134662 38,000 330 468 64
2022-08-16 13:33:00 GMT 54.333755 -1.134662 38,000 330 468 0
2022-08-16 13:32:57 GMT 54.325207 -1.126015 38,000 330 468 0
2022-08-16 13:32:55 GMT 54.320549 -1.121355 38,000 330 468 -64
2022-08-16 13:32:53 GMT 54.320549 -1.121355 38,000 330 468 -64
2022-08-16 13:32:50 GMT 54.315903 -1.116647 38,000 330 468 0
2022-08-16 13:32:47 GMT 54.309193 -1.109869 38,000 330 468 64
2022-08-16 13:32:44 GMT 54.302532 -1.103127 38,000 330 468 64
2022-08-16 13:32:41 GMT 54.298435 -1.098966 38,000 330 468 0
2022-08-16 13:32:38 GMT 54.294525 -1.095054 38,000 330 468 0
2022-08-16 13:32:36 GMT 54.290802 -1.091309 38,000 330 468 0
2022-08-16 13:32:34 GMT 54.286148 -1.086564 38,000 330 468 0
2022-08-16 13:32:31 GMT 54.280376 -1.080738 38,000 330 468 0
2022-08-16 13:32:28 GMT 54.269016 -1.069309 38,000 330 468 0
2022-08-16 13:32:25 GMT 54.265106 -1.065431 38,000 330 468 0
2022-08-16 13:32:23 GMT 54.265106 -1.065431 38,000 330 468 0
2022-08-16 13:32:20 GMT 54.253746 -1.054041 38,000 330 468 0
2022-08-16 13:32:17 GMT 54.253746 -1.054041 38,000 330 468 0
2022-08-16 13:32:14 GMT 54.248348 -1.048629 38,000 330 468 0
2022-08-16 13:32:11 GMT 54.243118 -1.043309 38,000 330 468 64
2022-08-16 13:32:08 GMT 54.236984 -1.037109 38,000 330 468 0
2022-08-16 13:32:05 GMT 54.231075 -1.031099 38,000 330 468 0
2022-08-16 13:32:03 GMT 54.227325 -1.027379 38,000 330 468 0
2022-08-16 13:32:00 GMT 54.218784 -1.018740 38,000 330 468 0
2022-08-16 13:31:58 GMT 54.218784 -1.018740 38,000 330 468 0
2022-08-16 13:31:55 GMT 54.213058 -1.012923 38,000 330 468 0
2022-08-16 13:31:52 GMT 54.208603 -1.008466 38,000 330 468 0
2022-08-16 13:31:50 GMT 54.202820 -1.002664 38,000 330 468 0
2022-08-16 13:31:47 GMT 54.200027 -0.999837 38,000 330 468 0
2022-08-16 13:31:45 GMT 54.194824 -0.994577 38,000 330 468 0
2022-08-16 13:31:43 GMT 54.190201 -0.989868 38,000 330 468 0
2022-08-16 13:31:41 GMT 54.184982 -0.984610 38,000 330 468 0
2022-08-16 13:31:38 GMT 54.176235 -0.975844 38,000 330 468 0
2022-08-16 13:31:35 GMT 54.176235 -0.975844 38,000 330 468 -64
2022-08-16 13:31:33 GMT 54.171432 -0.970956 38,000 330 469 -64
2022-08-16 13:31:30 GMT 54.166763 -0.966248 38,000 330 469 -128
2022-08-16 13:31:27 GMT 54.162506 -0.961950 38,000 330 469 -128
2022-08-16 13:31:25 GMT 54.157654 -0.957066 38,000 330 469 -64
2022-08-16 13:31:23 GMT 54.152206 -0.951573 38,000 330 469 -64
2022-08-16 13:31:20 GMT 54.142731 -0.941999 38,000 330 470 64
2022-08-16 13:31:17 GMT 54.142731 -0.941999 38,000 330 470 64
2022-08-16 13:31:14 GMT 54.137089 -0.936342 38,000 330 471 128
2022-08-16 13:31:11 GMT 54.132980 -0.932190 38,000 330 471 64
2022-08-16 13:31:08 GMT 54.124752 -0.923902 38,000 330 472 64
2022-08-16 13:31:05 GMT 54.120255 -0.919399 38,000 330 472 0
2022-08-16 13:31:03 GMT 54.116512 -0.915581 38,000 330 472 0
2022-08-16 13:31:00 GMT 54.104500 -0.903545 38,000 330 473 0
2022-08-16 13:30:57 GMT 54.104500 -0.903545 38,000 330 473 0
2022-08-16 13:30:54 GMT 54.098263 -0.897325 38,000 330 474 0
2022-08-16 13:30:50 GMT 54.091282 -0.890377 38,000 330 474 -64
2022-08-16 13:30:47 GMT 54.080338 -0.879534 38,000 330 474 -64
2022-08-16 13:30:44 GMT 54.074478 -0.873649 38,000 329 473 -128
2022-08-16 13:30:41 GMT 54.074478 -0.873649 38,025 308 458 0
2022-08-16 13:30:38 GMT 54.065815 -0.864285 38,000 327 471 0
2022-08-16 13:30:36 GMT 54.065815 -0.864285 38,000 325 470 0
2022-08-16 13:30:33 GMT 54.060471 -0.857875 38,000 320 466 -64
2022-08-16 13:30:31 GMT 54.055252 -0.851205 38,000 310 460 0
2022-08-16 13:30:28 GMT 54.051895 -0.846594 38,000 320 466 -64
2022-08-16 13:30:26 GMT 54.048733 -0.842070 38,025 319 466 -64
2022-08-16 13:30:23 GMT 54.044262 -0.835203 38,025 315 463 -64
2022-08-16 13:30:21 GMT 54.036346 -0.822248 38,025 315 463 0
2022-08-16 13:30:18 GMT 54.036346 -0.822248 38,025 313 462 64
2022-08-16 13:30:16 GMT 54.033230 -0.816704 38,025 313 462 0
2022-08-16 13:30:14 GMT 54.030075 -0.810713 38,025 310 460 0
2022-08-16 13:30:11 GMT 54.022102 -0.794247 38,025 307 457 0
2022-08-16 13:30:08 GMT 54.022102 -0.794247 38,025 301 453 64
2022-08-16 13:30:06 GMT 54.019684 -0.788740 38,025 301 453 64
2022-08-16 13:30:03 GMT 54.015774 -0.779302 38,000 303 454 64
2022-08-16 13:30:01 GMT 54.012314 -0.770299 38,000 301 453 64
2022-08-16 13:29:58 GMT 54.010326 -0.764762 38,000 300 453 64
2022-08-16 13:29:56 GMT 54.005016 -0.748524 38,000 298 454 64
2022-08-16 13:29:53 GMT 54.003067 -0.742205 38,000 298 454 0
2022-08-16 13:29:51 GMT 54.000221 -0.733095 38,000 298 454 0
2022-08-16 13:29:48 GMT 53.998222 -0.726471 38,000 298 454 0
2022-08-16 13:29:46 GMT 53.998222 -0.726471 38,000 298 454 0
2022-08-16 13:29:43 GMT 53.995197 -0.716696 38,000 298 454 0
2022-08-16 13:29:38 GMT 53.990402 -0.701267 38,000 298 454 -64
2022-08-16 13:29:36 GMT 53.988281 -0.694336 38,000 298 454 0
2022-08-16 13:29:33 GMT 53.985031 -0.683899 38,000 298 453 0
2022-08-16 13:29:30 GMT 53.982117 -0.674447 38,000 298 453 0
2022-08-16 13:29:27 GMT 53.980453 -0.669146 38,000 298 453 0
2022-08-16 13:29:25 GMT 53.978439 -0.662554 38,000 298 453 0
2022-08-16 13:29:23 GMT 53.975601 -0.653451 38,000 298 453 0
2022-08-16 13:29:20 GMT 53.972664 -0.643993 38,000 298 453 64
2022-08-16 13:29:17 GMT 53.969593 -0.633976 38,000 298 453 64
2022-08-16 13:29:14 GMT 53.967358 -0.626786 38,000 298 453 0
2022-08-16 13:29:12 GMT 53.964703 -0.618304 38,000 298 452 0
2022-08-16 13:29:09 GMT 53.961308 -0.607318 38,000 298 452 0
2022-08-16 13:29:06 GMT 53.959164 -0.600451 38,000 298 452 64
2022-08-16 13:29:04 GMT 53.953716 -0.582922 38,000 298 452 64
2022-08-16 13:29:01 GMT 53.951889 -0.576939 38,000 298 452 -64
2022-08-16 13:28:58 GMT 53.951889 -0.576939 38,000 298 452 -64
2022-08-16 13:28:55 GMT 53.946808 -0.560695 38,000 298 451 0
2022-08-16 13:28:53 GMT 53.946808 -0.560695 38,000 298 452 -64
2022-08-16 13:28:50 GMT 53.943787 -0.550964 38,000 298 450 0
2022-08-16 13:28:47 GMT 53.940948 -0.541940 38,000 298 451 0
2022-08-16 13:28:44 GMT 53.937424 -0.530737 38,000 298 451 -64
2022-08-16 13:28:41 GMT 53.934494 -0.521301 38,000 298 451 0
2022-08-16 13:28:38 GMT 53.928635 -0.502625 38,000 298 451 0
2022-08-16 13:28:35 GMT 53.928635 -0.502625 38,000 298 451 0
2022-08-16 13:28:32 GMT 53.923878 -0.487357 38,000 298 451 0
2022-08-16 13:28:30 GMT 53.920990 -0.477984 38,000 298 451 0
2022-08-16 13:28:27 GMT 53.918564 -0.470215 38,000 298 451 -64
2022-08-16 13:28:24 GMT 53.918564 -0.470215 38,000 298 451 0
2022-08-16 13:28:22 GMT 53.916710 -0.464253 38,000 298 450 0
2022-08-16 13:28:20 GMT 53.911636 -0.448097 38,000 298 450 0
2022-08-16 13:28:17 GMT 53.911636 -0.448097 38,000 298 450 0
2022-08-16 13:28:14 GMT 53.908722 -0.438747 38,000 298 450 0
2022-08-16 13:28:12 GMT 53.906746 -0.432506 38,000 298 450 0
2022-08-16 13:28:10 GMT 53.904327 -0.424779 38,000 298 450 0
2022-08-16 13:28:07 GMT 53.901814 -0.416673 38,000 298 450 0
2022-08-16 13:28:04 GMT 53.899765 -0.410129 38,000 298 450 0
2022-08-16 13:28:02 GMT 53.897156 -0.401728 38,000 298 450 64
2022-08-16 13:27:59 GMT 53.891708 -0.384360 38,000 298 450 0
2022-08-16 13:27:56 GMT 53.891708 -0.384360 38,000 298 450 0
2022-08-16 13:27:53 GMT 53.888313 -0.373535 38,000 298 450 0
2022-08-16 13:27:50 GMT 53.881622 -0.352112 38,000 298 449 0
2022-08-16 13:27:47 GMT 53.881622 -0.352112 38,000 298 450 0
2022-08-16 13:27:44 GMT 53.879467 -0.345262 38,000 298 450 0
2022-08-16 13:27:42 GMT 53.877186 -0.337830 38,000 298 449 -64
2022-08-16 13:27:40 GMT 53.873108 -0.324803 38,000 298 449 0
2022-08-16 13:27:37 GMT 53.873108 -0.324803 38,000 298 449 0
2022-08-16 13:27:34 GMT 53.867477 -0.306754 38,000 298 449 -64
2022-08-16 13:27:31 GMT 53.867477 -0.306754 38,000 298 449 -64
2022-08-16 13:27:29 GMT 53.864571 -0.297519 38,000 299 449 -64
2022-08-16 13:27:26 GMT 53.862709 -0.291622 38,000 299 448 -64
2022-08-16 13:27:23 GMT 53.858891 -0.279586 38,000 299 448 64
2022-08-16 13:27:20 GMT 53.852966 -0.260690 38,000 299 448 64
2022-08-16 13:27:17 GMT 53.850815 -0.253941 38,000 299 448 64
2022-08-16 13:27:14 GMT 53.850815 -0.253941 38,000 299 448 64
2022-08-16 13:27:11 GMT 53.847748 -0.244367 38,000 299 448 64
2022-08-16 13:27:09 GMT 53.844910 -0.235421 38,000 299 447 64
2022-08-16 13:27:06 GMT 53.841713 -0.225220 38,000 299 447 0
2022-08-16 13:27:03 GMT 53.836826 -0.209790 38,000 299 447 64
2022-08-16 13:27:00 GMT 53.836826 -0.209790 38,000 299 446 64
2022-08-16 13:26:57 GMT 53.833420 -0.199009 38,000 299 446 64
2022-08-16 13:26:54 GMT 53.827972 -0.181824 38,000 299 446 64
2022-08-16 13:26:51 GMT 53.825047 -0.172631 38,000 299 446 0
2022-08-16 13:26:46 GMT 53.822113 -0.163382 38,000 299 446 0
2022-08-16 13:26:43 GMT 53.820858 -0.159383 38,000 299 446 0
2022-08-16 13:26:41 GMT 53.818314 -0.151454 38,000 299 446 0
2022-08-16 13:26:39 GMT 53.815411 -0.142257 38,000 299 446 -64
2022-08-16 13:26:36 GMT 53.813271 -0.135471 38,000 299 446 -64
2022-08-16 13:26:34 GMT 53.810715 -0.127520 38,000 299 446 -64
2022-08-16 13:26:31 GMT 53.808380 -0.120203 38,000 299 445 0
2022-08-16 13:26:29 GMT 53.806046 -0.112845 38,000 299 445 -64
2022-08-16 13:26:26 GMT 53.803619 -0.105233 38,000 299 445 -64
2022-08-16 13:26:23 GMT 53.801285 -0.097857 38,000 299 445 -64
2022-08-16 13:26:20 GMT 53.798264 -0.088361 38,000 299 445 0
2022-08-16 13:26:17 GMT 53.795013 -0.078317 38,000 299 445 0
2022-08-16 13:26:14 GMT 53.788788 -0.058777 38,000 299 445 0
2022-08-16 13:26:11 GMT 53.786728 -0.052342 38,000 299 445 0
2022-08-16 13:26:09 GMT 53.786728 -0.052342 38,000 299 445 0
2022-08-16 13:26:06 GMT 53.784222 -0.044430 38,000 299 445 0
2022-08-16 13:26:03 GMT 53.781326 -0.035235 38,000 299 445 0
2022-08-16 13:26:01 GMT 53.779266 -0.028878 38,000 299 445 0
2022-08-16 13:25:59 GMT 53.774025 -0.012360 38,000 299 444 -64
2022-08-16 13:25:56 GMT 53.771484 -0.004473 38,000 299 445 -64
2022-08-16 13:25:53 GMT 53.771484 -0.004473 38,000 299 445 -64
2022-08-16 13:25:51 GMT 53.766815 0.010202 38,000 299 445 0
2022-08-16 13:25:48 GMT 53.766815 0.010202 38,000 299 445 64
2022-08-16 13:25:45 GMT 53.763554 0.020519 38,000 299 445 64
2022-08-16 13:25:43 GMT 53.762054 0.025112 38,000 299 445 64
2022-08-16 13:25:40 GMT 53.757874 0.038210 38,000 299 444 -64
2022-08-16 13:25:37 GMT 53.755646 0.045201 38,000 299 444 -64
2022-08-16 13:25:34 GMT 53.753681 0.051296 38,000 299 444 -64
2022-08-16 13:25:32 GMT 53.751389 0.058620 38,000 299 444 64
2022-08-16 13:25:29 GMT 53.747589 0.070548 38,000 299 444 128
2022-08-16 13:25:26 GMT 53.744385 0.080593 38,000 299 444 128
2022-08-16 13:25:23 GMT 53.741913 0.088205 38,000 299 444 0
2022-08-16 13:25:20 GMT 53.739120 0.096994 38,000 299 444 -64
2022-08-16 13:25:18 GMT 53.736694 0.104606 38,000 299 444 -64
2022-08-16 13:25:15 GMT 53.734829 0.110429 38,000 299 444 0
2022-08-16 13:25:12 GMT 53.728683 0.129574 38,000 299 444 64
2022-08-16 13:25:09 GMT 53.728683 0.129574 38,000 299 444 64
2022-08-16 13:25:06 GMT 53.725754 0.138663 38,000 299 444 64
2022-08-16 13:25:03 GMT 53.723190 0.146589 38,000 299 444 0
2022-08-16 13:25:00 GMT 53.720581 0.154750 38,000 299 444 0
2022-08-16 13:24:58 GMT 53.718025 0.162695 38,000 299 444 0
2022-08-16 13:24:55 GMT 53.715088 0.171858 38,000 299 444 -64
2022-08-16 13:24:52 GMT 53.711655 0.182452 38,000 299 444 0
2022-08-16 13:24:49 GMT 53.705502 0.201631 38,000 299 444 -64
2022-08-16 13:24:46 GMT 53.705502 0.201631 38,000 299 444 -64
2022-08-16 13:24:43 GMT 53.703369 0.208269 38,000 299 444 -64
2022-08-16 13:24:41 GMT 53.701309 0.214704 38,000 299 444 -64
2022-08-16 13:24:38 GMT 53.698288 0.224121 38,000 299 444 -64
2022-08-16 13:24:35 GMT 53.695450 0.232910 38,000 299 443 0
2022-08-16 13:24:32 GMT 53.691536 0.245011 38,000 299 444 0
2022-08-16 13:24:29 GMT 53.689487 0.251393 38,000 299 443 0
2022-08-16 13:24:26 GMT 53.686340 0.261161 38,000 299 443 0
2022-08-16 13:24:23 GMT 53.683388 0.270215 38,000 299 443 0
2022-08-16 13:24:21 GMT 53.681667 0.275708 38,000 299 443 0
2022-08-16 13:24:18 GMT 53.678825 0.284514 38,000 299 445 0
2022-08-16 13:24:15 GMT 53.676636 0.291138 38,000 299 444 64
2022-08-16 13:24:13 GMT 53.673706 0.300266 38,000 299 444 64
2022-08-16 13:24:10 GMT 53.671005 0.308794 38,000 299 444 64
2022-08-16 13:24:08 GMT 53.668819 0.315453 38,000 299 444 0
2022-08-16 13:24:05 GMT 53.665886 0.324581 38,000 299 445 0
2022-08-16 13:24:02 GMT 53.663956 0.330610 38,000 299 444 0
2022-08-16 13:24:00 GMT 53.661072 0.339399 38,000 299 444 0
2022-08-16 13:23:57 GMT 53.657784 0.349785 38,000 299 444 0
2022-08-16 13:23:54 GMT 53.655396 0.357056 38,000 299 445 0
2022-08-16 13:23:51 GMT 53.648941 0.377145 38,000 299 445 0
2022-08-16 13:23:48 GMT 53.648941 0.377145 38,000 299 445 0
2022-08-16 13:23:45 GMT 53.644180 0.391976 38,000 299 445 0
2022-08-16 13:23:42 GMT 53.644180 0.391976 38,000 299 445 64
2022-08-16 13:23:40 GMT 53.641342 0.400844 38,000 299 445 0
2022-08-16 13:23:37 GMT 53.635532 0.418692 38,000 299 445 0
2022-08-16 13:23:34 GMT 53.635532 0.418692 38,000 299 445 0
2022-08-16 13:23:31 GMT 53.629303 0.437884 38,000 299 445 0
2022-08-16 13:23:28 GMT 53.629303 0.437884 38,000 299 445 0
2022-08-16 13:23:25 GMT 53.626129 0.447531 38,000 299 445 0
2022-08-16 13:23:22 GMT 53.624172 0.453671 38,000 299 445 0
2022-08-16 13:23:20 GMT 53.619240 0.468858 38,000 299 445 0
2022-08-16 13:23:17 GMT 53.619240 0.468858 38,000 299 445 -64
2022-08-16 13:23:14 GMT 53.615295 0.480966 38,000 299 445 -64
2022-08-16 13:23:11 GMT 53.612350 0.490103 38,000 299 445 -64
2022-08-16 13:23:08 GMT 53.610394 0.496162 38,000 299 445 0
2022-08-16 13:23:06 GMT 53.608299 0.502544 38,000 299 445 0
2022-08-16 13:23:03 GMT 53.604485 0.514338 38,000 299 446 0
2022-08-16 13:23:00 GMT 53.601929 0.522243 38,000 299 445 0
2022-08-16 13:22:57 GMT 53.598942 0.531383 38,000 299 445 0
2022-08-16 13:22:54 GMT 53.596478 0.538976 38,000 299 446 0
2022-08-16 13:22:51 GMT 53.593918 0.546805 38,000 299 445 0
2022-08-16 13:22:49 GMT 53.591961 0.552871 38,000 299 446 0
2022-08-16 13:22:47 GMT 53.585953 0.571446 38,000 299 446 0
2022-08-16 13:22:44 GMT 53.585953 0.571446 38,000 299 446 0
2022-08-16 13:22:41 GMT 53.580643 0.587847 38,000 299 446 64
2022-08-16 13:22:38 GMT 53.580643 0.587847 38,000 299 446 0
2022-08-16 13:22:35 GMT 53.577484 0.597543 38,000 299 446 -64
2022-08-16 13:22:32 GMT 53.574921 0.605460 38,000 299 446 -64
2022-08-16 13:22:29 GMT 53.571945 0.614528 38,000 299 446 -64
2022-08-16 13:22:26 GMT 53.568359 0.625413 37,800 299 445 0
2022-08-16 13:22:23 GMT 53.565517 0.634218 38,000 299 445 0
2022-08-16 13:22:20 GMT 53.562820 0.642458 38,000 299 446 64
2022-08-16 13:22:17 GMT 53.556656 0.661534 38,000 299 447 0
2022-08-16 13:22:14 GMT 53.556656 0.661534 38,000 299 446 64
2022-08-16 13:22:11 GMT 53.550621 0.680102 38,000 299 446 64
2022-08-16 13:22:08 GMT 53.550621 0.680102 38,000 299 446 0
2022-08-16 13:22:06 GMT 53.549332 0.684056 38,000 299 446 0
2022-08-16 13:22:03 GMT 53.545395 0.696141 38,000 299 446 0
2022-08-16 13:22:00 GMT 53.542988 0.703448 38,000 299 446 0
2022-08-16 13:21:57 GMT 53.536423 0.723450 38,000 300 447 0
2022-08-16 13:21:54 GMT 53.536423 0.723450 38,000 300 447 0
2022-08-16 13:21:51 GMT 53.534424 0.729541 38,000 300 447 0
2022-08-16 13:21:49 GMT 53.531536 0.738265 38,000 300 447 0
2022-08-16 13:21:46 GMT 53.526031 0.754918 38,000 300 447 0
2022-08-16 13:21:43 GMT 53.526031 0.754918 38,000 299 446 0
2022-08-16 13:21:40 GMT 53.522831 0.764600 38,000 299 446 -64
2022-08-16 13:21:37 GMT 53.516922 0.782540 38,000 300 447 -64
2022-08-16 13:21:34 GMT 53.513626 0.792507 38,000 300 447 -64
2022-08-16 13:21:31 GMT 53.513626 0.792507 38,000 299 448 64
2022-08-16 13:21:28 GMT 53.511612 0.798528 38,000 299 448 64
2022-08-16 13:21:26 GMT 53.508911 0.806710 38,000 299 448 64
2022-08-16 13:21:23 GMT 53.505932 0.815816 38,000 299 448 64
2022-08-16 13:21:20 GMT 53.501926 0.827933 38,000 299 448 0
2022-08-16 13:21:17 GMT 53.499928 0.833992 38,000 299 448 0
2022-08-16 13:21:14 GMT 53.497040 0.842797 38,000 299 448 0
2022-08-16 13:21:11 GMT 53.491104 0.860700 38,000 299 447 -64
2022-08-16 13:21:09 GMT 53.489124 0.866789 38,000 299 448 0
2022-08-16 13:21:06 GMT 53.489124 0.866789 38,000 299 447 0
2022-08-16 13:21:03 GMT 53.485214 0.878583 38,000 299 447 0
2022-08-16 13:21:00 GMT 53.483917 0.882516 38,000 299 447 0
2022-08-16 13:20:58 GMT 53.481445 0.890128 38,000 299 448 64
2022-08-16 13:20:56 GMT 53.478928 0.897740 38,000 299 448 64
2022-08-16 13:20:53 GMT 53.475449 0.908334 38,000 300 449 0
2022-08-16 13:20:50 GMT 53.473530 0.914127 38,000 300 449 -64
2022-08-16 13:20:48 GMT 53.468445 0.929600 38,000 300 449 -64
2022-08-16 13:20:45 GMT 53.464508 0.941450 38,000 300 449 -64
2022-08-16 13:20:42 GMT 53.464508 0.941450 38,000 300 449 -128
2022-08-16 13:20:39 GMT 53.461990 0.948983 38,000 300 449 -64
2022-08-16 13:20:36 GMT 53.455490 0.968366 38,000 300 449 64
2022-08-16 13:20:33 GMT 53.455490 0.968366 38,000 300 449 64
2022-08-16 13:20:30 GMT 53.453094 0.975683 38,000 300 449 -64
2022-08-16 13:20:28 GMT 53.448624 0.989005 38,000 300 449 -64
2022-08-16 13:20:26 GMT 53.448624 0.989005 38,000 300 449 -64
2022-08-16 13:20:23 GMT 53.445366 0.998706 38,000 300 448 0
2022-08-16 13:20:20 GMT 53.442352 1.007760 38,000 300 448 -64
2022-08-16 13:20:17 GMT 53.439735 1.015670 38,000 300 449 0
2022-08-16 13:20:15 GMT 53.434566 1.031099 38,000 300 448 -64
2022-08-16 13:20:12 GMT 53.434566 1.031099 38,000 300 448 -64
2022-08-16 13:20:09 GMT 53.430450 1.043544 38,000 300 449 0
2022-08-16 13:20:06 GMT 53.428436 1.049587 38,000 300 448 0
2022-08-16 13:20:02 GMT 53.424225 1.062299 38,000 300 448 0
2022-08-16 13:20:00 GMT 53.422440 1.067793 38,000 300 448 0
2022-08-16 13:19:57 GMT 53.419510 1.076582 38,000 300 448 0
2022-08-16 13:19:54 GMT 53.416397 1.085920 38,000 300 449 0
2022-08-16 13:19:52 GMT 53.414364 1.092009 38,000 300 449 0
2022-08-16 13:19:49 GMT 53.411545 1.100438 38,000 300 449 0
2022-08-16 13:19:46 GMT 53.408203 1.110482 38,000 300 449 64
2022-08-16 13:19:43 GMT 53.402344 1.127982 38,000 300 448 0
2022-08-16 13:19:40 GMT 53.402344 1.127982 38,000 300 448 0
2022-08-16 13:19:38 GMT 53.399414 1.136771 38,000 300 448 0
2022-08-16 13:19:35 GMT 53.397884 1.141286 38,000 300 449 0
2022-08-16 13:19:32 GMT 53.394253 1.152191 38,000 300 449 64
2022-08-16 13:19:29 GMT 53.387688 1.171821 38,000 300 449 64
2022-08-16 13:19:25 GMT 53.384663 1.180869 38,000 300 449 64
2022-08-16 13:19:22 GMT 53.384663 1.180869 38,000 300 449 64
2022-08-16 13:19:20 GMT 53.379089 1.197510 38,000 300 449 64
2022-08-16 13:19:17 GMT 53.379089 1.197510 38,000 300 449 0
2022-08-16 13:19:14 GMT 53.375977 1.206848 38,000 300 449 -64
2022-08-16 13:19:11 GMT 53.373119 1.215363 38,000 300 450 -64
2022-08-16 13:19:08 GMT 53.370186 1.224087 38,000 300 449 0
2022-08-16 13:19:04 GMT 53.365494 1.238002 38,000 300 449 0
2022-08-16 13:19:01 GMT 53.359478 1.255834 38,000 300 449 0
2022-08-16 13:18:58 GMT 53.359478 1.255834 38,000 300 449 0
2022-08-16 13:18:55 GMT 53.357105 1.262781 38,000 300 450 -64
2022-08-16 13:18:52 GMT 53.353752 1.272718 38,000 300 450 -64
2022-08-16 13:18:49 GMT 53.351097 1.280553 38,000 300 450 -64
2022-08-16 13:18:47 GMT 53.344769 1.299295 38,000 300 449 -64
2022-08-16 13:18:44 GMT 53.344769 1.299295 38,000 300 450 64
2022-08-16 13:18:41 GMT 53.342331 1.306510 38,000 300 450 64
2022-08-16 13:18:38 GMT 53.336529 1.323691 38,000 300 449 0
2022-08-16 13:18:35 GMT 53.336529 1.323691 38,000 300 450 0
2022-08-16 13:18:32 GMT 53.333363 1.333062 38,000 300 450 0
2022-08-16 13:18:29 GMT 53.330292 1.342137 38,000 300 450 0
2022-08-16 13:18:26 GMT 53.326950 1.352103 38,000 300 450 0
2022-08-16 13:18:23 GMT 53.323681 1.361739 38,000 300 450 -64
2022-08-16 13:18:20 GMT 53.321117 1.369333 38,000 300 450 -64
2022-08-16 13:18:17 GMT 53.318001 1.378703 38,000 300 450 -64
2022-08-16 13:18:14 GMT 53.310829 1.399787 38,000 300 449 -64
2022-08-16 13:18:11 GMT 53.310829 1.399787 38,000 300 449 -64
2022-08-16 13:18:08 GMT 53.309296 1.404311 38,000 300 449 -64
2022-08-16 13:18:05 GMT 53.306129 1.413682 38,000 300 449 0
2022-08-16 13:18:02 GMT 53.302963 1.422972 38,000 300 449 0
2022-08-16 13:17:59 GMT 53.299255 1.433873 38,000 300 449 0
2022-08-16 13:17:57 GMT 53.297653 1.438660 38,000 300 449 0
2022-08-16 13:17:54 GMT 53.294586 1.447691 38,000 300 449 0
2022-08-16 13:17:51 GMT 53.290813 1.458839 38,000 300 449 0
2022-08-16 13:17:48 GMT 53.289368 1.463065 38,000 300 449 0
2022-08-16 13:17:46 GMT 53.286850 1.470598 38,000 300 449 0
2022-08-16 13:17:44 GMT 53.284103 1.478760 38,000 300 449 0
2022-08-16 13:17:40 GMT 53.280304 1.489825 38,000 300 449 0
2022-08-16 13:17:37 GMT 53.277779 1.497372 38,025 300 448 -64
2022-08-16 13:17:34 GMT 53.274845 1.506096 38,000 300 448 -64
2022-08-16 13:17:31 GMT 53.271057 1.517212 38,000 300 448 -64
2022-08-16 13:17:28 GMT 53.268703 1.524111 38,000 300 448 -64
2022-08-16 13:17:26 GMT 53.263138 1.540597 38,000 300 448 -64
2022-08-16 13:17:23 GMT 53.263138 1.540597 38,000 300 447 -64
2022-08-16 13:17:20 GMT 53.256409 1.560451 38,025 300 447 0
2022-08-16 13:17:17 GMT 53.256409 1.560451 38,000 300 447 0
2022-08-16 13:17:14 GMT 53.253338 1.569429 38,000 300 446 0
2022-08-16 13:17:11 GMT 53.247940 1.585249 38,000 300 446 0
2022-08-16 13:17:08 GMT 53.247940 1.585249 38,000 300 446 0
2022-08-16 13:17:06 GMT 53.245193 1.593341 38,000 300 446 0
2022-08-16 13:17:03 GMT 53.243099 1.599642 38,000 300 446 0
2022-08-16 13:17:00 GMT 53.239426 1.610439 38,000 300 446 0
2022-08-16 13:16:57 GMT 53.235855 1.620876 38,000 300 446 0
2022-08-16 13:16:54 GMT 53.232925 1.629586 38,000 300 446 0
2022-08-16 13:16:51 GMT 53.230911 1.635550 38,000 300 446 64
2022-08-16 13:16:48 GMT 53.227131 1.646657 38,000 300 446 64
2022-08-16 13:16:45 GMT 53.224091 1.655640 38,000 300 446 64
2022-08-16 13:16:43 GMT 53.223171 1.658289 38,000 300 446 64
2022-08-16 13:16:40 GMT 53.219330 1.669686 38,000 300 446 0
2022-08-16 13:16:38 GMT 53.217224 1.675964 38,000 300 446 64
2022-08-16 13:16:36 GMT 53.214478 1.684047 38,000 300 444 0
2022-08-16 13:16:33 GMT 53.211548 1.692679 38,000 300 446 0
2022-08-16 13:16:30 GMT 53.206879 1.706491 38,000 300 446 0
2022-08-16 13:16:27 GMT 53.206879 1.706491 38,000 300 446 -64
2022-08-16 13:16:25 GMT 53.203854 1.715402 38,000 300 447 -64
2022-08-16 13:16:22 GMT 53.201340 1.722915 38,000 300 447 -64
2022-08-16 13:16:19 GMT 53.198273 1.731838 38,000 300 446 0
2022-08-16 13:16:16 GMT 53.191315 1.752162 38,000 300 446 64
2022-08-16 13:16:12 GMT 53.191315 1.752162 38,000 300 446 0
2022-08-16 13:16:09 GMT 53.186234 1.767072 38,000 300 446 0
2022-08-16 13:16:07 GMT 53.184303 1.772676 38,000 300 446 0
2022-08-16 13:16:02 GMT 53.181137 1.781966 38,000 300 446 0
2022-08-16 13:15:59 GMT 53.174881 1.800110 38,000 300 446 0
2022-08-16 13:15:56 GMT 53.174881 1.800110 38,000 300 445 0
2022-08-16 13:15:53 GMT 53.171825 1.809028 38,000 300 444 0
2022-08-16 13:15:50 GMT 53.168148 1.819691 38,000 300 445 0
2022-08-16 13:15:48 GMT 53.167236 1.822396 38,000 300 445 0
2022-08-16 13:15:46 GMT 53.164673 1.829851 38,000 300 445 0
2022-08-16 13:15:43 GMT 53.161213 1.839887 38,000 300 445 0
2022-08-16 13:15:40 GMT 53.158173 1.848842 38,000 300 445 0
2022-08-16 13:15:37 GMT 53.155380 1.856846 38,000 300 445 0
2022-08-16 13:15:35 GMT 53.153549 1.862183 38,000 300 444 0
2022-08-16 13:15:32 GMT 53.150505 1.871069 38,000 300 444 64
2022-08-16 13:15:29 GMT 53.144073 1.889727 38,000 300 444 0
2022-08-16 13:15:26 GMT 53.144073 1.889727 38,000 300 444 0
2022-08-16 13:15:23 GMT 53.140591 1.899827 38,000 300 444 0
2022-08-16 13:15:20 GMT 53.137657 1.908390 38,000 300 444 0
2022-08-16 13:15:17 GMT 53.134678 1.917033 38,000 300 444 0
2022-08-16 13:15:14 GMT 53.131744 1.925596 38,000 300 444 0
2022-08-16 13:15:11 GMT 53.128647 1.934457 38,000 300 444 -64
2022-08-16 13:15:08 GMT 53.124664 1.945993 38,000 300 444 -64
2022-08-16 13:15:05 GMT 53.122620 1.951931 38,000 300 444 0
2022-08-16 13:15:02 GMT 53.116379 1.969927 38,000 300 443 64
2022-08-16 13:14:59 GMT 53.116379 1.969927 38,000 300 443 64
2022-08-16 13:14:56 GMT 53.114136 1.976440 38,000 300 443 64
2022-08-16 13:14:54 GMT 53.111076 1.985294 38,000 300 443 64
2022-08-16 13:14:50 GMT 53.107491 1.995634 38,000 300 443 0
2022-08-16 13:14:48 GMT 53.105850 2.000375 38,000 300 444 0
2022-08-16 13:14:46 GMT 53.103626 2.006863 38,000 300 444 64
2022-08-16 13:14:44 GMT 53.097931 2.023368 38,000 300 444 64
2022-08-16 13:14:41 GMT 53.095901 2.029320 38,000 300 444 0
2022-08-16 13:14:39 GMT 53.093033 2.037582 38,000 300 444 0
2022-08-16 13:14:36 GMT 53.093033 2.037582 38,000 300 444 0
2022-08-16 13:14:33 GMT 53.089989 2.046439 38,000 300 444 0
2022-08-16 13:14:30 GMT 53.086899 2.055283 38,000 300 444 0
2022-08-16 13:14:27 GMT 53.084030 2.063625 38,000 300 444 0
2022-08-16 13:14:24 GMT 53.081001 2.072492 38,000 300 445 64
2022-08-16 13:14:22 GMT 53.078026 2.081046 37,975 300 445 0
2022-08-16 13:14:19 GMT 53.075043 2.089600 37,975 300 445 0
2022-08-16 13:14:16 GMT 53.072716 2.096427 38,000 301 444 -64
2022-08-16 13:14:14 GMT 53.067490 2.111511 38,000 301 444 -64
2022-08-16 13:14:11 GMT 53.067490 2.111511 38,000 301 445 -64
2022-08-16 13:14:08 GMT 53.064926 2.118835 38,000 301 444 -64
2022-08-16 13:14:06 GMT 53.059029 2.135664 38,000 301 445 0
2022-08-16 13:14:03 GMT 53.059029 2.135664 38,000 301 445 0
2022-08-16 13:14:01 GMT 53.056046 2.144241 38,000 301 445 0
2022-08-16 13:13:58 GMT 53.053585 2.151280 38,000 301 445 0
2022-08-16 13:13:55 GMT 53.051208 2.158107 38,000 301 444 0
2022-08-16 13:13:52 GMT 53.046974 2.170192 38,000 301 445 64
2022-08-16 13:13:49 GMT 53.044785 2.176392 38,000 301 445 64
2022-08-16 13:13:46 GMT 53.041386 2.186122 38,000 301 445 64
2022-08-16 13:13:43 GMT 53.038780 2.193499 38,000 301 445 0
2022-08-16 13:13:40 GMT 53.035194 2.203779 38,000 301 445 -64
2022-08-16 13:13:37 GMT 53.032215 2.212333 38,000 301 445 -64
2022-08-16 13:13:35 GMT 53.028214 2.223868 38,000 301 445 0
2022-08-16 13:13:33 GMT 53.028214 2.223868 38,000 301 445 0
2022-08-16 13:13:29 GMT 53.023045 2.238621 38,000 301 445 0
2022-08-16 13:13:26 GMT 53.021301 2.243576 38,000 301 445 0
2022-08-16 13:13:23 GMT 53.016769 2.256546 38,000 301 445 0
2022-08-16 13:13:20 GMT 53.015076 2.261276 38,000 301 445 0
2022-08-16 13:13:17 GMT 53.011593 2.271345 38,000 301 446 0
2022-08-16 13:13:14 GMT 53.008476 2.280134 38,000 301 445 0
2022-08-16 13:13:11 GMT 53.005875 2.287521 38,000 301 446 0
2022-08-16 13:13:08 GMT 53.003311 2.294922 38,000 301 446 0
2022-08-16 13:13:05 GMT 52.997395 2.311680 38,000 301 446 0
2022-08-16 13:13:03 GMT 52.997395 2.311680 38,000 301 446 0
2022-08-16 13:13:01 GMT 52.995850 2.316132 38,000 301 446 64
2022-08-16 13:12:58 GMT 52.992741 2.325021 38,000 301 446 64
2022-08-16 13:12:55 GMT 52.989258 2.335052 38,000 301 446 64
2022-08-16 13:12:53 GMT 52.987701 2.339478 38,000 301 446 64
2022-08-16 13:12:51 GMT 52.985550 2.345657 38,000 301 446 64
2022-08-16 13:12:48 GMT 52.981800 2.356253 38,000 301 446 0
2022-08-16 13:12:45 GMT 52.978683 2.365112 38,000 301 446 -64
2022-08-16 13:12:43 GMT 52.976215 2.372184 38,000 301 446 -64
2022-08-16 13:12:40 GMT 52.973747 2.379246 38,000 301 446 -64
2022-08-16 13:12:37 GMT 52.970303 2.388977 38,000 301 446 0
2022-08-16 13:12:35 GMT 52.968346 2.394627 38,000 301 446 0
2022-08-16 13:12:33 GMT 52.966160 2.400827 38,000 301 446 64
2022-08-16 13:12:31 GMT 52.964172 2.406387 38,000 301 446 -64
2022-08-16 13:12:28 GMT 52.960556 2.416687 38,000 301 446 64
2022-08-16 13:12:25 GMT 52.957947 2.424088 38,000 301 446 64
2022-08-16 13:12:22 GMT 52.954742 2.433243 38,000 301 446 0
2022-08-16 13:12:19 GMT 52.950611 2.445007 38,000 301 447 0
2022-08-16 13:12:16 GMT 52.948654 2.450657 38,000 301 447 0
2022-08-16 13:12:14 GMT 52.944000 2.463920 38,000 301 446 0
2022-08-16 13:12:11 GMT 52.944000 2.463920 38,000 301 446 0
2022-08-16 13:12:08 GMT 52.940136 2.474827 38,000 301 446 -64
2022-08-16 13:12:05 GMT 52.937027 2.483673 38,000 301 446 0
2022-08-16 13:12:02 GMT 52.931625 2.499008 38,000 301 446 0
2022-08-16 13:11:59 GMT 52.927662 2.510219 38,000 301 447 -64
2022-08-16 13:11:55 GMT 52.924576 2.519073 38,000 301 447 0
2022-08-16 13:11:53 GMT 52.924576 2.519073 38,000 301 447 0
2022-08-16 13:11:50 GMT 52.921326 2.528152 38,000 301 447 0
2022-08-16 13:11:47 GMT 52.919128 2.534332 38,000 301 447 0
2022-08-16 13:11:44 GMT 52.915184 2.545532 38,000 301 447 0
2022-08-16 13:11:41 GMT 52.911621 2.555618 38,000 301 447 0
2022-08-16 13:11:38 GMT 52.909332 2.562103 38,000 301 447 64
2022-08-16 13:11:35 GMT 52.902660 2.580924 38,000 301 447 0
2022-08-16 13:11:32 GMT 52.900497 2.587128 38,000 301 447 64
2022-08-16 13:11:30 GMT 52.900497 2.587128 38,000 301 447 0
2022-08-16 13:11:27 GMT 52.898300 2.593307 38,000 301 447 0
2022-08-16 13:11:24 GMT 52.894749 2.603367 38,000 301 447 0
2022-08-16 13:11:22 GMT 52.892029 2.611008 38,000 301 448 -64
2022-08-16 13:11:18 GMT 52.888275 2.621573 38,000 301 448 -64
2022-08-16 13:11:14 GMT 52.884064 2.633362 38,000 301 448 -64
2022-08-16 13:11:11 GMT 52.881042 2.641907 38,000 301 447 0
2022-08-16 13:11:08 GMT 52.877609 2.651672 38,000 301 448 0
2022-08-16 13:11:05 GMT 52.874916 2.659319 38,000 301 447 64
2022-08-16 13:11:03 GMT 52.871796 2.668187 38,000 301 448 64
2022-08-16 13:11:00 GMT 52.869564 2.674386 38,000 301 448 64
2022-08-16 13:10:57 GMT 52.865837 2.684980 38,000 301 447 0
2022-08-16 13:10:54 GMT 52.862488 2.694397 38,000 301 447 0
2022-08-16 13:10:51 GMT 52.859276 2.703500 38,000 301 447 -64
2022-08-16 13:10:48 GMT 52.857376 2.708817 38,000 301 447 -64
2022-08-16 13:10:45 GMT 52.854126 2.717972 38,000 301 447 -64
2022-08-16 13:10:43 GMT 52.851334 2.725906 38,000 301 447 -64
2022-08-16 13:10:40 GMT 52.845680 2.741795 38,000 301 447 -64
2022-08-16 13:10:37 GMT 52.845680 2.741795 38,000 301 447 0
2022-08-16 13:10:34 GMT 52.839157 2.760010 38,000 301 448 0
2022-08-16 13:10:31 GMT 52.839157 2.760010 38,000 301 447 0
2022-08-16 13:10:27 GMT 52.835175 2.771225 38,000 301 447 0
2022-08-16 13:10:24 GMT 52.831390 2.781738 38,000 301 447 0
2022-08-16 13:10:22 GMT 52.829388 2.787310 38,000 301 447 0
2022-08-16 13:10:20 GMT 52.826660 2.794952 38,000 301 447 0
2022-08-16 13:10:17 GMT 52.824455 2.801121 38,000 301 447 0
2022-08-16 13:10:13 GMT 52.819565 2.814619 38,000 301 447 0
2022-08-16 13:10:10 GMT 52.816727 2.822495 38,000 301 447 0
2022-08-16 13:10:07 GMT 52.813705 2.831039 38,000 301 447 64
2022-08-16 13:10:04 GMT 52.811462 2.837219 38,000 301 447 64
2022-08-16 13:10:01 GMT 52.807461 2.848284 38,000 301 447 64
2022-08-16 13:09:58 GMT 52.804733 2.855911 38,000 301 447 0
2022-08-16 13:09:55 GMT 52.800713 2.867039 38,000 301 447 -64
2022-08-16 13:09:53 GMT 52.798710 2.872611 38,000 301 447 -64
2022-08-16 13:09:50 GMT 52.796520 2.878810 38,000 301 447 -64
2022-08-16 13:09:47 GMT 52.792847 2.889012 38,000 301 447 -64
2022-08-16 13:09:44 GMT 52.789673 2.897797 38,000 301 447 0
2022-08-16 13:09:41 GMT 52.785908 2.908395 38,000 301 447 0
2022-08-16 13:09:38 GMT 52.782120 2.918930 38,000 301 446 0
2022-08-16 13:09:35 GMT 52.779903 2.925031 38,000 301 446 0
2022-08-16 13:09:32 GMT 52.777084 2.932968 38,000 301 446 0
2022-08-16 13:09:29 GMT 52.773697 2.942276 38,000 301 446 0
2022-08-16 13:09:26 GMT 52.770546 2.951085 38,000 301 446 64
2022-08-16 13:09:23 GMT 52.768356 2.957206 38,000 301 446 64
2022-08-16 13:09:21 GMT 52.763378 2.970939 38,000 301 446 64
2022-08-16 13:09:16 GMT 52.759281 2.982317 38,000 301 446 -64
2022-08-16 13:09:12 GMT 52.755707 2.992249 38,000 301 446 -64
2022-08-16 13:09:10 GMT 52.754021 2.996913 38,000 301 446 0
2022-08-16 13:09:06 GMT 52.749737 3.008920 38,000 301 446 0
2022-08-16 13:09:03 GMT 52.746964 3.016510 38,000 301 446 0
2022-08-16 13:09:00 GMT 52.743530 3.026199 38,000 301 446 0
2022-08-16 13:08:58 GMT 52.741497 3.031677 38,000 301 446 0
2022-08-16 13:08:55 GMT 52.738472 3.040152 38,000 301 446 0
2022-08-16 13:08:52 GMT 52.734375 3.051531 38,000 301 446 0
2022-08-16 13:08:47 GMT 52.729523 3.064957 38,000 301 446 0
2022-08-16 13:08:43 GMT 52.725632 3.075790 38,000 301 446 0
2022-08-16 13:08:40 GMT 52.721970 3.086014 38,000 301 446 0
2022-08-16 13:08:38 GMT 52.719772 3.092117 38,000 301 446 0
2022-08-16 13:08:35 GMT 52.717754 3.097674 38,000 301 445 0
2022-08-16 13:08:32 GMT 52.713135 3.110504 38,000 301 446 -64
2022-08-16 13:08:29 GMT 52.710632 3.117449 38,000 301 446 -64
2022-08-16 13:08:26 GMT 52.703979 3.135834 38,000 301 446 0
2022-08-16 13:08:23 GMT 52.703979 3.135834 38,000 301 446 0
2022-08-16 13:08:20 GMT 52.700905 3.144209 38,000 301 446 -64
2022-08-16 13:08:18 GMT 52.700157 3.146249 38,000 301 446 0
2022-08-16 13:08:16 GMT 52.696667 3.155901 38,000 301 446 0
2022-08-16 13:08:13 GMT 52.691620 3.169861 38,000 301 445 0
2022-08-16 13:08:11 GMT 52.691620 3.169861 38,000 301 446 0
2022-08-16 13:08:09 GMT 52.686035 3.185196 38,000 301 445 64
2022-08-16 13:08:06 GMT 52.686035 3.185196 38,000 301 446 64
2022-08-16 13:08:03 GMT 52.683380 3.192444 38,000 301 445 64
2022-08-16 13:08:01 GMT 52.681503 3.197708 38,000 301 445 0
2022-08-16 13:07:59 GMT 52.679260 3.203812 38,000 301 445 0
2022-08-16 13:07:56 GMT 52.675903 3.213109 38,000 302 443 0
2022-08-16 13:07:53 GMT 52.672073 3.223572 38,000 301 445 -64
2022-08-16 13:07:50 GMT 52.669968 3.229370 38,000 301 445 -64
2022-08-16 13:07:48 GMT 52.667435 3.236337 38,000 301 444 0
2022-08-16 13:07:45 GMT 52.663879 3.246155 38,000 301 444 0
2022-08-16 13:07:42 GMT 52.661522 3.252581 38,000 301 444 0
2022-08-16 13:07:39 GMT 52.654400 3.272278 38,000 301 444 0
2022-08-16 13:07:36 GMT 52.654400 3.272278 38,000 301 444 0
2022-08-16 13:07:33 GMT 52.651325 3.280675 38,000 301 444 0
2022-08-16 13:07:31 GMT 52.650303 3.283578 38,000 301 444 0
2022-08-16 13:07:29 GMT 52.644287 3.300171 38,000 301 444 0
2022-08-16 13:07:26 GMT 52.640617 3.310259 38,000 301 444 0
2022-08-16 13:07:23 GMT 52.640617 3.310259 38,000 301 444 0
2022-08-16 13:07:21 GMT 52.635124 3.325326 38,000 301 444 0
2022-08-16 13:07:18 GMT 52.635124 3.325326 38,000 301 444 0
2022-08-16 13:07:15 GMT 52.633030 3.331133 38,000 301 444 0
2022-08-16 13:07:12 GMT 52.629772 3.340079 38,000 301 444 0
2022-08-16 13:07:09 GMT 52.626514 3.349104 38,000 301 444 0
2022-08-16 13:07:06 GMT 52.622417 3.360325 38,000 301 444 0
2022-08-16 13:07:02 GMT 52.619160 3.369350 38,000 301 444 64
2022-08-16 13:07:00 GMT 52.617142 3.374786 38,000 301 444 0
2022-08-16 13:06:58 GMT 52.612015 3.388977 38,000 301 444 0
2022-08-16 13:06:55 GMT 52.612015 3.388977 38,000 301 444 0
2022-08-16 13:06:52 GMT 52.607895 3.400269 38,000 301 444 0
2022-08-16 13:06:49 GMT 52.604542 3.409450 38,000 301 444 0
2022-08-16 13:06:46 GMT 52.599281 3.423889 38,000 302 444 0
2022-08-16 13:06:43 GMT 52.599281 3.423889 38,000 302 444 0
2022-08-16 13:06:40 GMT 52.596024 3.432835 38,000 302 444 0
2022-08-16 13:06:37 GMT 52.592194 3.443222 38,000 302 444 0
2022-08-16 13:06:34 GMT 52.589550 3.450492 38,000 302 444 0
2022-08-16 13:06:31 GMT 52.585922 3.460236 38,000 302 444 0
2022-08-16 13:06:28 GMT 52.579010 3.478928 38,000 302 444 0
2022-08-16 13:06:25 GMT 52.579010 3.478928 38,000 302 443 0
2022-08-16 13:06:22 GMT 52.576721 3.485260 38,000 302 443 0
2022-08-16 13:06:19 GMT 52.573116 3.495065 38,000 302 443 0
2022-08-16 13:06:16 GMT 52.570465 3.502284 38,000 302 442 0
2022-08-16 13:06:13 GMT 52.566738 3.512329 38,000 302 442 -64
2022-08-16 13:06:10 GMT 52.563248 3.521824 38,000 302 442 0
2022-08-16 13:06:06 GMT 52.560287 3.529892 38,000 302 442 0
2022-08-16 13:06:03 GMT 52.556808 3.539352 38,000 302 443 0
2022-08-16 13:06:00 GMT 52.550632 3.555961 38,000 302 442 0
2022-08-16 13:05:57 GMT 52.550632 3.555961 38,000 302 442 0
2022-08-16 13:05:54 GMT 52.547058 3.565674 38,000 302 441 0
2022-08-16 13:05:50 GMT 52.540054 3.584595 38,000 302 441 0
2022-08-16 13:05:47 GMT 52.540054 3.584595 38,000 302 441 0
2022-08-16 13:05:44 GMT 52.536247 3.594884 38,000 302 441 0
2022-08-16 13:05:41 GMT 52.533596 3.602025 38,000 302 441 0
2022-08-16 13:05:39 GMT 52.529388 3.613434 38,000 302 441 0
2022-08-16 13:05:37 GMT 52.529388 3.613434 38,000 302 441 0
2022-08-16 13:05:35 GMT 52.527031 3.619681 38,000 302 441 0
2022-08-16 13:05:32 GMT 52.521118 3.635690 38,000 302 441 0
2022-08-16 13:05:29 GMT 52.521118 3.635690 38,000 302 441 0
2022-08-16 13:05:27 GMT 52.518906 3.641739 38,000 302 441 0
2022-08-16 13:05:24 GMT 52.515720 3.650286 38,000 302 441 0
2022-08-16 13:05:21 GMT 52.512459 3.659075 38,000 302 441 0
2022-08-16 13:05:19 GMT 52.510365 3.664804 38,000 302 440 0
2022-08-16 13:05:17 GMT 52.507828 3.671646 38,000 302 440 0
2022-08-16 13:05:14 GMT 52.504349 3.681107 38,000 302 440 0
2022-08-16 13:05:11 GMT 52.499939 3.693054 38,000 304 442 0
2022-08-16 13:05:09 GMT 52.496521 3.702164 38,000 304 442 0
2022-08-16 13:05:06 GMT 52.496521 3.702164 38,000 305 444 0
2022-08-16 13:05:03 GMT 52.492954 3.711182 38,000 305 444 0
2022-08-16 13:05:00 GMT 52.490250 3.717804 38,000 306 445 0
2022-08-16 13:04:58 GMT 52.486496 3.726654 38,000 307 446 0
2022-08-16 13:04:55 GMT 52.483829 3.732683 38,000 308 447 0
2022-08-16 13:04:52 GMT 52.480179 3.740845 38,000 309 448 0
2022-08-16 13:04:49 GMT 52.476383 3.748849 38,000 310 449 0
2022-08-16 13:04:46 GMT 52.472214 3.757324 38,000 311 450 0
2022-08-16 13:04:43 GMT 52.468735 3.764038 38,000 313 452 0
2022-08-16 13:04:40 GMT 52.464603 3.771763 38,000 313 453 0
2022-08-16 13:04:38 GMT 52.461720 3.777100 38,000 317 456 0
2022-08-16 13:04:35 GMT 52.457703 3.784103 38,000 317 456 0
2022-08-16 13:04:32 GMT 52.447311 3.801193 38,000 317 457 0
2022-08-16 13:04:29 GMT 52.447311 3.801193 38,000 318 458 0
2022-08-16 13:04:26 GMT 52.442818 3.808018 38,000 321 460 0
2022-08-16 13:04:23 GMT 52.438862 3.813825 38,000 321 460 0
2022-08-16 13:04:20 GMT 52.434677 3.819656 38,000 321 460 0
2022-08-16 13:04:18 GMT 52.429962 3.826141 38,000 321 460 0
2022-08-16 13:04:15 GMT 52.425735 3.831953 38,000 321 461 0
2022-08-16 13:04:12 GMT 52.419357 3.840742 38,000 321 462 0
2022-08-16 13:04:09 GMT 52.416275 3.844986 38,000 321 462 0
2022-08-16 13:04:06 GMT 52.410698 3.852591 38,000 321 462 0
2022-08-16 13:04:03 GMT 52.405151 3.860168 38,000 321 464 0
2022-08-16 13:04:00 GMT 52.401398 3.865356 38,000 321 462 0
2022-08-16 13:03:58 GMT 52.397011 3.871347 38,000 321 462 0
2022-08-16 13:03:55 GMT 52.393707 3.875885 38,000 321 462 0
2022-08-16 13:03:52 GMT 52.383419 3.889945 38,000 321 463 0
2022-08-16 13:03:49 GMT 52.383419 3.889945 38,000 321 463 0
2022-08-16 13:03:46 GMT 52.377644 3.897792 38,000 321 463 0
2022-08-16 13:03:43 GMT 52.367825 3.911211 38,000 321 463 0
2022-08-16 13:03:40 GMT 52.367825 3.911211 38,000 321 463 0
2022-08-16 13:03:38 GMT 52.361073 3.920393 38,000 321 463 0
2022-08-16 13:03:36 GMT 52.361073 3.920393 38,000 321 463 0
2022-08-16 13:03:33 GMT 52.357815 3.924866 38,000 321 463 0
2022-08-16 13:03:30 GMT 52.352367 3.932321 38,000 321 464 0
2022-08-16 13:03:27 GMT 52.346420 3.940353 38,000 321 464 0
2022-08-16 13:03:24 GMT 52.341846 3.946603 38,000 321 463 0
2022-08-16 13:03:21 GMT 52.336075 3.954450 38,000 321 464 0
2022-08-16 13:03:18 GMT 52.332302 3.959551 38,000 321 463 0
2022-08-16 13:03:15 GMT 52.328156 3.965149 38,000 321 463 0
2022-08-16 13:03:13 GMT 52.324203 3.970537 38,000 321 463 0
2022-08-16 13:03:10 GMT 52.319454 3.977051 38,000 321 463 0
2022-08-16 13:03:07 GMT 52.314659 3.983486 38,000 321 463 0
2022-08-16 13:03:04 GMT 52.310562 3.989057 38,000 321 463 0
2022-08-16 13:03:01 GMT 52.303986 3.998032 38,000 321 463 0
2022-08-16 13:02:58 GMT 52.299393 4.004281 38,000 321 463 0
2022-08-16 13:02:55 GMT 52.294464 4.011002 38,000 321 462 0
2022-08-16 13:02:52 GMT 52.284492 4.024606 38,000 321 462 0
2022-08-16 13:02:49 GMT 52.280025 4.030648 38,000 321 462 0
2022-08-16 13:02:47 GMT 52.280025 4.030648 38,000 321 462 0
2022-08-16 13:02:44 GMT 52.276932 4.034882 38,000 321 462 0
2022-08-16 13:02:41 GMT 52.270714 4.043440 38,000 321 462 64
2022-08-16 13:02:38 GMT 52.266293 4.049404 38,000 321 462 0
2022-08-16 13:02:35 GMT 52.261402 4.056152 38,000 321 462 0
2022-08-16 13:02:32 GMT 52.255325 4.064407 38,000 321 462 0
2022-08-16 13:02:29 GMT 52.252232 4.068630 38,000 321 462 0
2022-08-16 13:02:27 GMT 52.247486 4.075065 38,000 321 462 0
2022-08-16 13:02:24 GMT 52.244385 4.079361 38,000 321 462 0
2022-08-16 13:02:21 GMT 52.239624 4.085770 38,000 321 462 0
2022-08-16 13:02:18 GMT 52.233902 4.093552 38,000 321 461 0
2022-08-16 13:02:15 GMT 52.222595 4.108887 38,000 321 461 0
2022-08-16 13:02:12 GMT 52.222595 4.108887 38,000 321 460 0
2022-08-16 13:02:09 GMT 52.218857 4.113988 38,000 321 461 0
2022-08-16 13:02:06 GMT 52.214760 4.119559 38,000 321 460 0
2022-08-16 13:02:03 GMT 52.209869 4.126205 38,000 321 460 0
2022-08-16 13:02:01 GMT 52.205589 4.131958 38,000 321 460 64
2022-08-16 13:01:58 GMT 52.202499 4.136200 38,000 321 460 0
2022-08-16 13:01:56 GMT 52.198235 4.141924 38,000 321 460 0
2022-08-16 13:01:53 GMT 52.193024 4.149017 38,000 321 460 0
2022-08-16 13:01:50 GMT 52.188084 4.155579 38,000 321 460 0
2022-08-16 13:01:47 GMT 52.183182 4.162216 38,000 321 460 64
2022-08-16 13:01:44 GMT 52.178787 4.168167 38,000 321 460 64
2022-08-16 13:01:42 GMT 52.176308 4.171430 38,000 321 460 64
2022-08-16 13:01:39 GMT 52.169601 4.180455 38,000 321 459 0
2022-08-16 13:01:36 GMT 52.163876 4.188145 38,000 321 459 0
2022-08-16 13:01:33 GMT 52.160107 4.193246 38,000 321 459 0
2022-08-16 13:01:30 GMT 52.154381 4.200936 38,000 321 459 0
2022-08-16 13:01:27 GMT 52.150284 4.206430 38,000 321 458 0
2022-08-16 13:01:24 GMT 52.145416 4.213028 38,000 321 458 0
2022-08-16 13:01:21 GMT 52.139206 4.221340 38,000 321 458 0
2022-08-16 13:01:18 GMT 52.135300 4.226608 38,000 321 457 -64
2022-08-16 13:01:16 GMT 52.128174 4.236328 38,000 321 457 -64
2022-08-16 13:01:13 GMT 52.128174 4.236328 38,000 321 457 -64
2022-08-16 13:01:10 GMT 52.123260 4.242859 38,000 321 457 0
2022-08-16 13:01:07 GMT 52.117744 4.250375 38,000 321 457 0
2022-08-16 13:01:04 GMT 52.112717 4.257124 38,000 321 457 64
2022-08-16 13:01:02 GMT 52.108475 4.262848 38,000 321 457 64
2022-08-16 13:00:59 GMT 52.104103 4.268816 38,000 321 457 64
2022-08-16 13:00:56 GMT 52.098907 4.275818 38,000 321 457 0
2022-08-16 13:00:53 GMT 52.096161 4.279556 38,000 321 457 0
2022-08-16 13:00:50 GMT 52.089478 4.288483 38,000 321 457 0
2022-08-16 13:00:47 GMT 52.084927 4.294634 38,000 321 457 0
2022-08-16 13:00:45 GMT 52.082691 4.297695 38,000 321 456 0
2022-08-16 13:00:42 GMT 52.077290 4.304914 38,000 321 457 0
2022-08-16 13:00:39 GMT 52.070957 4.313389 38,000 321 457 0
2022-08-16 13:00:36 GMT 52.065929 4.320138 38,000 321 456 0
2022-08-16 13:00:33 GMT 52.063477 4.323425 38,000 321 456 0
2022-08-16 13:00:31 GMT 52.059219 4.329071 38,000 321 456 0
2022-08-16 13:00:28 GMT 52.054688 4.335175 38,000 321 456 0
2022-08-16 13:00:26 GMT 52.052216 4.338379 38,000 321 456 0
2022-08-16 13:00:23 GMT 52.046860 4.345551 38,000 321 456 0
2022-08-16 13:00:20 GMT 52.041351 4.352940 38,000 321 456 -64
2022-08-16 13:00:17 GMT 52.036148 4.359894 38,000 321 456 0
2022-08-16 13:00:15 GMT 52.032898 4.364243 38,000 321 456 0
2022-08-16 13:00:12 GMT 52.028183 4.370575 38,000 321 456 0
2022-08-16 13:00:09 GMT 52.024750 4.375153 38,000 321 456 0
2022-08-16 13:00:06 GMT 52.018589 4.383388 38,000 321 456 0
2022-08-16 13:00:03 GMT 52.008362 4.397049 38,000 321 456 0
2022-08-16 13:00:00 GMT 52.008362 4.397049 38,000 321 456 0
2022-08-16 12:59:57 GMT 52.004288 4.402466 38,000 321 456 0
2022-08-16 12:59:55 GMT 52.000214 4.407883 38,000 321 456 0
2022-08-16 12:59:52 GMT 51.995358 4.414385 38,000 321 454 0
2022-08-16 12:59:49 GMT 51.991169 4.419957 38,000 321 454 -64
2022-08-16 12:59:46 GMT 51.986298 4.426422 38,000 321 453 0
2022-08-16 12:59:43 GMT 51.980461 4.434239 38,000 321 454 0
2022-08-16 12:59:40 GMT 51.975761 4.440517 38,000 321 454 0
2022-08-16 12:59:37 GMT 51.971558 4.446106 38,000 321 454 0
2022-08-16 12:59:33 GMT 51.963913 4.456253 38,000 321 454 64
2022-08-16 12:59:30 GMT 51.960678 4.460606 38,000 321 454 64
2022-08-16 12:59:27 GMT 51.956497 4.466171 38,000 321 454 0
2022-08-16 12:59:25 GMT 51.948532 4.476700 38,000 321 454 0
2022-08-16 12:59:22 GMT 51.948532 4.476700 38,000 321 454 0
2022-08-16 12:59:20 GMT 51.944336 4.482343 38,000 321 454 0
2022-08-16 12:59:18 GMT 51.939789 4.488297 38,000 321 454 0
2022-08-16 12:59:15 GMT 51.936050 4.493251 38,000 321 454 0
2022-08-16 12:59:12 GMT 51.925827 4.506760 38,000 321 453 0
2022-08-16 12:59:09 GMT 51.925827 4.506760 38,000 321 453 0
2022-08-16 12:59:06 GMT 51.920151 4.514313 38,000 321 453 0
2022-08-16 12:59:03 GMT 51.915161 4.520950 38,000 321 452 0
2022-08-16 12:59:00 GMT 51.913055 4.523699 38,000 321 452 0
2022-08-16 12:58:57 GMT 51.906876 4.531860 38,000 321 452 0
2022-08-16 12:58:55 GMT 51.897320 4.544416 38,000 321 452 0
2022-08-16 12:58:52 GMT 51.897320 4.544416 38,000 321 452 0
2022-08-16 12:58:49 GMT 51.892456 4.550864 38,000 321 452 0
2022-08-16 12:58:46 GMT 51.889526 4.554650 38,000 321 452 0
2022-08-16 12:58:43 GMT 51.884216 4.561702 38,000 321 453 0
2022-08-16 12:58:41 GMT 51.881119 4.565811 38,000 321 451 0
2022-08-16 12:58:38 GMT 51.876297 4.572168 38,000 321 451 0
2022-08-16 12:58:35 GMT 51.870461 4.579849 38,000 321 451 0
2022-08-16 12:58:32 GMT 51.867710 4.583511 38,000 321 451 0
2022-08-16 12:58:30 GMT 51.862839 4.589910 38,000 321 451 0
2022-08-16 12:58:28 GMT 51.859955 4.593770 38,000 321 451 0
2022-08-16 12:58:25 GMT 51.854919 4.600376 38,000 321 451 0
2022-08-16 12:58:22 GMT 51.849789 4.607162 38,000 321 451 0
2022-08-16 12:58:19 GMT 51.846725 4.611214 38,000 321 451 0
2022-08-16 12:58:17 GMT 51.841873 4.617615 38,000 321 451 0
2022-08-16 12:58:14 GMT 51.837021 4.624056 38,000 321 451 0
2022-08-16 12:58:11 GMT 51.832520 4.629974 38,000 321 451 0
2022-08-16 12:58:08 GMT 51.826401 4.638086 38,000 321 451 0
2022-08-16 12:58:05 GMT 51.819305 4.647514 38,000 321 451 0
2022-08-16 12:58:03 GMT 51.819305 4.647514 38,000 321 451 0
2022-08-16 12:58:01 GMT 51.815620 4.652405 38,000 321 449 0
2022-08-16 12:57:58 GMT 51.810791 4.658797 38,000 321 449 0
2022-08-16 12:57:55 GMT 51.807240 4.663544 38,000 321 451 0
2022-08-16 12:57:53 GMT 51.800537 4.672456 38,000 321 450 0
2022-08-16 12:57:49 GMT 51.794113 4.681015 38,000 321 450 0
2022-08-16 12:57:47 GMT 51.794113 4.681015 38,000 321 450 0
2022-08-16 12:57:44 GMT 51.787857 4.689381 38,000 320 449 0
2022-08-16 12:57:41 GMT 51.784199 4.694290 38,000 321 450 0
2022-08-16 12:57:39 GMT 51.781963 4.697266 38,000 321 450 64
2022-08-16 12:57:37 GMT 51.778748 4.701555 38,000 321 449 0
2022-08-16 12:57:34 GMT 51.772697 4.709702 38,000 321 449 0
2022-08-16 12:57:31 GMT 51.762505 4.723434 38,000 321 449 0
2022-08-16 12:57:28 GMT 51.762505 4.723434 38,000 321 449 0
2022-08-16 12:57:25 GMT 51.754730 4.733963 38,000 320 449 0
2022-08-16 12:57:22 GMT 51.754730 4.733963 38,000 320 449 0
2022-08-16 12:57:19 GMT 51.749954 4.740378 38,000 320 449 0
2022-08-16 12:57:16 GMT 51.744534 4.747620 38,000 321 449 0
2022-08-16 12:57:13 GMT 51.740067 4.753665 38,000 320 448 0
2022-08-16 12:57:11 GMT 51.736111 4.758987 38,000 320 449 0
2022-08-16 12:57:09 GMT 51.733566 4.762425 38,000 320 448 0
2022-08-16 12:57:07 GMT 51.730103 4.767151 38,000 319 447 0
2022-08-16 12:57:04 GMT 51.726379 4.772491 38,000 318 445 0
2022-08-16 12:57:02 GMT 51.718468 4.784088 38,000 317 445 0
2022-08-16 12:56:59 GMT 51.715347 4.788895 38,000 299 427 0
2022-08-16 12:56:57 GMT 51.715347 4.788895 38,000 310 438 64
2022-08-16 12:56:54 GMT 51.707016 4.802510 38,000 313 441 0
2022-08-16 12:56:49 GMT 51.704220 4.807281 38,000 313 441 0
2022-08-16 12:56:47 GMT 51.700729 4.813309 38,000 310 438 64
2022-08-16 12:56:44 GMT 51.697357 4.819361 38,000 311 439 64
2022-08-16 12:56:42 GMT 51.692917 4.827452 38,000 311 439 64
2022-08-16 12:56:39 GMT 51.690300 4.832458 38,000 308 435 -192
2022-08-16 12:56:37 GMT 51.687695 4.837418 38,000 309 438 0
2022-08-16 12:56:34 GMT 51.683971 4.844742 38,000 308 435 -128
2022-08-16 12:56:32 GMT 51.677582 4.857664 38,000 308 435 -128
2022-08-16 12:56:29 GMT 51.677582 4.857664 38,000 306 433 -64
2022-08-16 12:56:27 GMT 51.671215 4.870987 38,000 306 433 -64
2022-08-16 12:56:24 GMT 51.671215 4.870987 38,025 306 432 -64
2022-08-16 12:56:22 GMT 51.669067 4.875703 38,025 304 430 64
2022-08-16 12:56:19 GMT 51.665115 4.885330 38,000 300 427 128
2022-08-16 12:56:16 GMT 51.663300 4.890213 38,000 299 426 0
2022-08-16 12:56:13 GMT 51.660233 4.899086 38,000 299 426 0
2022-08-16 12:56:11 GMT 51.655945 4.911880 38,000 299 426 0
2022-08-16 12:56:09 GMT 51.652954 4.920836 38,000 299 426 0
2022-08-16 12:56:06 GMT 51.652954 4.920836 38,000 299 426 0
2022-08-16 12:56:03 GMT 51.651169 4.926106 38,000 299 426 0
2022-08-16 12:56:01 GMT 51.649200 4.931971 38,000 299 426 0
2022-08-16 12:55:59 GMT 51.646408 4.940359 38,000 299 427 0
2022-08-16 12:55:57 GMT 51.644852 4.945110 38,000 299 426 0
2022-08-16 12:55:54 GMT 51.641647 4.954611 38,000 299 427 0
2022-08-16 12:55:51 GMT 51.639793 4.960175 38,000 299 427 0
2022-08-16 12:55:49 GMT 51.637466 4.967194 38,000 299 427 0
2022-08-16 12:55:46 GMT 51.634159 4.977188 38,000 299 427 0
2022-08-16 12:55:43 GMT 51.632080 4.983339 38,000 299 427 0
2022-08-16 12:55:41 GMT 51.628464 4.994251 38,000 299 427 0
2022-08-16 12:55:39 GMT 51.628464 4.994251 38,000 299 427 0
2022-08-16 12:55:36 GMT 51.625763 5.002342 38,000 299 427 0
2022-08-16 12:55:33 GMT 51.622925 5.011028 38,000 299 427 0
2022-08-16 12:55:31 GMT 51.619961 5.019989 38,000 299 428 -64
2022-08-16 12:55:28 GMT 51.618008 5.025864 38,000 299 428 0
2022-08-16 12:55:25 GMT 51.614548 5.036266 38,000 299 428 0
2022-08-16 12:55:22 GMT 51.612625 5.042131 38,000 299 428 -64
2022-08-16 12:55:19 GMT 51.609253 5.052185 38,000 299 428 0
2022-08-16 12:55:16 GMT 51.606041 5.061951 38,000 299 428 0
2022-08-16 12:55:13 GMT 51.603714 5.068970 38,000 299 428 -64
2022-08-16 12:55:10 GMT 51.601200 5.076523 38,000 299 428 0
2022-08-16 12:55:07 GMT 51.598129 5.085754 38,000 299 428 0
2022-08-16 12:55:04 GMT 51.593491 5.099735 38,000 298 427 0
2022-08-16 12:55:02 GMT 51.593491 5.099735 38,000 298 428 0
2022-08-16 12:54:59 GMT 51.590836 5.107900 38,000 298 428 0
2022-08-16 12:54:56 GMT 51.588867 5.113765 38,000 298 428 0
2022-08-16 12:54:53 GMT 51.584999 5.125580 38,000 298 428 0
2022-08-16 12:54:50 GMT 51.582413 5.133436 38,000 298 428 0
2022-08-16 12:54:47 GMT 51.579849 5.141230 38,000 298 429 0
2022-08-16 12:54:44 GMT 51.576481 5.151367 38,000 298 428 0
2022-08-16 12:54:40 GMT 51.571129 5.167618 38,000 298 429 0
2022-08-16 12:54:37 GMT 51.570198 5.170441 38,000 298 429 0
2022-08-16 12:54:34 GMT 51.568104 5.176849 38,000 298 429 0
2022-08-16 12:54:32 GMT 51.565933 5.183320 38,000 298 429 0
2022-08-16 12:54:29 GMT 51.560841 5.198746 38,000 298 429 0
2022-08-16 12:54:26 GMT 51.560841 5.198746 38,000 298 428 0
2022-08-16 12:54:23 GMT 51.557144 5.209969 38,000 298 428 0
2022-08-16 12:54:20 GMT 51.555222 5.215908 38,000 298 429 0
2022-08-16 12:54:17 GMT 51.552429 5.224296 38,000 298 429 0
2022-08-16 12:54:14 GMT 51.549591 5.233055 38,000 298 429 0
2022-08-16 12:54:12 GMT 51.546707 5.241740 38,000 298 429 0
2022-08-16 12:54:09 GMT 51.544510 5.248496 38,000 298 429 0
2022-08-16 12:54:06 GMT 51.542126 5.255814 38,000 298 429 0
2022-08-16 12:54:02 GMT 51.538147 5.267870 38,000 298 429 0
2022-08-16 12:54:00 GMT 51.536316 5.273512 38,000 298 429 0
2022-08-16 12:53:57 GMT 51.530777 5.290362 38,000 298 429 0
2022-08-16 12:53:54 GMT 51.530777 5.290362 38,000 298 429 0
2022-08-16 12:53:52 GMT 51.529037 5.295707 38,000 298 429 0
2022-08-16 12:53:50 GMT 51.527756 5.299641 38,000 298 429 0
2022-08-16 12:53:48 GMT 51.524689 5.308920 38,000 298 429 0
2022-08-16 12:53:45 GMT 51.523041 5.314026 38,000 298 429 0
2022-08-16 12:53:42 GMT 51.520294 5.322431 38,000 298 429 0
2022-08-16 12:53:40 GMT 51.517872 5.329742 38,000 298 429 0
2022-08-16 12:53:37 GMT 51.515488 5.337054 38,000 298 430 0
2022-08-16 12:53:34 GMT 51.510143 5.353394 38,000 298 430 0
2022-08-16 12:53:31 GMT 51.510143 5.353394 38,000 298 430 0
2022-08-16 12:53:29 GMT 51.507442 5.361557 38,000 298 429 0
2022-08-16 12:53:26 GMT 51.504318 5.371127 38,000 298 430 0
2022-08-16 12:53:23 GMT 51.502762 5.375952 38,000 298 429 64
2022-08-16 12:53:21 GMT 51.501019 5.381317 38,000 298 429 64
2022-08-16 12:53:19 GMT 51.498825 5.388052 38,000 298 429 64
2022-08-16 12:53:16 GMT 51.495758 5.397331 38,000 298 429 64
2022-08-16 12:53:13 GMT 51.490265 5.414256 38,000 298 430 0
2022-08-16 12:53:10 GMT 51.486588 5.425568 38,000 298 430 0
2022-08-16 12:53:06 GMT 51.486588 5.425568 38,000 298 430 0
2022-08-16 12:53:03 GMT 51.483627 5.434595 38,000 298 430 -64
2022-08-16 12:53:00 GMT 51.481281 5.441895 38,000 298 430 -64
2022-08-16 12:52:57 GMT 51.475742 5.458832 38,000 298 430 64
2022-08-16 12:52:55 GMT 51.475742 5.458832 38,000 298 430 0
2022-08-16 12:52:51 GMT 51.470169 5.476016 38,000 298 430 0
2022-08-16 12:52:48 GMT 51.467037 5.485611 38,000 298 430 0
2022-08-16 12:52:45 GMT 51.467037 5.485611 38,000 298 430 0
2022-08-16 12:52:41 GMT 51.461609 5.502295 38,000 298 430 0
2022-08-16 12:52:39 GMT 51.461609 5.502295 38,000 298 430 0
2022-08-16 12:52:36 GMT 51.458954 5.510460 38,000 298 430 0
2022-08-16 12:52:33 GMT 51.456188 5.518875 38,000 298 430 0
2022-08-16 12:52:30 GMT 51.453629 5.526810 38,000 298 430 0
2022-08-16 12:52:28 GMT 51.449020 5.540924 38,000 298 430 0
2022-08-16 12:52:25 GMT 51.449020 5.540924 38,000 298 431 0
2022-08-16 12:52:22 GMT 51.446274 5.549358 38,000 298 430 0
2022-08-16 12:52:19 GMT 51.443024 5.559230 38,000 298 430 0
2022-08-16 12:52:16 GMT 51.440735 5.566254 38,000 298 430 0
2022-08-16 12:52:13 GMT 51.437759 5.575265 38,000 298 430 0
2022-08-16 12:52:10 GMT 51.432682 5.590744 38,000 298 430 0
2022-08-16 12:52:07 GMT 51.432682 5.590744 38,000 298 430 0
2022-08-16 12:52:05 GMT 51.427700 5.605927 38,000 298 431 0
2022-08-16 12:52:02 GMT 51.427700 5.605927 38,000 298 431 0
2022-08-16 12:51:59 GMT 51.424255 5.616379 38,000 298 431 0
2022-08-16 12:51:56 GMT 51.419460 5.631027 38,000 298 430 0
2022-08-16 12:51:53 GMT 51.419460 5.631027 38,000 298 430 0
2022-08-16 12:51:51 GMT 51.417160 5.638065 38,000 298 430 0
2022-08-16 12:51:48 GMT 51.411777 5.654755 38,000 297 429 0
2022-08-16 12:51:45 GMT 51.411777 5.654755 38,000 296 428 0
2022-08-16 12:51:42 GMT 51.410110 5.660112 38,000 296 428 0
2022-08-16 12:51:39 GMT 51.407089 5.669762 38,000 294 426 0
2022-08-16 12:51:36 GMT 51.403610 5.682084 38,000 293 426 64
2022-08-16 12:51:33 GMT 51.402100 5.687949 38,000 293 426 0
2022-08-16 12:51:30 GMT 51.399956 5.696030 38,000 293 426 0
2022-08-16 12:51:28 GMT 51.395905 5.711746 38,000 293 426 0
2022-08-16 12:51:25 GMT 51.395905 5.711746 38,000 293 426 0
2022-08-16 12:51:22 GMT 51.394180 5.718458 38,000 293 426 0
2022-08-16 12:51:19 GMT 51.391205 5.730057 38,000 293 425 0
2022-08-16 12:51:16 GMT 51.388226 5.741730 38,000 293 425 0
2022-08-16 12:51:14 GMT 51.388226 5.741730 38,000 293 425 0
2022-08-16 12:51:11 GMT 51.385616 5.751877 38,000 293 425 -64
2022-08-16 12:51:08 GMT 51.383194 5.761438 38,000 293 425 -64
2022-08-16 12:51:05 GMT 51.381180 5.769307 38,000 293 425 0
2022-08-16 12:51:02 GMT 51.379101 5.777435 38,000 293 425 0
2022-08-16 12:50:59 GMT 51.376740 5.786751 38,000 293 425 0
2022-08-16 12:50:56 GMT 51.374817 5.794296 38,000 293 425 0
2022-08-16 12:50:53 GMT 51.372665 5.802711 38,000 293 425 0
2022-08-16 12:50:50 GMT 51.370514 5.811174 38,000 293 425 0
2022-08-16 12:50:48 GMT 51.368484 5.819321 38,000 293 424 0
2022-08-16 12:50:45 GMT 51.366531 5.826837 38,000 293 424 0
2022-08-16 12:50:42 GMT 51.364761 5.833817 38,000 293 424 0
2022-08-16 12:50:40 GMT 51.362480 5.842743 38,000 293 423 0
2022-08-16 12:50:36 GMT 51.359734 5.853424 38,000 293 423 64
2022-08-16 12:50:34 GMT 51.358711 5.857544 38,000 293 423 64
2022-08-16 12:50:31 GMT 51.355545 5.869904 38,000 293 423 64
2022-08-16 12:50:26 GMT 51.350376 5.890121 38,000 293 422 0
2022-08-16 12:50:21 GMT 51.348770 5.896466 38,000 293 422 0
2022-08-16 12:50:19 GMT 51.347305 5.902252 38,000 293 422 -64
2022-08-16 12:50:17 GMT 51.345257 5.910263 38,000 293 421 -64
2022-08-16 12:50:14 GMT 51.343048 5.918959 38,000 293 421 0
2022-08-16 12:50:11 GMT 51.341629 5.924377 38,000 293 421 0
2022-08-16 12:50:08 GMT 51.339531 5.932770 38,000 293 421 0
2022-08-16 12:50:06 GMT 51.338058 5.938482 38,000 292 418 -64
2022-08-16 12:50:04 GMT 51.336227 5.945682 38,000 292 420 0
2022-08-16 12:50:01 GMT 51.333664 5.955703 38,000 293 420 64
2022-08-16 12:49:58 GMT 51.332268 5.961151 38,000 292 420 0
2022-08-16 12:49:56 GMT 51.330776 5.967178 38,000 292 419 -64
2022-08-16 12:49:54 GMT 51.328857 5.974632 38,000 292 419 -64
2022-08-16 12:49:51 GMT 51.327301 5.980942 38,000 292 419 -64
2022-08-16 12:49:48 GMT 51.325104 5.989850 38,000 291 417 -64
2022-08-16 12:49:45 GMT 51.323181 5.998238 38,000 289 415 0
2022-08-16 12:49:43 GMT 51.321793 6.004639 38,000 286 413 128
2022-08-16 12:49:40 GMT 51.319931 6.014569 38,000 285 412 0
2022-08-16 12:49:37 GMT 51.318211 6.025162 38,000 285 412 0
2022-08-16 12:49:34 GMT 51.316818 6.034018 38,000 285 412 0
2022-08-16 12:49:31 GMT 51.315628 6.041367 38,000 285 412 0
2022-08-16 12:49:28 GMT 51.314159 6.050797 38,000 285 412 0
2022-08-16 12:49:25 GMT 51.312809 6.059341 38,000 285 412 0
2022-08-16 12:49:22 GMT 51.311550 6.067276 38,000 285 412 0
2022-08-16 12:49:20 GMT 51.310715 6.072617 38,000 285 412 0
2022-08-16 12:49:18 GMT 51.309311 6.081452 38,000 285 412 0
2022-08-16 12:49:15 GMT 51.308350 6.087613 38,000 285 412 0
2022-08-16 12:49:13 GMT 51.307159 6.094962 38,000 285 412 0
2022-08-16 12:49:10 GMT 51.304848 6.109695 40,050 285 411 0
2022-08-16 12:49:08 GMT 51.304848 6.109695 38,000 285 411 0
2022-08-16 12:49:05 GMT 51.303497 6.117900 38,000 285 411 0
2022-08-16 12:49:03 GMT 51.300980 6.133786 38,000 285 412 0
2022-08-16 12:49:00 GMT 51.300980 6.133786 38,000 285 412 0
2022-08-16 12:48:57 GMT 51.298370 6.150265 38,000 285 412 0
2022-08-16 12:48:54 GMT 51.298370 6.150265 38,000 285 412 0
2022-08-16 12:48:51 GMT 51.295120 6.170578 38,000 285 412 0
2022-08-16 12:48:48 GMT 51.295120 6.170578 38,000 285 412 -64
2022-08-16 12:48:45 GMT 51.294388 6.174984 38,000 285 412 -64
2022-08-16 12:48:43 GMT 51.293427 6.181146 38,000 285 412 -64
2022-08-16 12:48:40 GMT 51.291908 6.190567 38,000 285 412 -64
2022-08-16 12:48:38 GMT 51.290726 6.197922 38,000 285 412 -64
2022-08-16 12:48:33 GMT 51.288601 6.211166 38,000 285 412 0
2022-08-16 12:48:30 GMT 51.286011 6.227318 38,000 285 412 0
2022-08-16 12:48:28 GMT 51.286011 6.227318 38,000 285 412 64
2022-08-16 12:48:25 GMT 51.283436 6.243515 38,000 285 412 0
2022-08-16 12:48:22 GMT 51.281994 6.252365 38,000 285 412 0
2022-08-16 12:48:19 GMT 51.281994 6.252365 38,000 285 412 0
2022-08-16 12:48:17 GMT 51.280643 6.260910 38,000 285 412 0
2022-08-16 12:48:14 GMT 51.279572 6.267700 38,000 285 413 0
2022-08-16 12:48:11 GMT 51.278221 6.276245 38,000 285 413 0
2022-08-16 12:48:08 GMT 51.276730 6.285400 38,000 285 413 0
2022-08-16 12:48:05 GMT 51.275024 6.295983 38,000 285 414 64
2022-08-16 12:48:02 GMT 51.273697 6.304222 38,000 285 414 0
2022-08-16 12:47:59 GMT 51.272919 6.309270 38,000 285 414 0
2022-08-16 12:47:57 GMT 51.271469 6.318054 38,000 285 414 0
2022-08-16 12:47:55 GMT 51.270172 6.326343 38,000 285 414 0
2022-08-16 12:47:52 GMT 51.268936 6.333989 38,000 285 414 0
2022-08-16 12:47:49 GMT 51.268021 6.339631 38,000 285 414 0
2022-08-16 12:47:47 GMT 51.266602 6.348168 38,000 285 414 0
2022-08-16 12:47:44 GMT 51.265228 6.356704 38,000 285 414 0
2022-08-16 12:47:41 GMT 51.263809 6.365241 38,000 285 415 0
2022-08-16 12:47:38 GMT 51.262344 6.374149 38,000 285 415 0
2022-08-16 12:47:36 GMT 51.261520 6.379122 38,000 285 415 -64
2022-08-16 12:47:33 GMT 51.260101 6.387733 38,000 285 415 -64
2022-08-16 12:47:31 GMT 51.258911 6.395082 38,000 285 415 -64
2022-08-16 12:47:28 GMT 51.257504 6.403656 38,000 285 415 -64
2022-08-16 12:47:26 GMT 51.254944 6.419067 38,000 285 416 0
2022-08-16 12:47:23 GMT 51.254944 6.419067 38,000 285 416 0
2022-08-16 12:47:20 GMT 51.254013 6.424998 38,000 285 416 0
2022-08-16 12:47:17 GMT 51.252274 6.435390 38,000 285 416 0
2022-08-16 12:47:14 GMT 51.248795 6.456695 38,000 285 416 0
2022-08-16 12:47:11 GMT 51.248795 6.456695 38,000 285 416 64
2022-08-16 12:47:08 GMT 51.247742 6.463227 38,000 285 416 64
2022-08-16 12:47:05 GMT 51.246323 6.471764 38,000 285 416 0
2022-08-16 12:47:03 GMT 51.244995 6.479781 38,000 285 416 0
2022-08-16 12:47:00 GMT 51.244080 6.485422 38,000 285 417 0
2022-08-16 12:46:58 GMT 51.242935 6.492549 38,000 285 417 0
2022-08-16 12:46:56 GMT 51.242050 6.497879 38,000 285 417 0
2022-08-16 12:46:53 GMT 51.240189 6.509177 38,000 285 417 0
2022-08-16 12:46:50 GMT 51.238724 6.518381 38,000 285 417 0
2022-08-16 12:46:47 GMT 51.237625 6.524887 38,000 285 417 0
2022-08-16 12:46:44 GMT 51.236435 6.532337 38,000 285 417 0
2022-08-16 12:46:42 GMT 51.235161 6.540070 38,000 285 417 0
2022-08-16 12:46:38 GMT 51.231853 6.560211 38,000 285 417 0
2022-08-16 12:46:33 GMT 51.230831 6.566467 38,000 285 417 0
2022-08-16 12:46:30 GMT 51.229202 6.576505 38,000 285 417 0
2022-08-16 12:46:27 GMT 51.228149 6.582741 38,000 285 417 0
2022-08-16 12:46:25 GMT 51.227013 6.589890 38,000 285 417 0
2022-08-16 12:46:23 GMT 51.225475 6.599121 38,000 285 417 0
2022-08-16 12:46:20 GMT 51.224579 6.604713 38,000 285 417 -64
2022-08-16 12:46:18 GMT 51.223251 6.612730 38,000 285 417 -64
2022-08-16 12:46:15 GMT 51.222080 6.619873 38,000 285 417 -64
2022-08-16 12:46:12 GMT 51.220551 6.629358 38,000 285 417 0
2022-08-16 12:46:09 GMT 51.219051 6.638260 38,000 285 417 0
2022-08-16 12:46:06 GMT 51.218170 6.643908 38,000 285 417 0
2022-08-16 12:46:04 GMT 51.215607 6.659348 38,000 285 417 64
2022-08-16 12:45:59 GMT 51.214737 6.664693 38,000 285 417 0
2022-08-16 12:45:57 GMT 51.213608 6.671829 38,000 285 417 64
2022-08-16 12:45:55 GMT 51.212448 6.678945 38,000 285 417 64
2022-08-16 12:45:52 GMT 51.210480 6.691119 38,000 285 417 64
2022-08-16 12:45:49 GMT 51.209698 6.695862 38,000 285 417 0
2022-08-16 12:45:46 GMT 51.208145 6.705298 38,000 285 415 0
2022-08-16 12:45:43 GMT 51.207043 6.712189 38,000 285 417 0
2022-08-16 12:45:40 GMT 51.205227 6.723404 38,000 285 417 0
2022-08-16 12:45:37 GMT 51.203979 6.730833 38,000 285 417 0
2022-08-16 12:45:35 GMT 51.202759 6.738586 38,000 285 417 0
2022-08-16 12:45:32 GMT 51.199921 6.755753 38,000 285 416 0
2022-08-16 12:45:29 GMT 51.199921 6.755753 38,000 285 416 0
2022-08-16 12:45:27 GMT 51.198120 6.766984 38,000 288 413 0
2022-08-16 12:45:25 GMT 51.196663 6.775894 38,000 285 416 0
2022-08-16 12:45:22 GMT 51.196663 6.775894 38,000 285 415 0
2022-08-16 12:45:20 GMT 51.195602 6.782350 38,000 285 415 0
2022-08-16 12:45:18 GMT 51.194427 6.789474 38,000 285 415 0
2022-08-16 12:45:16 GMT 51.193867 6.793060 38,000 285 415 64
2022-08-16 12:45:14 GMT 51.191402 6.808090 38,000 285 415 64
2022-08-16 12:45:12 GMT 51.191402 6.808090 38,000 285 414 0
2022-08-16 12:45:09 GMT 51.190521 6.813379 38,000 285 414 0
2022-08-16 12:45:06 GMT 51.188656 6.824570 38,000 285 414 0
2022-08-16 12:45:04 GMT 51.186653 6.836624 38,000 286 414 0
2022-08-16 12:45:01 GMT 51.186653 6.836624 38,000 288 414 0
2022-08-16 12:44:59 GMT 51.183350 6.854782 38,000 288 414 64
2022-08-16 12:44:56 GMT 51.182045 6.861420 38,000 288 415 0
2022-08-16 12:44:53 GMT 51.182045 6.861420 38,000 288 414 -64
2022-08-16 12:44:50 GMT 51.180134 6.871033 38,000 288 414 -64
2022-08-16 12:44:47 GMT 51.176834 6.887537 38,000 288 414 -64
2022-08-16 12:44:44 GMT 51.176834 6.887537 38,000 288 414 -64
2022-08-16 12:44:42 GMT 51.175278 6.895406 38,000 288 414 0
2022-08-16 12:44:39 GMT 51.173676 6.903200 38,000 288 413 64
2022-08-16 12:44:36 GMT 51.171524 6.914215 38,000 288 413 64
2022-08-16 12:44:33 GMT 51.168777 6.927795 38,000 288 413 0
2022-08-16 12:44:30 GMT 51.168777 6.927795 38,000 288 413 0
2022-08-16 12:44:27 GMT 51.164822 6.947784 38,000 288 413 0
2022-08-16 12:44:24 GMT 51.164822 6.947784 38,000 288 413 -64
2022-08-16 12:44:21 GMT 51.163101 6.956424 38,000 288 413 0
2022-08-16 12:44:18 GMT 51.161087 6.966594 38,000 288 413 0
2022-08-16 12:44:15 GMT 51.158844 6.977877 38,000 288 413 0
2022-08-16 12:44:13 GMT 51.158844 6.977877 38,000 288 413 0
2022-08-16 12:44:11 GMT 51.157791 6.983073 38,000 288 413 0
2022-08-16 12:44:09 GMT 51.156006 6.992056 38,000 288 413 0
2022-08-16 12:44:06 GMT 51.155277 6.995773 38,000 288 413 0
2022-08-16 12:44:04 GMT 51.154064 7.001877 38,000 288 413 0
2022-08-16 12:44:02 GMT 51.150970 7.017517 38,000 288 413 0
2022-08-16 12:43:59 GMT 51.150970 7.017517 38,000 288 413 0
2022-08-16 12:43:56 GMT 51.147720 7.033700 38,000 288 414 0
2022-08-16 12:43:53 GMT 51.146072 7.042088 38,000 288 413 0
2022-08-16 12:43:51 GMT 51.146072 7.042088 38,000 288 418 0
2022-08-16 12:43:49 GMT 51.145065 7.046987 38,000 288 413 0
2022-08-16 12:43:46 GMT 51.143639 7.054214 38,000 288 414 0
2022-08-16 12:43:44 GMT 51.141823 7.063217 38,000 288 414 0
2022-08-16 12:43:41 GMT 51.140285 7.070999 38,000 288 414 0
2022-08-16 12:43:39 GMT 51.137772 7.083435 38,000 288 414 0
2022-08-16 12:43:36 GMT 51.137772 7.083435 38,000 288 414 0
2022-08-16 12:43:33 GMT 51.135406 7.095312 38,000 288 414 0
2022-08-16 12:43:30 GMT 51.133621 7.104294 38,000 288 414 0
2022-08-16 12:43:27 GMT 51.132156 7.111569 38,000 288 414 0
2022-08-16 12:43:25 GMT 51.131012 7.117359 38,000 288 414 0
2022-08-16 12:43:22 GMT 51.129349 7.125473 38,000 288 414 0
2022-08-16 12:43:19 GMT 51.126389 7.140222 38,000 288 414 0
2022-08-16 12:43:17 GMT 51.126389 7.140222 38,000 288 414 0
2022-08-16 12:43:15 GMT 51.123596 7.154104 38,000 288 416 0
2022-08-16 12:43:12 GMT 51.123596 7.154104 38,000 288 414 64
2022-08-16 12:43:09 GMT 51.121666 7.163696 38,000 288 415 64
2022-08-16 12:43:05 GMT 51.119339 7.175293 38,000 288 415 64
2022-08-16 12:43:02 GMT 51.117645 7.183722 38,000 288 415 0
2022-08-16 12:42:59 GMT 51.115849 7.192383 38,000 288 415 -64
2022-08-16 12:42:56 GMT 51.114033 7.201385 38,000 288 416 0
2022-08-16 12:42:53 GMT 51.111984 7.211609 38,000 288 416 0
2022-08-16 12:42:50 GMT 51.110870 7.217127 38,000 288 416 0
2022-08-16 12:42:48 GMT 51.109470 7.224045 38,000 288 416 0
2022-08-16 12:42:45 GMT 51.107513 7.233658 38,000 288 417 0
2022-08-16 12:42:42 GMT 51.105930 7.241516 38,000 288 417 0
2022-08-16 12:42:39 GMT 51.103775 7.251942 38,000 288 417 0
2022-08-16 12:42:36 GMT 51.102173 7.259810 38,000 288 417 0
2022-08-16 12:42:33 GMT 51.100204 7.269757 38,000 288 417 0
2022-08-16 12:42:30 GMT 51.099060 7.275250 38,000 288 417 0
2022-08-16 12:42:28 GMT 51.097137 7.284826 38,000 288 417 0
2022-08-16 12:42:25 GMT 51.096062 7.290115 38,000 288 417 0
2022-08-16 12:42:23 GMT 51.094757 7.296481 38,000 288 418 -64
2022-08-16 12:42:21 GMT 51.093109 7.304646 38,000 288 418 -64
2022-08-16 12:42:18 GMT 51.091919 7.310486 38,000 288 418 -64
2022-08-16 12:42:15 GMT 51.089447 7.322685 38,000 288 418 0
2022-08-16 12:42:12 GMT 51.088165 7.328846 38,000 288 418 0
2022-08-16 12:42:09 GMT 51.084702 7.346039 38,000 288 418 0
2022-08-16 12:42:07 GMT 51.083633 7.351303 38,000 288 418 0
2022-08-16 12:42:04 GMT 51.083633 7.351303 38,000 288 418 0
2022-08-16 12:42:01 GMT 51.081772 7.360306 38,000 288 418 0
2022-08-16 12:41:58 GMT 51.078094 7.378387 38,000 288 418 0
2022-08-16 12:41:55 GMT 51.076813 7.384817 38,000 288 418 0
2022-08-16 12:41:53 GMT 51.076813 7.384817 38,000 288 418 0
2022-08-16 12:41:50 GMT 51.075027 7.393576 38,000 288 418 0
2022-08-16 12:41:47 GMT 51.073437 7.401123 38,000 289 418 0
2022-08-16 12:41:43 GMT 51.070831 7.413940 38,000 289 418 0
2022-08-16 12:41:41 GMT 51.069946 7.418370 38,000 289 418 0
2022-08-16 12:41:38 GMT 51.067711 7.429123 38,000 289 418 0
2022-08-16 12:41:35 GMT 51.066559 7.434701 38,000 289 418 0
2022-08-16 12:41:33 GMT 51.064686 7.444000 38,000 289 419 64
2022-08-16 12:41:30 GMT 51.062916 7.452469 38,000 289 419 0
2022-08-16 12:41:27 GMT 51.061428 7.459793 38,000 289 419 0
2022-08-16 12:41:24 GMT 51.059006 7.471771 38,000 289 419 0
2022-08-16 12:41:21 GMT 51.057404 7.479314 38,000 289 419 0
2022-08-16 12:41:18 GMT 51.056259 7.484894 38,000 289 419 0
2022-08-16 12:41:15 GMT 51.053143 7.500076 38,000 289 418 -64
2022-08-16 12:41:13 GMT 51.053143 7.500076 38,000 289 418 -64
2022-08-16 12:41:11 GMT 51.051773 7.506780 38,000 289 418 -64
2022-08-16 12:41:08 GMT 51.049805 7.516356 38,000 289 418 0
2022-08-16 12:41:05 GMT 51.048252 7.523956 38,000 289 418 64
2022-08-16 12:41:02 GMT 51.044716 7.541199 38,000 289 418 64
2022-08-16 12:41:00 GMT 51.044716 7.541199 38,000 289 418 64
2022-08-16 12:40:57 GMT 51.043552 7.546692 38,000 289 419 0
2022-08-16 12:40:54 GMT 51.041550 7.556305 38,000 289 418 0
2022-08-16 12:40:51 GMT 51.039223 7.567673 38,000 289 418 0
2022-08-16 12:40:48 GMT 51.037594 7.575607 38,000 289 419 0
2022-08-16 12:40:45 GMT 51.036346 7.581680 38,000 289 419 0
2022-08-16 12:40:43 GMT 51.035030 7.588120 38,000 289 419 -64
2022-08-16 12:40:41 GMT 51.031635 7.604446 38,000 289 419 -64
2022-08-16 12:40:38 GMT 51.029865 7.612915 38,000 289 419 0
2022-08-16 12:40:35 GMT 51.029865 7.612915 38,000 289 419 0
2022-08-16 12:40:33 GMT 51.028561 7.619324 38,000 289 419 0
2022-08-16 12:40:30 GMT 51.026550 7.628891 38,000 289 419 0
2022-08-16 12:40:27 GMT 51.025497 7.634162 38,000 289 419 0
2022-08-16 12:40:24 GMT 51.023067 7.645798 38,000 289 418 0
2022-08-16 12:40:21 GMT 51.021606 7.652794 38,000 289 418 0
2022-08-16 12:40:19 GMT 51.020042 7.660370 38,000 289 418 0
2022-08-16 12:40:16 GMT 51.018738 7.666702 38,000 289 418 0
2022-08-16 12:40:13 GMT 51.017109 7.674561 38,000 289 418 0
2022-08-16 12:40:11 GMT 51.015701 7.681596 38,000 289 418 0
2022-08-16 12:40:09 GMT 51.014782 7.685928 38,000 289 418 0
2022-08-16 12:40:06 GMT 51.012131 7.698744 38,000 289 418 0
2022-08-16 12:40:03 GMT 51.010620 7.706018 38,000 289 418 0
2022-08-16 12:40:00 GMT 51.009197 7.713013 38,000 289 418 0
2022-08-16 12:39:57 GMT 51.005333 7.731628 38,000 289 417 0
2022-08-16 12:39:54 GMT 51.005333 7.731628 38,000 289 418 0
2022-08-16 12:39:51 GMT 51.002472 7.745584 38,000 289 418 0
2022-08-16 12:39:49 GMT 51.002472 7.745584 38,000 289 418 0
2022-08-16 12:39:46 GMT 50.998444 7.765045 38,000 289 418 0
2022-08-16 12:39:43 GMT 50.998444 7.765045 38,000 289 418 0
2022-08-16 12:39:40 GMT 50.997185 7.771149 38,000 289 418 0
2022-08-16 12:39:38 GMT 50.995975 7.777023 38,000 289 418 0
2022-08-16 12:39:35 GMT 50.992855 7.792130 38,000 289 418 0
2022-08-16 12:39:33 GMT 50.992855 7.792130 38,000 289 418 0
2022-08-16 12:39:30 GMT 50.990982 7.801110 38,000 289 418 0
2022-08-16 12:39:27 GMT 50.986664 7.821732 38,000 289 418 0
2022-08-16 12:39:24 GMT 50.986664 7.821732 38,000 289 418 0
2022-08-16 12:39:21 GMT 50.985947 7.825235 38,000 289 418 0
2022-08-16 12:39:19 GMT 50.984207 7.833623 38,000 289 418 0
2022-08-16 12:39:17 GMT 50.983315 7.837982 38,000 289 418 0
2022-08-16 12:39:15 GMT 50.982056 7.843781 38,000 289 418 0
2022-08-16 12:39:13 GMT 50.978760 7.859827 38,000 289 418 0
2022-08-16 12:39:10 GMT 50.978760 7.859827 38,000 289 418 0
2022-08-16 12:39:08 GMT 50.977524 7.865617 38,000 289 418 0
2022-08-16 12:39:06 GMT 50.976929 7.868512 38,000 289 418 0
2022-08-16 12:39:03 GMT 50.972672 7.888852 38,000 289 418 0
2022-08-16 12:39:00 GMT 50.972672 7.888852 38,000 289 418 -64
2022-08-16 12:38:58 GMT 50.971443 7.894669 38,000 289 418 -64
2022-08-16 12:38:56 GMT 50.969112 7.905960 38,000 289 418 0
2022-08-16 12:38:53 GMT 50.969112 7.905960 38,000 289 418 0
2022-08-16 12:38:51 GMT 50.967407 7.914091 38,000 289 418 0
2022-08-16 12:38:48 GMT 50.965202 7.924500 38,000 289 418 0
2022-08-16 12:38:45 GMT 50.963745 7.931461 38,000 289 418 0
2022-08-16 12:38:43 GMT 50.961945 7.940216 38,000 289 418 0
2022-08-16 12:38:40 GMT 50.960541 7.946901 38,000 289 418 0
2022-08-16 12:38:37 GMT 50.958984 7.954102 38,000 289 418 0
2022-08-16 12:38:35 GMT 50.957794 7.959966 38,000 289 418 64
2022-08-16 12:38:32 GMT 50.955612 7.970352 38,000 289 418 64
2022-08-16 12:38:29 GMT 50.954132 7.977336 38,000 289 419 0
2022-08-16 12:38:26 GMT 50.952541 7.984924 38,000 289 419 0
2022-08-16 12:38:24 GMT 50.950974 7.992479 38,000 289 419 0
2022-08-16 12:38:21 GMT 50.949097 8.001462 38,000 289 419 0
2022-08-16 12:38:19 GMT 50.946026 8.015976 38,000 289 419 0
2022-08-16 12:38:16 GMT 50.944199 8.024696 38,000 289 419 0
2022-08-16 12:38:13 GMT 50.942688 8.031674 38,000 289 419 0
2022-08-16 12:38:11 GMT 50.942688 8.031674 38,000 289 419 0
2022-08-16 12:38:08 GMT 50.941742 8.036346 38,000 289 419 0
2022-08-16 12:38:06 GMT 50.939758 8.045630 38,000 289 419 0
2022-08-16 12:38:02 GMT 50.934990 8.068008 38,000 289 419 0
2022-08-16 12:37:58 GMT 50.934990 8.068008 38,000 289 419 0
2022-08-16 12:37:55 GMT 50.933411 8.075562 38,000 289 419 0
2022-08-16 12:37:53 GMT 50.931793 8.083042 38,000 289 419 0
2022-08-16 12:37:50 GMT 50.930569 8.088913 38,000 289 419 0
2022-08-16 12:37:48 GMT 50.928543 8.098483 38,000 289 419 0
2022-08-16 12:37:45 GMT 50.925568 8.112364 38,000 289 418 -64
2022-08-16 12:37:42 GMT 50.924835 8.115853 38,000 289 418 0
2022-08-16 12:37:39 GMT 50.923187 8.123722 38,000 289 418 0
2022-08-16 12:37:36 GMT 50.920837 8.134766 38,000 289 419 0
2022-08-16 12:37:33 GMT 50.919304 8.142014 38,000 289 419 0
2022-08-16 12:37:30 GMT 50.916229 8.156532 38,000 289 419 0
2022-08-16 12:37:26 GMT 50.915253 8.161163 38,000 289 419 0
2022-08-16 12:37:24 GMT 50.913578 8.168945 38,000 289 419 0
2022-08-16 12:37:21 GMT 50.911743 8.177688 38,000 289 419 0
2022-08-16 12:37:18 GMT 50.910690 8.182602 38,000 289 419 0
2022-08-16 12:37:15 GMT 50.907013 8.200073 38,000 289 419 0
2022-08-16 12:37:12 GMT 50.907013 8.200073 38,000 289 419 0
2022-08-16 12:37:10 GMT 50.903915 8.214581 38,000 289 419 0
2022-08-16 12:37:08 GMT 50.903915 8.214581 38,000 289 419 0
2022-08-16 12:37:05 GMT 50.902081 8.223267 38,000 289 419 0
2022-08-16 12:37:02 GMT 50.899567 8.235168 38,000 289 419 0
2022-08-16 12:37:00 GMT 50.899567 8.235168 38,000 289 419 0
2022-08-16 12:36:58 GMT 50.898331 8.240934 38,000 289 419 0
2022-08-16 12:36:55 GMT 50.896500 8.249396 38,000 289 419 0
2022-08-16 12:36:53 GMT 50.894539 8.258667 38,000 289 419 0
2022-08-16 12:36:50 GMT 50.893158 8.265059 38,000 289 419 0
2022-08-16 12:36:48 GMT 50.892208 8.269653 38,000 289 419 0
2022-08-16 12:36:45 GMT 50.889313 8.283023 38,000 289 419 0
2022-08-16 12:36:42 GMT 50.888351 8.287700 38,000 289 420 0
2022-08-16 12:36:40 GMT 50.886719 8.295212 38,000 289 419 0
2022-08-16 12:36:37 GMT 50.884808 8.304214 38,000 289 419 0
2022-08-16 12:36:34 GMT 50.882248 8.316116 38,000 289 419 0
2022-08-16 12:36:31 GMT 50.880981 8.322218 38,000 289 419 0
2022-08-16 12:36:28 GMT 50.879425 8.329418 38,000 289 419 0
2022-08-16 12:36:26 GMT 50.876770 8.341889 38,000 289 419 0
2022-08-16 12:36:24 GMT 50.876770 8.341889 38,000 289 419 0
2022-08-16 12:36:21 GMT 50.874752 8.351212 38,000 289 419 0
2022-08-16 12:36:18 GMT 50.872696 8.361041 38,000 289 419 0
2022-08-16 12:36:15 GMT 50.871735 8.365421 38,000 289 419 0
2022-08-16 12:36:13 GMT 50.870144 8.372955 38,000 289 419 0
2022-08-16 12:36:10 GMT 50.866791 8.388655 38,000 289 420 0
2022-08-16 12:36:07 GMT 50.866791 8.388655 38,000 289 420 0
2022-08-16 12:36:05 GMT 50.865536 8.394470 38,000 289 420 0
2022-08-16 12:36:03 GMT 50.864182 8.400904 38,000 289 420 0
2022-08-16 12:36:01 GMT 50.862835 8.407288 38,000 289 420 0
2022-08-16 12:35:58 GMT 50.860462 8.418274 38,000 289 420 0
2022-08-16 12:35:55 GMT 50.859192 8.424138 38,000 289 420 0
2022-08-16 12:35:53 GMT 50.857910 8.430225 38,000 289 420 0
2022-08-16 12:35:50 GMT 50.855667 8.440628 38,000 289 420 0
2022-08-16 12:35:47 GMT 50.854202 8.447299 38,000 289 420 0
2022-08-16 12:35:45 GMT 50.851246 8.460999 38,000 289 420 0
2022-08-16 12:35:40 GMT 50.849335 8.470001 38,000 289 421 0
2022-08-16 12:35:38 GMT 50.848450 8.474045 38,000 289 421 0
2022-08-16 12:35:36 GMT 50.847240 8.479538 38,000 289 421 0
2022-08-16 12:35:34 GMT 50.845367 8.488275 38,000 289 421 0
2022-08-16 12:35:31 GMT 50.844170 8.493805 38,000 289 421 0
2022-08-16 12:35:29 GMT 50.843170 8.498444 38,000 289 421 0
2022-08-16 12:35:27 GMT 50.839977 8.513260 38,000 289 421 0
2022-08-16 12:35:25 GMT 50.839977 8.513260 38,000 289 421 0
2022-08-16 12:35:22 GMT 50.838161 8.521729 38,000 289 421 0
2022-08-16 12:35:19 GMT 50.836807 8.527840 38,000 289 421 0
2022-08-16 12:35:16 GMT 50.832855 8.546143 38,000 289 421 0
2022-08-16 12:35:13 GMT 50.832855 8.546143 38,000 289 421 0
2022-08-16 12:35:11 GMT 50.831223 8.553673 38,000 289 421 0
2022-08-16 12:35:09 GMT 50.830017 8.559189 38,000 290 423 0
2022-08-16 12:35:05 GMT 50.827595 8.570557 38,000 289 421 -64
2022-08-16 12:35:03 GMT 50.825958 8.578095 38,000 289 421 -64
2022-08-16 12:34:59 GMT 50.821030 8.600769 38,000 289 421 0
2022-08-16 12:34:55 GMT 50.821030 8.600769 38,000 289 421 0
2022-08-16 12:34:52 GMT 50.819401 8.608322 38,000 289 421 0
2022-08-16 12:34:50 GMT 50.818333 8.613281 38,000 289 421 0
2022-08-16 12:34:47 GMT 50.816097 8.623428 38,000 289 421 0
2022-08-16 12:34:45 GMT 50.814926 8.629018 38,000 289 421 0
2022-08-16 12:34:42 GMT 50.812958 8.638000 38,000 289 421 0
2022-08-16 12:34:38 GMT 50.807762 8.661880 38,000 289 421 0
2022-08-16 12:34:35 GMT 50.807762 8.661880 38,000 289 421 0
2022-08-16 12:34:31 GMT 50.806274 8.668807 38,000 289 421 0
2022-08-16 12:34:29 GMT 50.804489 8.676972 38,000 289 421 0
2022-08-16 12:34:26 GMT 50.803249 8.682785 38,000 289 421 0
2022-08-16 12:34:24 GMT 50.801991 8.688583 38,000 289 421 0
2022-08-16 12:34:22 GMT 50.800873 8.693823 38,000 289 421 0
2022-08-16 12:34:20 GMT 50.799545 8.699910 38,000 289 421 0
2022-08-16 12:34:18 GMT 50.798538 8.704587 38,000 289 421 0
2022-08-16 12:34:16 GMT 50.797012 8.711548 38,000 289 421 0
2022-08-16 12:34:14 GMT 50.795288 8.719406 38,000 289 421 0
2022-08-16 12:34:10 GMT 50.793194 8.729019 38,000 289 421 0
2022-08-16 12:34:07 GMT 50.790726 8.740387 38,000 289 421 0
2022-08-16 12:34:04 GMT 50.789005 8.748245 38,000 290 422 0
2022-08-16 12:34:01 GMT 50.787422 8.755493 38,000 290 422 0
2022-08-16 12:33:58 GMT 50.785233 8.765640 38,000 290 422 0
2022-08-16 12:33:56 GMT 50.783936 8.771470 38,000 290 422 0
2022-08-16 12:33:54 GMT 50.782719 8.777008 38,000 290 422 0
2022-08-16 12:33:52 GMT 50.780903 8.785477 38,000 290 422 0
2022-08-16 12:33:49 GMT 50.779320 8.792725 38,000 290 423 0
2022-08-16 12:33:46 GMT 50.777893 8.799084 38,000 290 423 0
2022-08-16 12:33:44 GMT 50.775875 8.808441 38,000 290 423 0
2022-08-16 12:33:41 GMT 50.773956 8.817122 38,000 290 423 0
2022-08-16 12:33:38 GMT 50.771545 8.828201 38,000 290 423 0
2022-08-16 12:33:34 GMT 50.769745 8.836348 38,000 290 423 0
2022-08-16 12:33:31 GMT 50.768566 8.841858 38,000 290 423 0
2022-08-16 12:33:29 GMT 50.765396 8.856168 38,000 290 423 0
2022-08-16 12:33:26 GMT 50.765396 8.856168 38,000 290 423 0
2022-08-16 12:33:23 GMT 50.763493 8.864899 38,000 290 423 0
2022-08-16 12:33:21 GMT 50.761539 8.873901 38,000 290 423 0
2022-08-16 12:33:18 GMT 50.759216 8.884376 38,000 290 423 0
2022-08-16 12:33:15 GMT 50.755920 8.899520 38,000 290 423 0
2022-08-16 12:33:12 GMT 50.755207 8.902664 38,000 290 424 0
2022-08-16 12:33:08 GMT 50.753204 8.911667 38,000 290 423 0
2022-08-16 12:33:05 GMT 50.750366 8.924789 38,000 290 424 0
2022-08-16 12:33:03 GMT 50.750366 8.924789 38,000 290 423 0
2022-08-16 12:33:01 GMT 50.749329 8.929435 38,000 290 423 0
2022-08-16 12:32:59 GMT 50.748047 8.935299 38,000 290 423 0
2022-08-16 12:32:57 GMT 50.746582 8.941980 38,000 290 423 0
2022-08-16 12:32:54 GMT 50.744339 8.952150 38,000 290 424 0
2022-08-16 12:32:51 GMT 50.742737 8.959499 38,000 290 424 0
2022-08-16 12:32:49 GMT 50.741318 8.965883 38,000 290 424 0
2022-08-16 12:32:47 GMT 50.740543 8.969421 38,000 290 424 0
2022-08-16 12:32:45 GMT 50.735886 8.990402 38,000 290 424 0
2022-08-16 12:32:42 GMT 50.734818 8.995353 38,000 290 424 0
2022-08-16 12:32:39 GMT 50.734818 8.995353 38,000 290 425 0
2022-08-16 12:32:36 GMT 50.733143 9.002914 38,000 290 425 0
2022-08-16 12:32:34 GMT 50.731792 9.009094 38,000 290 425 0
2022-08-16 12:32:31 GMT 50.729828 9.017845 38,000 290 425 0
2022-08-16 12:32:29 GMT 50.728226 9.025120 38,000 290 425 0
2022-08-16 12:32:26 GMT 50.726578 9.032440 38,000 290 426 0
2022-08-16 12:32:24 GMT 50.725368 9.038010 38,000 290 426 0
2022-08-16 12:32:21 GMT 50.722061 9.052963 38,000 290 426 0
2022-08-16 12:32:18 GMT 50.721130 9.057040 38,000 290 426 0
2022-08-16 12:32:16 GMT 50.717697 9.072554 38,000 290 426 0
2022-08-16 12:32:13 GMT 50.717697 9.072554 38,000 290 426 0
2022-08-16 12:32:11 GMT 50.716690 9.076934 38,000 290 426 0
2022-08-16 12:32:08 GMT 50.714493 9.086881 38,000 290 426 0
2022-08-16 12:32:05 GMT 50.713120 9.093042 38,000 290 426 0
2022-08-16 12:32:03 GMT 50.711449 9.100647 38,000 290 426 0
2022-08-16 12:32:00 GMT 50.707539 9.118195 38,000 290 426 -64
2022-08-16 12:31:57 GMT 50.707539 9.118195 38,000 290 426 -64
2022-08-16 12:31:54 GMT 50.705490 9.127274 38,000 290 426 -64
2022-08-16 12:31:51 GMT 50.701996 9.143075 38,000 290 426 0
2022-08-16 12:31:48 GMT 50.701996 9.143075 38,000 290 426 0
2022-08-16 12:31:46 GMT 50.700348 9.150424 38,000 290 426 0
2022-08-16 12:31:42 GMT 50.697994 9.160995 38,000 290 426 0
2022-08-16 12:31:40 GMT 50.696548 9.167423 38,000 290 426 0
2022-08-16 12:31:37 GMT 50.694946 9.174697 38,000 290 426 0
2022-08-16 12:31:35 GMT 50.693710 9.180298 38,000 290 426 0
2022-08-16 12:31:33 GMT 50.691605 9.189618 38,000 290 426 0
2022-08-16 12:31:30 GMT 50.689011 9.201355 38,000 290 426 0
2022-08-16 12:31:27 GMT 50.686634 9.211884 38,000 290 426 0
2022-08-16 12:31:25 GMT 50.686634 9.211884 38,000 290 426 0
2022-08-16 12:31:23 GMT 50.685333 9.217758 38,000 290 426 0
2022-08-16 12:31:20 GMT 50.683331 9.226837 38,000 290 426 0
2022-08-16 12:31:17 GMT 50.681625 9.234380 38,000 290 426 0
2022-08-16 12:31:15 GMT 50.680073 9.241409 38,000 290 426 0
2022-08-16 12:31:12 GMT 50.677650 9.252243 38,000 290 423 0
2022-08-16 12:31:09 GMT 50.676487 9.257507 38,000 290 426 0
2022-08-16 12:31:07 GMT 50.673229 9.272156 38,000 290 426 0
2022-08-16 12:31:05 GMT 50.673229 9.272156 38,000 290 426 0
2022-08-16 12:31:02 GMT 50.671318 9.280626 38,000 290 426 0
2022-08-16 12:30:59 GMT 50.670017 9.286491 38,000 290 426 0
2022-08-16 12:30:57 GMT 50.668667 9.292652 38,000 290 426 0
2022-08-16 12:30:54 GMT 50.664894 9.309577 38,000 290 426 0
2022-08-16 12:30:52 GMT 50.664894 9.309577 38,000 290 426 0
2022-08-16 12:30:50 GMT 50.662537 9.320092 38,000 290 425 0
2022-08-16 12:30:45 GMT 50.661026 9.326814 38,000 290 426 0
2022-08-16 12:30:42 GMT 50.656677 9.346040 38,000 290 426 0
2022-08-16 12:30:39 GMT 50.656677 9.346040 38,000 290 426 0
2022-08-16 12:30:37 GMT 50.655350 9.351895 38,000 290 426 0
2022-08-16 12:30:35 GMT 50.654327 9.356566 38,000 290 426 0
2022-08-16 12:30:33 GMT 50.649532 9.377573 38,000 290 425 0
2022-08-16 12:30:30 GMT 50.649532 9.377573 38,000 290 425 0
2022-08-16 12:30:27 GMT 50.646973 9.388931 38,000 290 425 0
2022-08-16 12:30:24 GMT 50.646973 9.388931 38,000 290 425 0
2022-08-16 12:30:22 GMT 50.645344 9.396206 38,000 290 425 0
2022-08-16 12:30:20 GMT 50.644730 9.398804 38,000 290 425 0
2022-08-16 12:30:17 GMT 50.642029 9.410730 38,000 290 425 0
2022-08-16 12:30:14 GMT 50.640594 9.417139 38,000 290 425 0
2022-08-16 12:30:12 GMT 50.638596 9.425908 38,000 290 425 0
2022-08-16 12:30:09 GMT 50.637383 9.431466 38,000 290 425 0
2022-08-16 12:30:07 GMT 50.633652 9.448025 38,000 290 425 0
2022-08-16 12:30:04 GMT 50.633652 9.448025 38,000 290 425 0
2022-08-16 12:30:01 GMT 50.631935 9.455591 38,000 290 423 0
2022-08-16 12:29:58 GMT 50.630356 9.462553 38,000 290 425 0
2022-08-16 12:29:56 GMT 50.628632 9.470141 38,000 290 425 0
2022-08-16 12:29:54 GMT 50.626923 9.477732 38,000 290 425 0
2022-08-16 12:29:51 GMT 50.624580 9.488179 38,000 290 425 0
2022-08-16 12:29:48 GMT 50.623371 9.493375 38,000 290 425 0
2022-08-16 12:29:45 GMT 50.621090 9.503545 38,000 290 424 0
2022-08-16 12:29:43 GMT 50.620113 9.507925 38,000 290 424 0
2022-08-16 12:29:40 GMT 50.617413 9.519802 38,000 290 424 0
2022-08-16 12:29:37 GMT 50.613144 9.538663 38,000 290 424 0
2022-08-16 12:29:34 GMT 50.613144 9.538663 38,000 290 424 0
2022-08-16 12:29:31 GMT 50.612011 9.543630 38,000 290 424 0
2022-08-16 12:29:28 GMT 50.610443 9.550589 38,000 290 424 0
2022-08-16 12:29:26 GMT 50.608425 9.559293 38,000 290 424 0
2022-08-16 12:29:23 GMT 50.606426 9.568275 38,000 290 423 0
2022-08-16 12:29:20 GMT 50.602890 9.583620 38,000 290 423 0
2022-08-16 12:29:17 GMT 50.602890 9.583620 38,000 290 423 0
2022-08-16 12:29:14 GMT 50.600464 9.594317 38,000 290 423 0
2022-08-16 12:29:12 GMT 50.599861 9.596929 38,000 290 423 0
2022-08-16 12:29:09 GMT 50.597301 9.608212 38,000 290 423 0
2022-08-16 12:29:06 GMT 50.595612 9.615711 38,000 290 423 0
2022-08-16 12:29:03 GMT 50.593857 9.623281 38,000 290 423 0
2022-08-16 12:29:01 GMT 50.592361 9.629878 38,000 290 423 0
2022-08-16 12:28:57 GMT 50.589340 9.643177 38,000 290 423 -64
2022-08-16 12:28:55 GMT 50.587990 9.648965 38,000 290 423 -64
2022-08-16 12:28:52 GMT 50.586777 9.654453 38,000 290 423 0
2022-08-16 12:28:49 GMT 50.582172 9.674724 38,000 290 423 0
2022-08-16 12:28:46 GMT 50.582172 9.674724 38,000 290 423 0
2022-08-16 12:28:44 GMT 50.580505 9.681918 38,000 290 422 0
2022-08-16 12:28:40 GMT 50.576569 9.699265 38,000 290 422 -64
2022-08-16 12:28:36 GMT 50.575516 9.703897 38,000 290 422 0
2022-08-16 12:28:34 GMT 50.574692 9.707650 38,000 290 422 -64
2022-08-16 12:28:32 GMT 50.570892 9.724346 38,000 290 422 0
2022-08-16 12:28:29 GMT 50.570892 9.724346 38,000 290 422 0
2022-08-16 12:28:26 GMT 50.567928 9.737301 38,000 290 422 0
2022-08-16 12:28:24 GMT 50.566681 9.742777 38,000 290 422 64
2022-08-16 12:28:22 GMT 50.566681 9.742777 38,000 290 422 64
2022-08-16 12:28:19 GMT 50.564716 9.751480 38,000 290 421 0
2022-08-16 12:28:16 GMT 50.562668 9.760388 38,000 290 421 0
2022-08-16 12:28:13 GMT 50.560684 9.769014 38,000 290 421 -64
2022-08-16 12:28:10 GMT 50.558662 9.777980 38,000 290 421 -64
2022-08-16 12:28:08 GMT 50.557434 9.783397 38,000 290 421 -64
2022-08-16 12:28:06 GMT 50.555374 9.792360 38,000 290 421 0
2022-08-16 12:28:03 GMT 50.553913 9.798691 38,000 290 421 0
2022-08-16 12:28:00 GMT 50.552006 9.807005 38,000 290 422 64
2022-08-16 12:27:58 GMT 50.550701 9.812795 38,000 290 422 64
2022-08-16 12:27:56 GMT 50.547318 9.827415 38,000 290 422 64
2022-08-16 12:27:53 GMT 50.547318 9.827415 38,000 290 422 0
2022-08-16 12:27:50 GMT 50.545120 9.836956 38,000 290 422 0
2022-08-16 12:27:48 GMT 50.543392 9.844418 38,000 290 422 0
2022-08-16 12:27:44 GMT 50.540043 9.859042 38,000 290 422 0
2022-08-16 12:27:40 GMT 50.538574 9.865361 38,000 290 422 0
2022-08-16 12:27:37 GMT 50.535526 9.878639 38,000 290 422 0
2022-08-16 12:27:35 GMT 50.533199 9.888660 38,000 290 422 0
2022-08-16 12:27:32 GMT 50.531845 9.894417 38,000 290 422 -64
2022-08-16 12:27:29 GMT 50.531845 9.894417 38,000 290 422 0
2022-08-16 12:27:27 GMT 50.530472 9.900489 38,000 290 422 0
2022-08-16 12:27:24 GMT 50.528275 9.909957 38,000 290 422 0
2022-08-16 12:27:21 GMT 50.526356 9.918279 38,000 290 422 -64
2022-08-16 12:27:18 GMT 50.524109 9.928099 38,000 290 422 0
2022-08-16 12:27:15 GMT 50.522278 9.935833 38,000 290 422 0
2022-08-16 12:27:12 GMT 50.520355 9.944145 38,000 290 421 0
2022-08-16 12:27:09 GMT 50.518536 9.952203 38,000 290 421 0
2022-08-16 12:27:07 GMT 50.517197 9.957950 38,000 290 421 0
2022-08-16 12:27:05 GMT 50.515091 9.967123 38,000 290 421 0
2022-08-16 12:27:02 GMT 50.513554 9.973730 38,000 290 421 0
2022-08-16 12:26:59 GMT 50.511658 9.982091 38,000 290 422 0
2022-08-16 12:26:57 GMT 50.510513 9.986934 38,000 290 422 64
2022-08-16 12:26:55 GMT 50.509270 9.992437 38,000 290 422 64
2022-08-16 12:26:53 GMT 50.507874 9.998449 38,000 290 422 0
2022-08-16 12:26:48 GMT 50.502663 10.020867 38,000 290 422 -128
2022-08-16 12:26:44 GMT 50.499962 10.032596 38,025 290 421 -128
2022-08-16 12:26:42 GMT 50.499962 10.032596 38,025 290 421 -64
2022-08-16 12:26:39 GMT 50.498283 10.039797 38,025 291 420 384
2022-08-16 12:26:36 GMT 50.496689 10.046636 38,000 291 420 384
2022-08-16 12:26:34 GMT 50.494629 10.055526 37,975 291 420 384
2022-08-16 12:26:31 GMT 50.491653 10.068391 37,950 291 420 384
2022-08-16 12:26:29 GMT 50.491653 10.068391 37,950 291 420 384
2022-08-16 12:26:27 GMT 50.490322 10.074092 37,900 291 420 384
2022-08-16 12:26:24 GMT 50.488136 10.083519 37,925 290 419 448
2022-08-16 12:26:21 GMT 50.484879 10.097549 37,900 291 417 576
2022-08-16 12:26:19 GMT 50.484879 10.097549 37,875 291 419 448
2022-08-16 12:26:16 GMT 50.483185 10.104892 37,875 291 419 448
2022-08-16 12:26:13 GMT 50.479797 10.119420 37,825 290 418 512
2022-08-16 12:26:11 GMT 50.479797 10.119420 37,800 290 418 512
2022-08-16 12:26:08 GMT 50.478359 10.125683 37,800 290 418 512
2022-08-16 12:26:06 GMT 50.476227 10.134743 37,750 291 417 512
2022-08-16 12:26:02 GMT 50.473984 10.144389 37,750 291 417 576
2022-08-16 12:26:00 GMT 50.472748 10.149777 37,700 291 417 512
2022-08-16 12:25:57 GMT 50.470505 10.159462 37,675 291 417 512
2022-08-16 12:25:55 GMT 50.469452 10.164016 37,675 291 417 512
2022-08-16 12:25:53 GMT 50.468445 10.168218 37,650 291 416 512
2022-08-16 12:25:51 GMT 50.466396 10.176977 37,650 291 416 512
2022-08-16 12:25:48 GMT 50.463882 10.187741 37,600 291 416 640
2022-08-16 12:25:44 GMT 50.460346 10.202736 37,550 291 416 640
2022-08-16 12:25:40 GMT 50.457504 10.214910 37,500 291 416 640
2022-08-16 12:25:37 GMT 50.457504 10.214910 37,425 291 415 640
2022-08-16 12:25:34 GMT 50.454899 10.226193 37,450 291 415 640
2022-08-16 12:25:31 GMT 50.453613 10.231524 37,400 291 415 768
2022-08-16 12:25:29 GMT 50.452152 10.237773 37,400 291 415 768
2022-08-16 12:25:26 GMT 50.450104 10.246533 36,825 291 415 832
2022-08-16 12:25:24 GMT 50.448708 10.252397 37,275 291 415 768
2022-08-16 12:25:21 GMT 50.446335 10.262604 37,275 291 415 768
2022-08-16 12:25:18 GMT 50.444687 10.269615 37,275 291 415 768
2022-08-16 12:25:16 GMT 50.442856 10.277493 37,200 291 416 0
2022-08-16 12:25:13 GMT 50.441849 10.281758 37,200 291 415 960
2022-08-16 12:25:11 GMT 50.439861 10.290255 37,150 291 415 1024
2022-08-16 12:25:08 GMT 50.438000 10.298124 37,100 291 416 1024
2022-08-16 12:25:06 GMT 50.434834 10.311708 36,900 291 416 1024
2022-08-16 12:25:03 GMT 50.434834 10.311708 36,975 291 416 1024
2022-08-16 12:25:00 GMT 50.432880 10.319874 36,900 291 416 1024
2022-08-16 12:24:57 GMT 50.430634 10.329461 36,875 291 417 896
2022-08-16 12:24:54 GMT 50.426468 10.347025 36,825 291 417 896
2022-08-16 12:24:51 GMT 50.426468 10.347025 36,800 291 417 960
2022-08-16 12:24:49 GMT 50.425896 10.349566 36,750 291 417 896
2022-08-16 12:24:46 GMT 50.423630 10.359240 36,750 291 417 896
2022-08-16 12:24:43 GMT 50.419518 10.376513 36,600 291 418 960
2022-08-16 12:24:40 GMT 50.419518 10.376513 36,625 291 418 1024
2022-08-16 12:24:37 GMT 50.416771 10.388093 36,575 291 418 1024
2022-08-16 12:24:34 GMT 50.415237 10.394625 36,550 291 418 1024
2022-08-16 12:24:32 GMT 50.414337 10.398270 36,450 291 418 1024
2022-08-16 12:24:29 GMT 50.412163 10.407319 36,475 291 418 1024
2022-08-16 12:24:26 GMT 50.410114 10.416153 36,425 291 419 1024
2022-08-16 12:24:23 GMT 50.408066 10.424652 36,350 291 419 1024
2022-08-16 12:24:19 GMT 50.405369 10.435972 36,200 291 419 1024
2022-08-16 12:24:16 GMT 50.402618 10.447637 36,200 291 419 1024
2022-08-16 12:24:13 GMT 50.401291 10.453274 36,175 291 419 960
2022-08-16 12:24:10 GMT 50.397125 10.470861 36,100 291 419 896
2022-08-16 12:24:07 GMT 50.397125 10.470861 36,075 291 419 896
2022-08-16 12:24:05 GMT 50.396118 10.475175 36,050 291 419 704
2022-08-16 12:24:02 GMT 50.393600 10.485655 36,025 291 419 448
2022-08-16 12:24:00 GMT 50.392319 10.491004 36,025 291 417 320
2022-08-16 12:23:57 GMT 50.390469 10.498995 36,025 291 417 192
2022-08-16 12:23:53 GMT 50.387924 10.509724 36,000 291 416 0
2022-08-16 12:23:50 GMT 50.385769 10.518741 36,000 291 416 0
2022-08-16 12:23:48 GMT 50.384697 10.523269 36,000 291 416 0
2022-08-16 12:23:45 GMT 50.380875 10.539286 36,000 291 416 0
2022-08-16 12:23:42 GMT 50.380875 10.539286 36,000 291 416 0
2022-08-16 12:23:40 GMT 50.378880 10.547766 36,000 291 416 0
2022-08-16 12:23:37 GMT 50.376831 10.556451 36,000 291 416 0
2022-08-16 12:23:35 GMT 50.373058 10.572262 36,000 291 416 0
2022-08-16 12:23:32 GMT 50.373058 10.572262 36,000 291 416 0
2022-08-16 12:23:29 GMT 50.370392 10.583520 36,000 291 416 0
2022-08-16 12:23:25 GMT 50.368790 10.590242 36,000 291 416 0
2022-08-16 12:23:22 GMT 50.367100 10.597278 36,000 291 416 0
2022-08-16 12:23:19 GMT 50.364819 10.606854 36,000 291 416 0
2022-08-16 12:23:16 GMT 50.363144 10.613906 36,000 291 416 0
2022-08-16 12:23:13 GMT 50.360352 10.625709 36,000 291 416 0
2022-08-16 12:23:10 GMT 50.358673 10.632742 36,000 291 416 0
2022-08-16 12:23:07 GMT 50.357327 10.638329 36,000 291 416 0
2022-08-16 12:23:05 GMT 50.353638 10.653775 36,000 291 416 0
2022-08-16 12:23:02 GMT 50.353638 10.653775 36,000 291 416 0
2022-08-16 12:22:58 GMT 50.349289 10.672061 36,000 291 416 0
2022-08-16 12:22:51 GMT 50.344620 10.691432 36,000 291 416 0
2022-08-16 12:22:48 GMT 50.344620 10.691432 36,000 291 416 0
2022-08-16 12:22:46 GMT 50.342972 10.698515 36,000 291 416 0
2022-08-16 12:22:44 GMT 50.341324 10.705237 36,000 291 416 0
2022-08-16 12:22:41 GMT 50.340008 10.710853 36,000 291 416 0
2022-08-16 12:22:39 GMT 50.337845 10.719837 36,000 291 416 0
2022-08-16 12:22:36 GMT 50.336098 10.727184 36,000 291 416 0
2022-08-16 12:22:34 GMT 50.334469 10.733940 36,000 291 416 0
2022-08-16 12:22:31 GMT 50.330521 10.750483 36,000 291 416 0
2022-08-16 12:22:28 GMT 50.330521 10.750483 36,000 291 416 0
2022-08-16 12:22:25 GMT 50.328789 10.757768 36,000 291 416 0
2022-08-16 12:22:22 GMT 50.327042 10.765084 36,000 291 416 0
2022-08-16 12:22:19 GMT 50.322456 10.784195 36,000 291 415 0
2022-08-16 12:22:15 GMT 50.322456 10.784195 36,000 291 416 0
2022-08-16 12:22:13 GMT 50.320724 10.791465 36,000 291 415 0
2022-08-16 12:22:10 GMT 50.319031 10.798549 36,000 291 415 0
2022-08-16 12:22:07 GMT 50.314590 10.817052 36,000 291 415 0
2022-08-16 12:22:04 GMT 50.314590 10.817052 36,000 291 415 0
2022-08-16 12:22:00 GMT 50.312122 10.827398 36,000 291 415 0
2022-08-16 12:21:57 GMT 50.310352 10.834746 36,000 291 415 0
2022-08-16 12:21:55 GMT 50.308537 10.842318 36,000 291 415 0
2022-08-16 12:21:52 GMT 50.305977 10.852933 36,000 291 415 0
2022-08-16 12:21:49 GMT 50.303604 10.862806 36,000 291 415 0
2022-08-16 12:21:47 GMT 50.301727 10.870610 36,000 291 415 0
2022-08-16 12:21:45 GMT 50.301727 10.870610 36,000 291 415 0
2022-08-16 12:21:42 GMT 50.299347 10.880440 36,000 291 415 0
2022-08-16 12:21:39 GMT 50.297379 10.888535 36,000 291 415 0
2022-08-16 12:21:36 GMT 50.294292 10.901481 36,000 291 415 0
2022-08-16 12:21:33 GMT 50.294292 10.901481 36,000 291 414 0
2022-08-16 12:21:30 GMT 50.291687 10.912096 36,000 291 415 0
2022-08-16 12:21:27 GMT 50.289963 10.919371 36,000 291 415 0
2022-08-16 12:21:25 GMT 50.288315 10.926120 36,000 291 415 0
2022-08-16 12:21:22 GMT 50.286072 10.935372 36,000 291 414 0
2022-08-16 12:21:19 GMT 50.284752 10.940972 36,000 291 414 0
2022-08-16 12:21:17 GMT 50.281258 10.955225 36,000 291 414 0
2022-08-16 12:21:14 GMT 50.281258 10.955225 36,000 291 414 0
2022-08-16 12:21:12 GMT 50.279861 10.961089 36,000 291 414 0
2022-08-16 12:21:09 GMT 50.277786 10.969487 36,000 291 414 0
2022-08-16 12:21:06 GMT 50.275208 10.980093 36,000 291 414 0
2022-08-16 12:21:04 GMT 50.274555 10.982839 36,000 291 414 0
2022-08-16 12:21:02 GMT 50.272831 10.989891 36,000 291 414 0
2022-08-16 12:20:59 GMT 50.270737 10.998502 36,000 291 414 0
2022-08-16 12:20:56 GMT 50.268364 11.008301 36,000 291 414 0
2022-08-16 12:20:53 GMT 50.266754 11.014950 36,000 291 413 0
2022-08-16 12:20:50 GMT 50.264687 11.023370 36,000 291 413 0
2022-08-16 12:20:48 GMT 50.263474 11.028418 36,000 291 414 0
2022-08-16 12:20:45 GMT 50.261078 11.038152 36,000 291 414 0
2022-08-16 12:20:42 GMT 50.259380 11.045120 36,000 291 413 0
2022-08-16 12:20:39 GMT 50.256958 11.055137 36,000 291 413 0
2022-08-16 12:20:37 GMT 50.255493 11.060992 36,000 291 413 0
2022-08-16 12:20:35 GMT 50.252537 11.073254 36,000 291 413 0
2022-08-16 12:20:32 GMT 50.252537 11.073254 36,000 291 413 0
2022-08-16 12:20:29 GMT 50.248764 11.088602 36,000 291 413 0
2022-08-16 12:20:27 GMT 50.248764 11.088602 36,000 291 413 0
2022-08-16 12:20:24 GMT 50.247368 11.094484 36,000 291 413 0
2022-08-16 12:20:22 GMT 50.245285 11.102841 36,000 291 413 0
2022-08-16 12:20:19 GMT 50.243549 11.110073 36,000 291 413 0
2022-08-16 12:20:17 GMT 50.242107 11.115937 36,000 291 413 0
2022-08-16 12:20:15 GMT 50.240433 11.122915 36,000 291 413 0
2022-08-16 12:20:12 GMT 50.238430 11.130932 36,000 291 413 0
2022-08-16 12:20:09 GMT 50.236427 11.139320 36,000 291 413 0
2022-08-16 12:20:06 GMT 50.234428 11.147337 36,000 291 413 0
2022-08-16 12:20:03 GMT 50.233124 11.152682 36,000 291 413 0
2022-08-16 12:20:01 GMT 50.231308 11.160179 36,000 291 413 0
2022-08-16 12:19:58 GMT 50.229771 11.166563 36,000 291 413 0
2022-08-16 12:19:56 GMT 50.226421 11.180222 36,000 291 413 0
2022-08-16 12:19:51 GMT 50.224606 11.187719 36,000 291 413 0
2022-08-16 12:19:48 GMT 50.222507 11.196330 36,000 291 413 0
2022-08-16 12:19:45 GMT 50.220276 11.205535 36,000 291 413 0
2022-08-16 12:19:42 GMT 50.217957 11.214945 36,000 291 413 0
2022-08-16 12:19:39 GMT 50.216457 11.221050 36,000 291 413 0
2022-08-16 12:19:37 GMT 50.215439 11.225208 36,000 291 413 0
2022-08-16 12:19:35 GMT 50.213852 11.231887 36,000 291 413 0
2022-08-16 12:19:33 GMT 50.211849 11.239979 36,000 292 412 0
2022-08-16 12:19:30 GMT 50.209892 11.247996 36,000 291 413 0
2022-08-16 12:19:27 GMT 50.208298 11.254698 36,000 291 413 0
2022-08-16 12:19:24 GMT 50.205982 11.264104 36,000 292 412 0
2022-08-16 12:19:21 GMT 50.204262 11.271082 36,000 291 413 0
2022-08-16 12:19:18 GMT 50.202400 11.278802 36,000 292 412 0
2022-08-16 12:19:15 GMT 50.200211 11.287710 36,000 292 412 0
2022-08-16 12:19:12 GMT 50.197815 11.297415 36,000 291 412 0
2022-08-16 12:19:09 GMT 50.196030 11.304570 36,000 292 412 0
2022-08-16 12:19:07 GMT 50.194656 11.310136 36,000 292 412 0
2022-08-16 12:19:05 GMT 50.192825 11.317653 36,000 292 412 0
2022-08-16 12:19:01 GMT 50.190582 11.326760 36,000 292 412 64
2022-08-16 12:18:58 GMT 50.188805 11.333956 36,000 291 412 0
2022-08-16 12:18:55 GMT 50.186386 11.343681 36,000 291 412 0
2022-08-16 12:18:52 GMT 50.184769 11.350323 36,000 292 412 0
2022-08-16 12:18:49 GMT 50.182194 11.360828 36,000 292 412 0
2022-08-16 12:18:47 GMT 50.181107 11.365284 36,000 292 412 0
2022-08-16 12:18:44 GMT 50.179459 11.371934 36,000 292 412 0
2022-08-16 12:18:42 GMT 50.177120 11.381316 36,000 292 412 0
2022-08-16 12:18:39 GMT 50.173306 11.396831 36,000 292 412 0
2022-08-16 12:18:36 GMT 50.173306 11.396831 36,000 292 412 0
2022-08-16 12:18:33 GMT 50.168610 11.415951 36,000 292 412 0
2022-08-16 12:18:29 GMT 50.168610 11.415951 36,000 292 412 0
2022-08-16 12:18:26 GMT 50.166412 11.424816 36,000 292 412 0
2022-08-16 12:18:22 GMT 50.161789 11.443345 36,000 292 412 0
2022-08-16 12:18:16 GMT 50.159477 11.452727 36,000 292 412 0
2022-08-16 12:18:13 GMT 50.157257 11.461559 36,000 292 412 0
2022-08-16 12:18:10 GMT 50.154922 11.470955 36,000 292 412 0
2022-08-16 12:18:07 GMT 50.151672 11.483965 36,000 292 412 0
2022-08-16 12:18:04 GMT 50.151672 11.483965 36,000 292 412 0
2022-08-16 12:18:02 GMT 50.150391 11.489169 36,000 292 412 0
2022-08-16 12:18:00 GMT 50.148926 11.495024 36,000 292 412 0
2022-08-16 12:17:57 GMT 50.145996 11.506878 36,000 292 412 -64
2022-08-16 12:17:54 GMT 50.142654 11.520177 36,000 292 411 0
2022-08-16 12:17:51 GMT 50.142654 11.520177 36,000 292 411 0
2022-08-16 12:17:48 GMT 50.140347 11.529558 36,000 292 411 0
2022-08-16 12:17:45 GMT 50.138481 11.536981 36,000 292 412 0
2022-08-16 12:17:42 GMT 50.136108 11.546342 36,000 292 412 0
2022-08-16 12:17:39 GMT 50.134415 11.553280 36,000 292 412 0
2022-08-16 12:17:36 GMT 50.130615 11.568459 36,000 292 412 0
2022-08-16 12:17:34 GMT 50.130615 11.568459 36,000 292 412 0
2022-08-16 12:17:31 GMT 50.128056 11.578699 36,000 292 412 0
2022-08-16 12:17:28 GMT 50.126938 11.583079 36,000 292 412 0
2022-08-16 12:17:25 GMT 50.123840 11.595491 36,000 292 412 -64
2022-08-16 12:17:22 GMT 50.122879 11.599394 36,000 292 412 -64
2022-08-16 12:17:20 GMT 50.121597 11.604309 36,000 292 413 0
2022-08-16 12:17:17 GMT 50.119308 11.613416 36,000 292 412 0
2022-08-16 12:17:14 GMT 50.117256 11.621754 36,000 292 412 0
2022-08-16 12:17:11 GMT 50.114368 11.633334 36,000 292 412 0
2022-08-16 12:17:08 GMT 50.112854 11.639364 36,000 292 412 0
2022-08-16 12:17:05 GMT 50.107525 11.660651 36,000 292 412 0
2022-08-16 12:17:02 GMT 50.107525 11.660651 36,000 292 413 0
2022-08-16 12:16:58 GMT 50.106033 11.666758 36,000 292 412 0
2022-08-16 12:16:55 GMT 50.103195 11.678105 36,000 292 413 0
2022-08-16 12:16:52 GMT 50.101707 11.684183 36,000 292 414 0
2022-08-16 12:16:50 GMT 50.100677 11.688297 36,000 292 413 0
2022-08-16 12:16:47 GMT 50.098587 11.696654 36,000 292 414 0
2022-08-16 12:16:45 GMT 50.097145 11.702444 36,000 292 414 0
2022-08-16 12:16:42 GMT 50.093605 11.716548 36,000 292 414 0
2022-08-16 12:16:37 GMT 50.091045 11.726792 36,000 292 414 0
2022-08-16 12:16:34 GMT 50.088638 11.736506 36,000 292 414 0
2022-08-16 12:16:31 GMT 50.087952 11.739253 36,000 292 414 0
2022-08-16 12:16:28 GMT 50.085251 11.750095 36,000 292 414 0
2022-08-16 12:16:26 GMT 50.084473 11.753130 36,000 292 414 -64
2022-08-16 12:16:23 GMT 50.081680 11.764189 36,000 292 414 0
2022-08-16 12:16:21 GMT 50.079941 11.771128 36,000 292 414 0
2022-08-16 12:16:17 GMT 50.075405 11.789147 36,000 292 414 -64
2022-08-16 12:16:14 GMT 50.072983 11.798797 36,000 292 414 0
2022-08-16 12:16:10 GMT 50.070797 11.807408 36,000 292 414 0
2022-08-16 12:16:07 GMT 50.070797 11.807408 36,000 292 414 64
2022-08-16 12:16:04 GMT 50.068794 11.815425 36,000 292 414 64
2022-08-16 12:16:01 GMT 50.066746 11.823442 36,000 292 414 64
2022-08-16 12:15:59 GMT 50.064972 11.830685 36,000 292 415 -64
2022-08-16 12:15:56 GMT 50.063507 11.836468 36,000 292 414 0
2022-08-16 12:15:53 GMT 50.058563 11.856127 36,000 292 414 -64
2022-08-16 12:15:50 GMT 50.056831 11.863082 36,000 292 415 0
2022-08-16 12:15:47 GMT 50.056831 11.863082 36,000 292 415 0
2022-08-16 12:15:44 GMT 50.054993 11.870294 36,000 292 415 0
2022-08-16 12:15:41 GMT 50.051708 11.883273 36,000 292 415 0
2022-08-16 12:15:37 GMT 50.049774 11.891038 36,000 292 415 64
2022-08-16 12:15:35 GMT 50.048729 11.895224 36,000 292 415 0
2022-08-16 12:15:32 GMT 50.046249 11.904915 36,000 292 415 0
2022-08-16 12:15:29 GMT 50.041809 11.922696 36,000 292 415 0
2022-08-16 12:15:26 GMT 50.041809 11.922696 36,000 292 415 0
2022-08-16 12:15:23 GMT 50.037735 11.938742 36,000 292 415 0
2022-08-16 12:15:20 GMT 50.037735 11.938742 36,000 292 415 0
2022-08-16 12:15:17 GMT 50.033890 11.953992 36,000 292 415 0
2022-08-16 12:15:14 GMT 50.033890 11.953992 36,000 292 415 0
2022-08-16 12:15:12 GMT 50.032150 11.960931 36,000 292 415 0
2022-08-16 12:15:09 GMT 50.030228 11.968448 36,000 292 415 0
2022-08-16 12:15:06 GMT 50.027344 11.979796 36,000 292 415 0
2022-08-16 12:15:03 GMT 50.026245 11.984228 36,000 292 415 0
2022-08-16 12:15:00 GMT 50.023727 11.994251 36,000 292 415 0
2022-08-16 12:14:57 GMT 50.021530 12.002780 36,000 292 415 0
2022-08-16 12:14:55 GMT 50.020569 12.006683 36,000 292 415 0
2022-08-16 12:14:52 GMT 50.015816 12.025278 36,000 292 415 0
2022-08-16 12:14:49 GMT 50.015816 12.025278 36,000 292 416 0
2022-08-16 12:14:46 GMT 50.014435 12.030824 36,000 292 416 0
2022-08-16 12:14:43 GMT 50.011768 12.041387 36,000 292 416 0
2022-08-16 12:14:40 GMT 50.009720 12.049404 36,000 292 416 0
2022-08-16 12:14:36 GMT 50.006878 12.060464 36,000 292 416 0
2022-08-16 12:14:33 GMT 50.005280 12.066891 36,000 292 416 0
2022-08-16 12:14:30 GMT 50.002502 12.077686 36,000 292 416 0
2022-08-16 12:14:27 GMT 50.000271 12.086520 36,000 292 416 0
2022-08-16 12:14:24 GMT 49.998501 12.093498 36,000 292 416 0
2022-08-16 12:14:21 GMT 49.996033 12.103148 36,000 292 416 0
2022-08-16 12:14:18 GMT 49.993881 12.111487 36,000 292 416 0
2022-08-16 12:14:15 GMT 49.992554 12.116763 36,000 292 416 0
2022-08-16 12:14:13 GMT 49.990864 12.123413 36,000 292 416 0
2022-08-16 12:14:10 GMT 49.988956 12.130836 36,000 292 416 0
2022-08-16 12:14:08 GMT 49.987289 12.137507 36,000 292 416 0
2022-08-16 12:14:05 GMT 49.985596 12.144157 36,000 292 416 0
2022-08-16 12:14:02 GMT 49.980698 12.163239 36,000 292 416 0
2022-08-16 12:13:59 GMT 49.978668 12.171293 36,000 292 416 0
2022-08-16 12:13:56 GMT 49.978668 12.171293 36,000 292 416 64
2022-08-16 12:13:53 GMT 49.976154 12.181017 36,000 292 416 64
2022-08-16 12:13:50 GMT 49.974472 12.187596 36,000 292 415 0
2022-08-16 12:13:46 GMT 49.972057 12.197051 36,000 292 415 0
2022-08-16 12:13:44 GMT 49.967880 12.213328 36,000 292 415 0
2022-08-16 12:13:41 GMT 49.967880 12.213328 36,000 292 415 -64
2022-08-16 12:13:38 GMT 49.965588 12.222216 36,000 292 415 0
2022-08-16 12:13:35 GMT 49.964172 12.227711 36,000 292 415 0
2022-08-16 12:13:32 GMT 49.961975 12.236240 36,000 292 415 0
2022-08-16 12:13:28 GMT 49.958977 12.247826 36,000 292 415 0
2022-08-16 12:13:25 GMT 49.956882 12.255843 36,000 292 415 0
2022-08-16 12:13:22 GMT 49.954605 12.264645 36,000 292 415 0
2022-08-16 12:13:19 GMT 49.952183 12.274030 36,000 292 415 0
2022-08-16 12:13:16 GMT 49.950413 12.280933 36,000 292 415 0
2022-08-16 12:13:13 GMT 49.945816 12.298905 36,000 292 415 0
2022-08-16 12:13:10 GMT 49.945816 12.298905 36,000 292 415 0
2022-08-16 12:13:07 GMT 49.942219 12.313001 36,000 292 414 0
2022-08-16 12:13:04 GMT 49.942219 12.313001 36,000 292 414 64
2022-08-16 12:13:01 GMT 49.939087 12.325070 36,000 292 414 0
2022-08-16 12:12:58 GMT 49.935562 12.338611 36,000 292 414 64
2022-08-16 12:12:55 GMT 49.935562 12.338611 36,000 292 414 64
2022-08-16 12:12:52 GMT 49.932674 12.349895 36,000 292 415 64
2022-08-16 12:12:48 GMT 49.930801 12.357089 36,000 292 415 0
2022-08-16 12:12:45 GMT 49.925446 12.377689 36,000 292 414 -64
2022-08-16 12:12:42 GMT 49.925446 12.377689 36,000 292 414 -64
2022-08-16 12:12:39 GMT 49.924110 12.382928 36,000 292 414 -64
2022-08-16 12:12:36 GMT 49.921051 12.394746 36,000 292 414 -64
2022-08-16 12:12:32 GMT 49.918808 12.403348 36,000 292 414 -64
2022-08-16 12:12:29 GMT 49.916977 12.410503 36,000 292 413 0
2022-08-16 12:12:27 GMT 49.915543 12.415961 36,000 292 413 0
2022-08-16 12:12:24 GMT 49.913269 12.424742 36,000 292 413 0
2022-08-16 12:12:21 GMT 49.910843 12.434148 36,000 292 413 0
2022-08-16 12:12:18 GMT 49.907070 12.448697 36,000 292 413 64
2022-08-16 12:12:15 GMT 49.907070 12.448697 36,000 292 413 64
2022-08-16 12:12:10 GMT 49.900406 12.474470 36,000 292 413 0
2022-08-16 12:12:07 GMT 49.900406 12.474470 36,000 292 413 -64
2022-08-16 12:12:04 GMT 49.899078 12.479674 36,000 292 413 -64
2022-08-16 12:12:01 GMT 49.897156 12.487118 36,000 292 413 -64
2022-08-16 12:11:58 GMT 49.892826 12.503852 36,000 292 413 64
2022-08-16 12:11:55 GMT 49.892826 12.503852 36,000 292 413 -64
2022-08-16 12:11:52 GMT 49.890079 12.514541 36,000 292 413 0
2022-08-16 12:11:49 GMT 49.889008 12.518704 36,000 292 413 0
2022-08-16 12:11:46 GMT 49.884018 12.537858 36,000 292 413 64
2022-08-16 12:11:43 GMT 49.884018 12.537858 36,000 292 413 0
2022-08-16 12:11:40 GMT 49.881958 12.545808 36,000 292 413 0
2022-08-16 12:11:36 GMT 49.877373 12.563683 36,000 292 412 0
2022-08-16 12:11:33 GMT 49.877373 12.563683 36,000 292 413 -64
2022-08-16 12:11:30 GMT 49.874954 12.572985 36,000 292 413 -64
2022-08-16 12:11:27 GMT 49.872162 12.583682 36,000 292 412 0
2022-08-16 12:11:24 GMT 49.868042 12.599584 36,000 292 412 0
2022-08-16 12:11:21 GMT 49.868042 12.599584 36,000 292 412 0
2022-08-16 12:11:18 GMT 49.865780 12.608296 36,000 292 412 0
2022-08-16 12:11:15 GMT 49.864563 12.612955 36,000 292 412 0
2022-08-16 12:11:12 GMT 49.859867 12.631011 36,000 292 412 0
2022-08-16 12:11:09 GMT 49.857353 12.640587 36,000 292 412 0
2022-08-16 12:11:06 GMT 49.857353 12.640587 36,000 292 412 0
2022-08-16 12:11:03 GMT 49.855774 12.646637 36,000 293 413 64
2022-08-16 12:11:00 GMT 49.853577 12.655094 36,000 293 413 0
2022-08-16 12:10:57 GMT 49.851303 12.663822 36,000 293 413 64
2022-08-16 12:10:55 GMT 49.847950 12.676738 36,000 293 413 64
2022-08-16 12:10:52 GMT 49.845577 12.685720 36,000 293 413 0
2022-08-16 12:10:49 GMT 49.845577 12.685720 36,000 293 413 0
2022-08-16 12:10:46 GMT 49.844086 12.691510 36,000 293 413 64
2022-08-16 12:10:43 GMT 49.841080 12.702942 36,000 293 413 0
2022-08-16 12:10:39 GMT 49.838608 12.712266 36,000 293 413 64
2022-08-16 12:10:36 GMT 49.836456 12.720433 36,000 293 413 64
2022-08-16 12:10:33 GMT 49.832886 12.734094 36,000 293 413 0
2022-08-16 12:10:30 GMT 49.832214 12.736569 36,000 293 413 0
2022-08-16 12:10:27 GMT 49.829636 12.746381 36,000 293 413 0
2022-08-16 12:10:24 GMT 49.827515 12.754607 36,000 293 413 0
2022-08-16 12:10:21 GMT 49.825607 12.761704 36,000 293 413 0
2022-08-16 12:10:18 GMT 49.823605 12.769379 36,000 293 413 0
2022-08-16 12:10:15 GMT 49.821442 12.777533 36,000 293 413 0
2022-08-16 12:10:12 GMT 49.819321 12.785785 36,000 293 413 0
2022-08-16 12:10:09 GMT 49.817226 12.793728 36,000 293 414 0
2022-08-16 12:10:06 GMT 49.814713 12.803303 36,000 293 414 0
2022-08-16 12:10:04 GMT 49.813293 12.808758 36,000 293 414 0
2022-08-16 12:10:02 GMT 49.811966 12.813673 36,000 293 414 0
2022-08-16 12:09:59 GMT 49.809826 12.821861 36,000 293 414 0
2022-08-16 12:09:56 GMT 49.807030 12.832551 36,000 293 414 0
2022-08-16 12:09:53 GMT 49.805962 12.836634 36,000 293 414 0
2022-08-16 12:09:51 GMT 49.804459 12.842439 36,000 293 414 0
2022-08-16 12:09:48 GMT 49.801758 12.852558 36,000 293 414 0
2022-08-16 12:09:44 GMT 49.798836 12.863728 36,000 293 414 64
2022-08-16 12:09:40 GMT 49.793343 12.884513 36,000 293 414 64
2022-08-16 12:09:37 GMT 49.793343 12.884513 36,000 293 414 64
2022-08-16 12:09:34 GMT 49.791855 12.890303 36,000 293 414 -64
2022-08-16 12:09:31 GMT 49.789536 12.899033 36,000 293 414 -64
2022-08-16 12:09:27 GMT 49.786919 12.908861 36,000 293 414 64
2022-08-16 12:09:24 GMT 49.782730 12.924747 36,000 293 414 0
2022-08-16 12:09:22 GMT 49.782730 12.924747 36,000 293 414 0
2022-08-16 12:09:19 GMT 49.781147 12.930760 36,000 293 414 0
2022-08-16 12:09:16 GMT 49.778961 12.938931 36,000 293 414 64
2022-08-16 12:09:13 GMT 49.776726 12.947462 36,000 293 414 0
2022-08-16 12:09:09 GMT 49.773560 12.959458 36,000 293 414 0
2022-08-16 12:09:06 GMT 49.771820 12.966036 36,000 293 414 -64
2022-08-16 12:09:03 GMT 49.769348 12.975359 36,000 293 414 -64
2022-08-16 12:09:00 GMT 49.767414 12.982722 36,000 293 414 0
2022-08-16 12:08:57 GMT 49.764633 12.993140 36,000 293 414 0
2022-08-16 12:08:54 GMT 49.763123 12.998850 36,000 293 414 0
2022-08-16 12:08:52 GMT 49.761337 13.005716 36,000 293 414 0
2022-08-16 12:08:48 GMT 49.758499 13.016414 36,000 293 414 0
2022-08-16 12:08:45 GMT 49.754013 13.033327 36,000 293 414 64
2022-08-16 12:08:42 GMT 49.754013 13.033327 36,000 293 414 64
2022-08-16 12:08:38 GMT 49.750702 13.045893 36,000 293 414 -64
2022-08-16 12:08:35 GMT 49.747147 13.059347 36,000 293 414 -64
2022-08-16 12:08:33 GMT 49.747147 13.059347 36,000 293 414 -64
2022-08-16 12:08:30 GMT 49.745770 13.064526 36,000 293 414 -64
2022-08-16 12:08:27 GMT 49.743576 13.072719 36,000 293 414 0
2022-08-16 12:08:24 GMT 49.740833 13.083084 36,000 293 414 0
2022-08-16 12:08:22 GMT 49.740044 13.086127 36,000 293 414 0
2022-08-16 12:08:19 GMT 49.737396 13.095920 36,000 293 414 0
2022-08-16 12:08:16 GMT 49.733551 13.110448 36,000 293 414 0
2022-08-16 12:08:13 GMT 49.733551 13.110448 36,000 293 415 0
2022-08-16 12:08:11 GMT 49.731216 13.119194 36,000 293 415 0
2022-08-16 12:08:07 GMT 49.728172 13.130666 36,000 293 414 0
2022-08-16 12:08:04 GMT 49.726730 13.136107 36,000 293 414 0
2022-08-16 12:08:02 GMT 49.722839 13.150562 36,000 293 414 0
2022-08-16 12:07:59 GMT 49.720165 13.160656 36,000 293 415 0
2022-08-16 12:07:56 GMT 49.720165 13.160656 36,000 293 414 0
2022-08-16 12:07:53 GMT 49.718353 13.167548 36,000 293 414 0
2022-08-16 12:07:50 GMT 49.716160 13.175725 36,000 293 414 0
2022-08-16 12:07:47 GMT 49.713547 13.185545 36,000 293 414 0
2022-08-16 12:07:44 GMT 49.709969 13.198886 36,000 293 414 0
2022-08-16 12:07:41 GMT 49.707596 13.207590 36,000 293 413 0
2022-08-16 12:07:38 GMT 49.707596 13.207590 36,000 293 414 0
2022-08-16 12:07:35 GMT 49.705406 13.215736 36,000 293 414 0
2022-08-16 12:07:32 GMT 49.701782 13.229346 36,000 293 414 0
2022-08-16 12:07:30 GMT 49.701782 13.229346 36,000 293 413 0
2022-08-16 12:07:27 GMT 49.699726 13.236967 36,000 293 413 0
2022-08-16 12:07:24 GMT 49.696655 13.248398 36,000 293 413 0
2022-08-16 12:07:21 GMT 49.694283 13.257380 36,000 293 413 0
2022-08-16 12:07:18 GMT 49.691483 13.267726 36,000 293 413 0
2022-08-16 12:07:16 GMT 49.691483 13.267726 36,000 293 413 0
2022-08-16 12:07:13 GMT 49.689697 13.274520 36,000 293 413 0
2022-08-16 12:07:10 GMT 49.686928 13.284846 36,000 293 413 0
2022-08-16 12:07:07 GMT 49.685108 13.291675 36,000 293 413 0
2022-08-16 12:07:05 GMT 49.683762 13.296575 36,000 293 413 0
2022-08-16 12:07:02 GMT 49.678173 13.317434 36,000 293 413 0
2022-08-16 12:06:58 GMT 49.678173 13.317434 36,000 293 413 0
2022-08-16 12:06:55 GMT 49.673843 13.333468 36,000 293 413 0
2022-08-16 12:06:52 GMT 49.673843 13.333468 36,000 293 413 0
2022-08-16 12:06:48 GMT 49.671112 13.343763 36,000 293 413 0
2022-08-16 12:06:46 GMT 49.669933 13.348166 36,000 293 413 0
2022-08-16 12:06:43 GMT 49.665024 13.366314 36,000 293 412 64
2022-08-16 12:06:40 GMT 49.662781 13.374698 36,000 293 412 0
2022-08-16 12:06:37 GMT 49.662781 13.374698 36,000 293 412 0
2022-08-16 12:06:34 GMT 49.660675 13.382576 36,000 293 412 0
2022-08-16 12:06:31 GMT 49.659348 13.387491 36,000 293 412 0
2022-08-16 12:06:28 GMT 49.656601 13.397755 36,000 293 412 0
2022-08-16 12:06:25 GMT 49.654247 13.406438 36,000 293 412 0
2022-08-16 12:06:21 GMT 49.651688 13.415940 36,000 293 412 0
2022-08-16 12:06:17 GMT 49.648846 13.426481 36,000 293 411 0
2022-08-16 12:06:14 GMT 49.646393 13.435701 36,000 293 412 0
2022-08-16 12:06:11 GMT 49.644104 13.444085 36,000 293 412 0
2022-08-16 12:06:08 GMT 49.641678 13.453048 36,000 293 411 64
2022-08-16 12:06:05 GMT 49.639629 13.460553 36,000 293 411 0
2022-08-16 12:06:02 GMT 49.637814 13.467308 36,000 293 411 0
2022-08-16 12:05:59 GMT 49.633297 13.484085 36,000 293 411 -64
2022-08-16 12:05:56 GMT 49.633297 13.484085 36,000 293 411 0
2022-08-16 12:05:53 GMT 49.630920 13.492729 36,000 293 411 -64
2022-08-16 12:05:50 GMT 49.628876 13.500267 36,000 293 411 -64
2022-08-16 12:05:46 GMT 49.626038 13.510734 36,000 293 411 -64
2022-08-16 12:05:43 GMT 49.623150 13.521275 36,000 293 410 0
2022-08-16 12:05:40 GMT 49.619705 13.533928 36,000 293 410 0
2022-08-16 12:05:36 GMT 49.618240 13.539276 36,000 293 411 0
2022-08-16 12:05:32 GMT 49.615330 13.550077 36,000 293 410 0
2022-08-16 12:05:26 GMT 49.611740 13.563200 36,000 293 410 0
2022-08-16 12:05:24 GMT 49.609314 13.572091 36,000 293 410 0
2022-08-16 12:05:21 GMT 49.607693 13.577988 36,000 293 410 0
2022-08-16 12:05:18 GMT 49.606018 13.584149 36,000 293 409 64
2022-08-16 12:05:15 GMT 49.602432 13.597363 36,000 293 409 64
2022-08-16 12:05:11 GMT 49.600338 13.605083 36,000 293 409 0
2022-08-16 12:05:08 GMT 49.595360 13.623344 36,000 293 409 0
2022-08-16 12:05:05 GMT 49.595360 13.623344 36,000 297 408 0
2022-08-16 12:05:02 GMT 49.593613 13.629769 36,000 293 409 64
2022-08-16 12:05:00 GMT 49.591873 13.636202 36,000 293 409 64
2022-08-16 12:04:56 GMT 49.589214 13.646133 36,000 293 409 64
2022-08-16 12:04:54 GMT 49.587910 13.650958 36,000 293 409 0
2022-08-16 12:04:50 GMT 49.584457 13.663234 36,000 295 409 -64
2022-08-16 12:04:47 GMT 49.582603 13.669590 36,000 298 408 0
2022-08-16 12:04:44 GMT 49.579330 13.680002 36,000 299 408 0
2022-08-16 12:04:40 GMT 49.574982 13.692796 36,000 299 408 0
2022-08-16 12:04:37 GMT 49.574982 13.692796 36,000 301 407 0
2022-08-16 12:04:34 GMT 49.571339 13.702846 36,000 302 406 -64
2022-08-16 12:04:31 GMT 49.568729 13.709527 36,000 304 406 -64
2022-08-16 12:04:28 GMT 49.565552 13.717370 36,000 306 403 0
2022-08-16 12:04:25 GMT 49.558594 13.733055 36,000 306 404 0
2022-08-16 12:04:22 GMT 49.558594 13.733055 36,000 306 404 0
2022-08-16 12:04:19 GMT 49.555893 13.738909 36,000 306 404 0
2022-08-16 12:04:15 GMT 49.552094 13.747077 36,000 306 404 64
2022-08-16 12:04:12 GMT 49.548523 13.754738 36,000 306 404 0
2022-08-16 12:04:09 GMT 49.544849 13.762677 36,000 306 404 0
2022-08-16 12:04:05 GMT 49.540611 13.771733 36,000 306 403 0
2022-08-16 12:04:02 GMT 49.536713 13.780108 36,000 306 403 0
2022-08-16 12:03:59 GMT 49.534515 13.784798 36,000 306 403 0
2022-08-16 12:03:56 GMT 49.531036 13.792251 36,000 306 403 0
2022-08-16 12:03:53 GMT 49.527809 13.799199 36,000 306 403 0
2022-08-16 12:03:50 GMT 49.523575 13.808330 36,000 306 403 0
2022-08-16 12:03:45 GMT 49.519104 13.817832 36,000 306 403 0
2022-08-16 12:03:42 GMT 49.516708 13.822969 36,000 306 403 0
2022-08-16 12:03:39 GMT 49.513054 13.830822 36,000 306 403 0
2022-08-16 12:03:36 GMT 49.508816 13.839953 36,000 306 403 0
2022-08-16 12:03:33 GMT 49.505421 13.847153 36,000 306 403 0
2022-08-16 12:03:30 GMT 49.503250 13.851736 36,000 306 402 0
2022-08-16 12:03:27 GMT 49.499451 13.859903 36,000 306 402 0
2022-08-16 12:03:24 GMT 49.491989 13.875877 36,000 306 402 64
2022-08-16 12:03:21 GMT 49.491989 13.875877 36,000 306 402 64
2022-08-16 12:03:18 GMT 49.489792 13.880575 36,000 306 402 0
2022-08-16 12:03:15 GMT 49.486221 13.888237 36,000 306 402 0
2022-08-16 12:03:10 GMT 49.481537 13.898150 36,000 306 402 64
2022-08-16 12:03:07 GMT 49.478714 13.904210 36,000 306 402 -64
2022-08-16 12:03:04 GMT 49.475254 13.911586 36,000 306 402 0
2022-08-16 12:03:01 GMT 49.470474 13.921774 36,000 306 402 0
2022-08-16 12:02:58 GMT 49.468082 13.926878 36,000 306 402 0
2022-08-16 12:02:53 GMT 49.458847 13.946638 36,000 306 402 0
2022-08-16 12:02:50 GMT 49.458847 13.946638 36,000 306 402 64
2022-08-16 12:02:47 GMT 49.456676 13.951226 36,000 306 402 64
2022-08-16 12:02:44 GMT 49.452862 13.959318 36,000 306 402 64
2022-08-16 12:02:40 GMT 49.448959 13.967671 36,000 306 402 64
2022-08-16 12:02:37 GMT 49.445690 13.974609 36,000 306 403 64
2022-08-16 12:02:34 GMT 49.439941 13.986897 36,000 306 403 -64
2022-08-16 12:02:32 GMT 49.439941 13.986897 36,000 306 403 -64
2022-08-16 12:02:29 GMT 49.436554 13.994125 36,000 306 402 0
2022-08-16 12:02:26 GMT 49.433079 14.001481 36,000 306 402 0
2022-08-16 12:02:23 GMT 49.428841 14.010538 36,000 306 403 0
2022-08-16 12:02:20 GMT 49.426620 14.015174 36,000 307 403 0
2022-08-16 12:02:17 GMT 49.423347 14.022096 36,000 307 403 0
2022-08-16 12:02:14 GMT 49.419109 14.031131 36,000 306 403 -64
2022-08-16 12:02:10 GMT 49.416271 14.037130 36,000 306 402 64
2022-08-16 12:02:07 GMT 49.413525 14.042913 36,000 306 403 0
2022-08-16 12:02:04 GMT 49.408630 14.053274 36,000 306 402 64
2022-08-16 12:02:01 GMT 49.406204 14.058415 36,000 306 403 64
2022-08-16 12:01:57 GMT 49.401443 14.068557 36,000 306 402 64
2022-08-16 12:01:53 GMT 49.394577 14.083064 36,000 306 402 0
2022-08-16 12:01:50 GMT 49.394577 14.083064 36,000 306 402 0
2022-08-16 12:01:47 GMT 49.389771 14.093205 36,000 306 401 64
2022-08-16 12:01:44 GMT 49.386524 14.100157 36,000 306 401 0
2022-08-16 12:01:41 GMT 49.384460 14.104544 36,000 306 401 0
2022-08-16 12:01:38 GMT 49.380009 14.113962 36,000 306 401 0
2022-08-16 12:01:34 GMT 49.376633 14.121094 36,000 306 401 0
2022-08-16 12:01:31 GMT 49.372700 14.129358 36,000 306 401 64
2022-08-16 12:01:28 GMT 49.370316 14.134404 36,000 306 401 64
2022-08-16 12:01:25 GMT 49.366413 14.142657 36,000 306 401 64
2022-08-16 12:01:22 GMT 49.362503 14.150897 36,000 306 401 0
2022-08-16 12:01:18 GMT 49.359604 14.157081 36,000 306 400 -64
2022-08-16 12:01:14 GMT 49.355026 14.166729 36,000 306 401 -64
2022-08-16 12:01:11 GMT 49.349304 14.178913 36,000 306 400 64
2022-08-16 12:01:08 GMT 49.349304 14.178913 36,000 306 400 -64
2022-08-16 12:01:05 GMT 49.344627 14.188770 36,000 306 400 0
2022-08-16 12:01:02 GMT 49.342255 14.193758 36,000 306 400 64
2022-08-16 12:00:59 GMT 49.339645 14.199266 36,000 306 400 64
2022-08-16 12:00:56 GMT 49.335316 14.208430 36,000 306 400 64
2022-08-16 12:00:53 GMT 49.332321 14.214830 36,000 306 401 0
2022-08-16 12:00:51 GMT 49.328934 14.221943 36,000 306 400 0
2022-08-16 12:00:48 GMT 49.326691 14.226802 36,000 306 400 0
2022-08-16 12:00:45 GMT 49.324192 14.232065 36,000 306 401 0
2022-08-16 12:00:42 GMT 49.320740 14.239408 36,000 306 401 0
2022-08-16 12:00:39 GMT 49.316044 14.249268 36,000 306 401 0
2022-08-16 12:00:35 GMT 49.312271 14.257296 36,000 306 401 0
2022-08-16 12:00:32 GMT 49.309013 14.264157 36,000 306 401 0
2022-08-16 12:00:29 GMT 49.305847 14.270807 36,000 306 401 0
2022-08-16 12:00:24 GMT 49.301056 14.280888 36,000 306 401 0
2022-08-16 12:00:21 GMT 49.297394 14.288706 36,000 306 401 0
2022-08-16 12:00:18 GMT 49.294678 14.294442 36,000 306 401 -64
2022-08-16 12:00:15 GMT 49.291397 14.301312 36,000 306 401 0
2022-08-16 12:00:12 GMT 49.288345 14.307669 36,000 306 401 0
2022-08-16 12:00:10 GMT 49.282791 14.319411 36,000 307 402 0
2022-08-16 12:00:07 GMT 49.279312 14.326750 36,000 307 402 0
2022-08-16 12:00:04 GMT 49.279312 14.326750 36,000 306 401 -64
2022-08-16 12:00:01 GMT 49.273403 14.339110 36,000 306 401 -64
2022-08-16 11:59:58 GMT 49.273403 14.339110 36,000 307 402 0
2022-08-16 11:59:55 GMT 49.268093 14.350313 36,000 307 402 0
2022-08-16 11:59:52 GMT 49.265900 14.354905 36,000 307 402 0
2022-08-16 11:59:50 GMT 49.263393 14.360215 36,000 307 402 0
2022-08-16 11:59:46 GMT 49.259529 14.368238 36,000 307 402 0
2022-08-16 11:59:43 GMT 49.255508 14.376737 36,000 307 402 0
2022-08-16 11:59:40 GMT 49.253311 14.381315 36,000 307 402 0
2022-08-16 11:59:37 GMT 49.249149 14.389994 36,000 307 402 0
2022-08-16 11:59:34 GMT 49.245750 14.397149 36,000 307 403 0
2022-08-16 11:59:31 GMT 49.239418 14.410449 36,000 307 403 0
2022-08-16 11:59:28 GMT 49.239418 14.410449 36,000 307 403 0
2022-08-16 11:59:25 GMT 49.236465 14.416668 36,000 307 403 0
2022-08-16 11:59:22 GMT 49.232063 14.425844 36,000 307 403 0
2022-08-16 11:59:18 GMT 49.229095 14.432091 36,000 307 404 64
2022-08-16 11:59:14 GMT 49.221405 14.448148 36,000 307 404 0
2022-08-16 11:59:11 GMT 49.221405 14.448148 36,000 307 404 0
2022-08-16 11:59:08 GMT 49.217148 14.457163 36,000 307 404 -64
2022-08-16 11:59:05 GMT 49.213863 14.464079 36,000 307 404 -64
2022-08-16 11:59:02 GMT 49.211304 14.469356 36,000 307 404 0
2022-08-16 11:58:59 GMT 49.207905 14.476511 36,000 307 405 0
2022-08-16 11:58:56 GMT 49.203526 14.485690 36,000 307 405 64
2022-08-16 11:58:53 GMT 49.200409 14.492196 36,000 307 405 0
2022-08-16 11:58:50 GMT 49.194992 14.503502 36,000 307 405 0
2022-08-16 11:58:47 GMT 49.194992 14.503502 36,000 307 406 0
2022-08-16 11:58:44 GMT 49.188400 14.517306 36,000 307 406 0
2022-08-16 11:58:41 GMT 49.186302 14.521685 36,000 307 406 0
2022-08-16 11:58:39 GMT 49.186302 14.521685 36,000 307 407 0
2022-08-16 11:58:36 GMT 49.182953 14.528644 36,000 307 406 0
2022-08-16 11:58:33 GMT 49.178192 14.538574 36,000 307 407 0
2022-08-16 11:58:30 GMT 49.176315 14.542448 36,000 307 406 0
2022-08-16 11:58:27 GMT 49.172432 14.550524 36,000 307 407 0
2022-08-16 11:58:24 GMT 49.169769 14.556110 36,000 307 407 0
2022-08-16 11:58:21 GMT 49.165741 14.564420 36,000 307 407 0
2022-08-16 11:58:19 GMT 49.159653 14.577097 36,000 307 407 0
2022-08-16 11:58:16 GMT 49.159653 14.577097 36,000 307 407 0
2022-08-16 11:58:12 GMT 49.155857 14.585001 36,000 307 407 0
2022-08-16 11:58:09 GMT 49.151760 14.593530 36,000 307 407 0
2022-08-16 11:58:06 GMT 49.146084 14.605311 36,000 307 407 0
2022-08-16 11:58:03 GMT 49.142822 14.612033 36,000 307 408 0
2022-08-16 11:58:00 GMT 49.142822 14.612033 36,000 307 408 0
2022-08-16 11:57:58 GMT 49.136490 14.625268 36,000 307 408 0
2022-08-16 11:57:55 GMT 49.136490 14.625268 36,000 307 409 -64
2022-08-16 11:57:52 GMT 49.132675 14.633139 36,000 307 409 64
2022-08-16 11:57:49 GMT 49.130676 14.637310 36,000 307 409 -64
2022-08-16 11:57:46 GMT 49.126621 14.645643 36,000 307 409 0
2022-08-16 11:57:43 GMT 49.123409 14.652437 36,000 307 409 64
2022-08-16 11:57:40 GMT 49.120605 14.658227 36,000 307 410 64
2022-08-16 11:57:38 GMT 49.114105 14.671678 36,000 307 410 64
2022-08-16 11:57:35 GMT 49.114105 14.671678 36,000 307 410 0
2022-08-16 11:57:32 GMT 49.111866 14.676361 36,000 307 410 -64
2022-08-16 11:57:29 GMT 49.106918 14.686608 36,000 307 410 -64
2022-08-16 11:57:26 GMT 49.103580 14.693563 36,000 307 411 -64
2022-08-16 11:57:23 GMT 49.100323 14.700358 36,000 307 411 -64
2022-08-16 11:57:19 GMT 49.096619 14.708017 36,000 307 411 0
2022-08-16 11:57:15 GMT 49.091801 14.718066 36,000 307 411 0
2022-08-16 11:57:12 GMT 49.089661 14.722547 36,000 307 411 0
2022-08-16 11:57:09 GMT 49.085751 14.730714 36,000 307 411 0
2022-08-16 11:57:06 GMT 49.081608 14.739316 36,000 307 411 -64
2022-08-16 11:57:03 GMT 49.077576 14.747737 36,025 307 411 64
2022-08-16 11:57:00 GMT 49.074856 14.753338 36,000 307 411 64
2022-08-16 11:56:57 GMT 49.072403 14.758442 36,000 307 412 64
2022-08-16 11:56:54 GMT 49.068466 14.766611 36,000 307 411 64
2022-08-16 11:56:51 GMT 49.065781 14.772202 36,000 307 412 64
2022-08-16 11:56:48 GMT 49.062653 14.778795 36,000 307 412 64
2022-08-16 11:56:45 GMT 49.059029 14.786224 36,000 307 412 0
2022-08-16 11:56:42 GMT 49.055466 14.793725 36,000 307 412 0
2022-08-16 11:56:39 GMT 49.050842 14.803302 36,000 307 412 -64
2022-08-16 11:56:35 GMT 49.046459 14.812461 36,000 307 411 -64
2022-08-16 11:56:31 GMT 49.038071 14.829712 36,000 307 412 -64
2022-08-16 11:56:28 GMT 49.038071 14.829712 36,000 307 412 -64
2022-08-16 11:56:24 GMT 49.034916 14.836241 36,000 307 412 -64
2022-08-16 11:56:21 GMT 49.031006 14.844409 36,000 307 412 0
2022-08-16 11:56:18 GMT 49.028046 14.850487 36,000 307 412 0
2022-08-16 11:56:15 GMT 49.024567 14.857671 36,000 307 412 64
2022-08-16 11:56:12 GMT 49.020485 14.866092 36,000 307 412 64
2022-08-16 11:56:09 GMT 49.018112 14.870981 36,000 307 412 64
2022-08-16 11:56:07 GMT 49.015827 14.875633 36,000 307 412 64
2022-08-16 11:56:04 GMT 49.008801 14.890016 36,000 307 412 0
2022-08-16 11:56:01 GMT 49.008801 14.890016 36,000 307 412 0
2022-08-16 11:55:58 GMT 49.001957 14.903966 36,000 307 413 -128
2022-08-16 11:55:55 GMT 49.001957 14.903966 36,000 307 413 -128
2022-08-16 11:55:52 GMT 48.997768 14.912567 36,000 307 412 -64
2022-08-16 11:55:49 GMT 48.994228 14.919795 36,000 307 412 -64
2022-08-16 11:55:46 GMT 48.991745 14.924856 36,000 307 413 0
2022-08-16 11:55:43 GMT 48.984879 14.938801 36,000 307 413 64
2022-08-16 11:55:40 GMT 48.984879 14.938801 36,000 307 413 128
2022-08-16 11:55:37 GMT 48.981239 14.946249 36,000 307 413 64
2022-08-16 11:55:34 GMT 48.977600 14.953660 36,000 307 413 0
2022-08-16 11:55:31 GMT 48.974030 14.960844 36,000 307 414 0
2022-08-16 11:55:28 GMT 48.971970 14.965069 36,000 307 414 -64
2022-08-16 11:55:26 GMT 48.968533 14.971980 36,000 308 414 0
2022-08-16 11:55:23 GMT 48.965515 14.978027 36,000 308 414 0
2022-08-16 11:55:20 GMT 48.961826 14.985424 36,000 308 414 0
2022-08-16 11:55:17 GMT 48.958374 14.992394 36,000 308 414 0
2022-08-16 11:55:14 GMT 48.954803 14.999577 36,000 308 414 0
2022-08-16 11:55:11 GMT 48.951462 15.006338 36,000 308 414 0
2022-08-16 11:55:08 GMT 48.946793 15.015564 36,000 308 414 0
2022-08-16 11:55:05 GMT 48.944046 15.021128 36,000 308 415 0
2022-08-16 11:55:01 GMT 48.939625 15.029947 36,000 307 415 64
2022-08-16 11:54:58 GMT 48.936039 15.037175 36,000 307 415 64
2022-08-16 11:54:55 GMT 48.933151 15.042958 36,000 307 415 0
2022-08-16 11:54:52 GMT 48.929031 15.051340 36,000 307 415 0
2022-08-16 11:54:49 GMT 48.925564 15.058353 36,000 307 416 -64
2022-08-16 11:54:46 GMT 48.922443 15.064641 36,000 307 416 -64
2022-08-16 11:54:43 GMT 48.919697 15.070279 36,000 307 416 -64
2022-08-16 11:54:40 GMT 48.915619 15.078665 36,000 307 416 -64
2022-08-16 11:54:37 GMT 48.912205 15.085746 36,000 306 416 0
2022-08-16 11:54:34 GMT 48.908943 15.092613 36,000 306 416 0
2022-08-16 11:54:31 GMT 48.905453 15.099985 36,000 305 416 0
2022-08-16 11:54:27 GMT 48.901291 15.109089 36,000 305 416 0
2022-08-16 11:54:25 GMT 48.899323 15.113455 36,000 305 416 0
2022-08-16 11:54:22 GMT 48.894745 15.123526 36,000 305 418 -64
2022-08-16 11:54:19 GMT 48.891441 15.130776 36,000 305 417 0
2022-08-16 11:54:16 GMT 48.888836 15.136558 36,000 305 418 -64
2022-08-16 11:54:12 GMT 48.883667 15.147822 36,000 305 418 -64
2022-08-16 11:54:09 GMT 48.880363 15.155061 36,000 305 418 -64
2022-08-16 11:54:06 GMT 48.877396 15.161555 36,000 305 418 64
2022-08-16 11:54:03 GMT 48.871517 15.174215 36,000 305 418 64
2022-08-16 11:54:00 GMT 48.871517 15.174215 36,000 305 418 64
2022-08-16 11:53:57 GMT 48.868305 15.181226 36,000 306 417 0
2022-08-16 11:53:53 GMT 48.863323 15.191996 36,000 306 417 64
2022-08-16 11:53:50 GMT 48.860687 15.197754 36,000 306 417 0
2022-08-16 11:53:47 GMT 48.852905 15.214515 36,000 306 419 0
2022-08-16 11:53:44 GMT 48.852905 15.214515 36,000 306 419 0
2022-08-16 11:53:41 GMT 48.847122 15.226979 36,000 306 419 0
2022-08-16 11:53:38 GMT 48.843796 15.234164 36,000 306 419 0
2022-08-16 11:53:35 GMT 48.843796 15.234164 36,000 306 419 0
2022-08-16 11:53:32 GMT 48.840466 15.241362 36,000 306 419 0
2022-08-16 11:53:28 GMT 48.832443 15.258601 36,000 306 419 -128
2022-08-16 11:53:25 GMT 48.832443 15.258601 36,000 306 419 -64
2022-08-16 11:53:22 GMT 48.829342 15.265358 36,000 306 420 64
2022-08-16 11:53:19 GMT 48.825989 15.272545 36,000 306 420 64
2022-08-16 11:53:16 GMT 48.820084 15.285292 36,000 306 420 0
2022-08-16 11:53:13 GMT 48.820084 15.285292 36,000 306 420 0
2022-08-16 11:53:10 GMT 48.815422 15.295426 36,000 306 420 0
2022-08-16 11:53:07 GMT 48.809418 15.308364 36,000 306 420 0
2022-08-16 11:53:05 GMT 48.807091 15.313424 36,000 306 420 0
2022-08-16 11:53:02 GMT 48.807091 15.313424 36,000 306 420 -64
2022-08-16 11:52:59 GMT 48.803284 15.321632 36,000 306 420 -64
2022-08-16 11:52:56 GMT 48.800385 15.327879 36,000 306 420 64
2022-08-16 11:52:53 GMT 48.796371 15.336562 36,000 306 420 64
2022-08-16 11:52:50 GMT 48.792984 15.343781 36,000 306 420 64
2022-08-16 11:52:47 GMT 48.785812 15.359176 36,000 306 421 0
2022-08-16 11:52:44 GMT 48.785812 15.359176 36,000 306 421 0
2022-08-16 11:52:40 GMT 48.783279 15.364732 36,000 306 421 0
2022-08-16 11:52:37 GMT 48.777878 15.376282 36,000 306 421 0
2022-08-16 11:52:34 GMT 48.775085 15.382268 36,000 306 423 -64
2022-08-16 11:52:31 GMT 48.772686 15.387364 36,000 306 423 -64
2022-08-16 11:52:28 GMT 48.766525 15.400578 36,000 306 423 -64
2022-08-16 11:52:25 GMT 48.766525 15.400578 36,000 306 423 -64
2022-08-16 11:52:22 GMT 48.762352 15.409554 36,000 306 423 0
2022-08-16 11:52:19 GMT 48.758423 15.418044 36,000 306 424 0
2022-08-16 11:52:16 GMT 48.755463 15.424299 36,000 306 424 64
2022-08-16 11:52:14 GMT 48.753925 15.427696 36,000 306 424 0
2022-08-16 11:52:11 GMT 48.749268 15.437622 36,000 306 425 -64
2022-08-16 11:52:08 GMT 48.747253 15.441988 36,000 306 425 0
2022-08-16 11:52:05 GMT 48.742752 15.451692 36,000 306 425 0
2022-08-16 11:52:02 GMT 48.735397 15.467482 36,000 306 425 0
2022-08-16 11:51:58 GMT 48.735397 15.467482 36,000 306 425 0
2022-08-16 11:51:55 GMT 48.732464 15.473809 36,000 306 425 64
2022-08-16 11:51:53 GMT 48.730091 15.478941 36,000 306 425 64
2022-08-16 11:51:50 GMT 48.725483 15.488916 36,000 306 426 64
2022-08-16 11:51:46 GMT 48.721161 15.498117 36,000 306 426 64
2022-08-16 11:51:43 GMT 48.718594 15.503733 36,000 306 426 0
2022-08-16 11:51:40 GMT 48.714497 15.512478 36,000 306 426 0
2022-08-16 11:51:36 GMT 48.707291 15.528118 36,000 306 434 0
2022-08-16 11:51:33 GMT 48.707291 15.528118 36,000 306 426 -64
2022-08-16 11:51:29 GMT 48.698090 15.547837 36,000 306 426 -64
2022-08-16 11:51:26 GMT 48.698090 15.547837 36,000 306 426 0
2022-08-16 11:51:23 GMT 48.695709 15.552979 36,000 306 426 0
2022-08-16 11:51:19 GMT 48.691315 15.562486 36,000 305 427 0
2022-08-16 11:51:16 GMT 48.687332 15.571007 36,000 305 427 0
2022-08-16 11:51:13 GMT 48.684193 15.577818 36,000 305 427 0
2022-08-16 11:51:09 GMT 48.676437 15.594389 36,000 306 427 0
2022-08-16 11:51:06 GMT 48.676437 15.594389 36,000 306 427 0
2022-08-16 11:51:03 GMT 48.671677 15.604600 36,000 306 427 0
2022-08-16 11:51:00 GMT 48.669891 15.608544 36,000 306 427 0
2022-08-16 11:50:57 GMT 48.665012 15.619017 36,000 306 426 0
2022-08-16 11:50:54 GMT 48.662266 15.624872 36,000 306 427 0
2022-08-16 11:50:51 GMT 48.659775 15.630235 36,000 306 428 0
2022-08-16 11:50:48 GMT 48.656342 15.637559 36,000 306 428 0
2022-08-16 11:50:45 GMT 48.652256 15.646338 36,000 306 428 0
2022-08-16 11:50:42 GMT 48.649063 15.653194 36,000 306 428 0
2022-08-16 11:50:39 GMT 48.644485 15.662912 36,000 306 428 -64
2022-08-16 11:50:36 GMT 48.642197 15.667772 36,000 306 428 0
2022-08-16 11:50:33 GMT 48.634987 15.683128 36,000 306 430 0
2022-08-16 11:50:30 GMT 48.634987 15.683128 36,000 306 429 0
2022-08-16 11:50:26 GMT 48.629929 15.693829 36,000 306 429 64
2022-08-16 11:50:23 GMT 48.626221 15.701646 36,000 306 428 0
2022-08-16 11:50:20 GMT 48.623016 15.708477 36,000 306 430 64
2022-08-16 11:50:17 GMT 48.621277 15.712069 36,000 306 430 0
2022-08-16 11:50:14 GMT 48.617390 15.720351 36,000 306 429 -64
2022-08-16 11:50:11 GMT 48.609100 15.737915 36,000 306 430 0
2022-08-16 11:50:08 GMT 48.609100 15.737915 36,000 306 429 64
2022-08-16 11:50:05 GMT 48.606773 15.742758 36,000 306 430 64
2022-08-16 11:50:02 GMT 48.603333 15.750099 36,000 306 430 64
2022-08-16 11:49:59 GMT 48.596115 15.765453 36,000 306 430 0
2022-08-16 11:49:56 GMT 48.592762 15.772536 36,000 306 430 0
2022-08-16 11:49:53 GMT 48.592762 15.772536 36,000 306 430 0
2022-08-16 11:49:50 GMT 48.589783 15.778897 36,000 306 430 0
2022-08-16 11:49:47 GMT 48.585068 15.788973 36,000 306 430 0
2022-08-16 11:49:43 GMT 48.580582 15.798481 36,000 306 430 0
2022-08-16 11:49:40 GMT 48.578377 15.803110 36,000 306 430 0
2022-08-16 11:49:37 GMT 48.574356 15.811650 36,000 306 430 0
2022-08-16 11:49:34 GMT 48.570930 15.818939 36,000 306 430 0
2022-08-16 11:49:32 GMT 48.567345 15.826528 36,000 306 430 0
2022-08-16 11:49:29 GMT 48.565716 15.829926 36,000 306 430 0
2022-08-16 11:49:26 GMT 48.562042 15.837708 36,000 306 430 0
2022-08-16 11:49:23 GMT 48.558361 15.845538 36,000 306 430 64
2022-08-16 11:49:20 GMT 48.553940 15.854821 36,000 306 430 0
2022-08-16 11:49:16 GMT 48.550369 15.862356 36,000 306 430 0
2022-08-16 11:49:13 GMT 48.547512 15.868450 36,000 306 430 64
2022-08-16 11:49:11 GMT 48.544487 15.874810 36,000 306 430 0
2022-08-16 11:49:08 GMT 48.541042 15.882111 36,000 306 430 0
2022-08-16 11:49:05 GMT 48.536991 15.890639 36,000 306 430 0
2022-08-16 11:49:02 GMT 48.535355 15.894048 36,000 306 430 0
2022-08-16 11:49:00 GMT 48.531685 15.901843 36,000 306 430 0
2022-08-16 11:48:57 GMT 48.528442 15.908696 36,000 306 430 0
2022-08-16 11:48:53 GMT 48.520615 15.925316 36,000 306 431 0
2022-08-16 11:48:51 GMT 48.520615 15.925316 36,000 306 431 -64
2022-08-16 11:48:48 GMT 48.517273 15.932429 36,000 306 431 0
2022-08-16 11:48:45 GMT 48.509628 15.948557 36,000 306 431 0
2022-08-16 11:48:42 GMT 48.509628 15.948557 36,000 306 431 0
2022-08-16 11:48:39 GMT 48.506779 15.954678 36,000 306 430 0
2022-08-16 11:48:36 GMT 48.503769 15.961022 36,000 306 431 64
2022-08-16 11:48:33 GMT 48.501007 15.966893 36,000 306 432 0
2022-08-16 11:48:31 GMT 48.498001 15.973206 36,000 306 431 64
2022-08-16 11:48:28 GMT 48.495071 15.979333 36,000 306 432 0
2022-08-16 11:48:25 GMT 48.491371 15.987131 36,000 306 432 0
2022-08-16 11:48:22 GMT 48.487553 15.995154 36,000 306 432 0
2022-08-16 11:48:19 GMT 48.484158 16.002237 36,000 306 432 0
2022-08-16 11:48:15 GMT 48.479736 16.011446 36,000 306 432 -64
2022-08-16 11:48:12 GMT 48.475662 16.019968 36,000 306 431 -64
2022-08-16 11:48:09 GMT 48.468018 16.036095 36,000 306 432 0
2022-08-16 11:48:06 GMT 48.468018 16.036095 36,000 306 432 0
2022-08-16 11:48:03 GMT 48.465225 16.041941 36,000 306 432 0
2022-08-16 11:48:01 GMT 48.463028 16.046589 36,000 306 432 0
2022-08-16 11:47:57 GMT 48.458366 16.056374 36,000 306 432 0
2022-08-16 11:47:54 GMT 48.455109 16.063210 36,000 306 432 0
2022-08-16 11:47:51 GMT 48.451614 16.070541 36,000 306 433 0
2022-08-16 11:47:48 GMT 48.447517 16.079069 36,000 306 433 0
2022-08-16 11:47:45 GMT 48.443802 16.086872 36,000 306 434 0
2022-08-16 11:47:42 GMT 48.439838 16.095261 36,000 306 434 0
2022-08-16 11:47:38 GMT 48.437027 16.101097 36,000 306 434 0
2022-08-16 11:47:35 GMT 48.432808 16.109932 36,000 306 434 0
2022-08-16 11:47:32 GMT 48.429459 16.117016 36,000 306 434 0
2022-08-16 11:47:29 GMT 48.426544 16.123140 36,000 306 434 0
2022-08-16 11:47:26 GMT 48.421265 16.134218 36,000 306 434 0
2022-08-16 11:47:22 GMT 48.416374 16.144482 36,000 306 434 0
2022-08-16 11:47:18 GMT 48.409439 16.158937 36,000 306 435 0
2022-08-16 11:47:15 GMT 48.404343 16.169762 36,000 306 435 0
2022-08-16 11:47:11 GMT 48.404343 16.169762 36,000 306 435 0
2022-08-16 11:47:07 GMT 48.400360 16.178091 36,000 306 435 0
2022-08-16 11:47:04 GMT 48.396378 16.186453 36,000 306 435 0
2022-08-16 11:47:01 GMT 48.393333 16.192837 36,000 306 435 0
2022-08-16 11:46:58 GMT 48.388771 16.202377 36,000 306 435 0
2022-08-16 11:46:54 GMT 48.384109 16.212158 36,000 306 435 0
2022-08-16 11:46:51 GMT 48.381321 16.218061 36,000 306 435 0
2022-08-16 11:46:48 GMT 48.373829 16.233746 36,000 306 435 0
2022-08-16 11:46:45 GMT 48.373829 16.233746 36,000 306 434 0
2022-08-16 11:46:41 GMT 48.370056 16.241596 36,000 306 434 0
2022-08-16 11:46:38 GMT 48.366211 16.249695 36,000 306 434 0
2022-08-16 11:46:35 GMT 48.361958 16.258465 36,000 306 434 0
2022-08-16 11:46:32 GMT 48.359161 16.264343 36,000 306 434 0
2022-08-16 11:46:28 GMT 48.353298 16.276533 36,000 306 434 0
2022-08-16 11:46:25 GMT 48.351994 16.279282 36,000 306 434 0
2022-08-16 11:46:22 GMT 48.347897 16.287809 36,000 306 434 0
2022-08-16 11:46:19 GMT 48.344376 16.295118 36,000 306 433 0
2022-08-16 11:46:16 GMT 48.340961 16.302193 36,000 306 434 0
2022-08-16 11:46:13 GMT 48.336639 16.311176 36,000 306 434 64
2022-08-16 11:46:10 GMT 48.334396 16.315825 36,000 306 434 64
2022-08-16 11:46:07 GMT 48.325470 16.334347 36,000 306 433 0
2022-08-16 11:46:04 GMT 48.325470 16.334347 36,000 306 433 0
2022-08-16 11:46:00 GMT 48.320896 16.343824 36,000 306 433 0
2022-08-16 11:45:57 GMT 48.318291 16.349174 36,000 306 433 0
2022-08-16 11:45:54 GMT 48.313496 16.359150 36,000 306 433 0
2022-08-16 11:45:51 GMT 48.311634 16.363052 36,000 306 433 0
2022-08-16 11:45:48 GMT 48.304325 16.378084 36,000 306 433 0
2022-08-16 11:45:45 GMT 48.304325 16.378084 36,000 306 433 0
2022-08-16 11:45:42 GMT 48.296970 16.393335 36,000 306 433 0
2022-08-16 11:45:39 GMT 48.296970 16.393335 36,000 306 433 0
2022-08-16 11:45:36 GMT 48.290031 16.407721 36,000 306 433 0
2022-08-16 11:45:33 GMT 48.290031 16.407721 36,000 306 432 0
2022-08-16 11:45:30 GMT 48.286285 16.415476 36,000 306 432 0
2022-08-16 11:45:26 GMT 48.282852 16.422518 36,000 306 432 0
2022-08-16 11:45:23 GMT 48.277466 16.433596 36,000 306 432 0
2022-08-16 11:45:20 GMT 48.273602 16.441618 36,000 306 431 0
2022-08-16 11:45:17 GMT 48.270126 16.448929 36,000 306 432 0
2022-08-16 11:45:14 GMT 48.264244 16.461061 36,000 306 432 0
2022-08-16 11:45:11 GMT 48.264244 16.461061 36,000 306 432 0
2022-08-16 11:45:08 GMT 48.260742 16.468294 36,000 306 432 0
2022-08-16 11:45:05 GMT 48.256004 16.478264 36,000 306 432 -64
2022-08-16 11:45:01 GMT 48.249023 16.492804 36,000 306 432 0
2022-08-16 11:44:58 GMT 48.249023 16.492804 36,000 306 432 0
2022-08-16 11:44:55 GMT 48.242130 16.507103 36,000 306 432 0
2022-08-16 11:44:52 GMT 48.242130 16.507103 36,000 306 431 0
2022-08-16 11:44:49 GMT 48.238544 16.514620 36,000 306 431 0
2022-08-16 11:44:46 GMT 48.231796 16.528643 36,000 306 431 64
2022-08-16 11:44:43 GMT 48.227097 16.538368 36,000 306 431 64
2022-08-16 11:44:40 GMT 48.227097 16.538368 36,000 306 431 0
2022-08-16 11:44:37 GMT 48.222904 16.547073 36,000 306 431 0
2022-08-16 11:44:34 GMT 48.220577 16.551914 36,000 306 431 0
2022-08-16 11:44:30 GMT 48.216522 16.560341 36,000 306 431 0
2022-08-16 11:44:27 GMT 48.212990 16.567600 36,000 306 431 0
2022-08-16 11:44:24 GMT 48.208427 16.576996 36,000 306 431 0
2022-08-16 11:44:21 GMT 48.205635 16.582779 36,000 306 431 0
2022-08-16 11:44:18 GMT 48.201538 16.591162 36,000 306 431 0
2022-08-16 11:44:15 GMT 48.194786 16.605185 36,000 306 431 0
2022-08-16 11:44:12 GMT 48.194786 16.605185 36,000 306 431 0
2022-08-16 11:44:09 GMT 48.191254 16.612385 36,000 306 431 0
2022-08-16 11:44:06 GMT 48.188004 16.619144 36,000 306 430 0
2022-08-16 11:44:03 GMT 48.184387 16.626610 36,000 306 431 0
2022-08-16 11:44:00 GMT 48.182034 16.631422 36,000 306 430 0
2022-08-16 11:43:58 GMT 48.178402 16.638866 36,000 306 430 0
2022-08-16 11:43:54 GMT 48.169231 16.657948 36,000 306 431 0
2022-08-16 11:43:50 GMT 48.169231 16.657948 36,000 307 430 0
2022-08-16 11:43:47 GMT 48.166992 16.662527 36,000 307 430 0
2022-08-16 11:43:44 GMT 48.159176 16.678583 36,000 307 430 0
2022-08-16 11:43:41 GMT 48.159176 16.678583 36,000 307 430 0
2022-08-16 11:43:38 GMT 48.152252 16.692764 36,000 307 430 0
2022-08-16 11:43:35 GMT 48.148281 16.700979 36,000 307 430 64
2022-08-16 11:43:32 GMT 48.145813 16.705980 36,000 307 430 64
2022-08-16 11:43:29 GMT 48.145813 16.705980 36,000 307 430 64
2022-08-16 11:43:27 GMT 48.139938 16.717964 36,000 307 430 0
2022-08-16 11:43:24 GMT 48.139938 16.717964 36,000 307 430 0
2022-08-16 11:43:21 GMT 48.131615 16.735065 36,000 307 430 0
2022-08-16 11:43:18 GMT 48.131615 16.735065 36,000 307 431 0
2022-08-16 11:43:15 GMT 48.127853 16.742752 36,000 307 431 0
2022-08-16 11:43:12 GMT 48.125153 16.748245 36,000 307 431 0
2022-08-16 11:43:09 GMT 48.121765 16.755249 36,000 307 432 0
2022-08-16 11:43:06 GMT 48.115173 16.768707 36,000 307 432 0
2022-08-16 11:43:03 GMT 48.115173 16.768707 36,000 307 432 0
2022-08-16 11:43:00 GMT 48.106476 16.786491 36,000 307 432 0
2022-08-16 11:42:57 GMT 48.105175 16.789152 36,000 307 432 0
2022-08-16 11:42:51 GMT 48.100330 16.799011 36,000 307 432 0
2022-08-16 11:42:48 GMT 48.097305 16.805279 36,000 307 432 0
2022-08-16 11:42:45 GMT 48.094345 16.811279 36,000 307 432 0
2022-08-16 11:42:42 GMT 48.090836 16.818520 36,000 307 432 0
2022-08-16 11:42:39 GMT 48.086792 16.826660 36,000 307 432 0
2022-08-16 11:42:36 GMT 48.079151 16.842323 36,000 307 432 -64
2022-08-16 11:42:33 GMT 48.079151 16.842323 36,000 307 432 0
2022-08-16 11:42:29 GMT 48.072418 16.855980 36,000 307 432 64
2022-08-16 11:42:27 GMT 48.068985 16.862984 36,000 307 432 64
2022-08-16 11:42:24 GMT 48.068985 16.862984 36,000 307 432 0
2022-08-16 11:42:20 GMT 48.064533 16.872112 36,000 307 432 0
2022-08-16 11:42:17 GMT 48.060158 16.880985 36,000 307 432 0
2022-08-16 11:42:14 GMT 48.057083 16.887255 36,000 307 432 0
2022-08-16 11:42:11 GMT 48.052940 16.895636 36,000 307 432 0
2022-08-16 11:42:08 GMT 48.050198 16.901197 36,000 307 432 0
2022-08-16 11:42:05 GMT 48.046921 16.907890 36,000 307 432 0
2022-08-16 11:42:02 GMT 48.042423 16.917044 36,000 307 433 0
2022-08-16 11:41:59 GMT 48.039677 16.922537 36,000 307 433 0
2022-08-16 11:41:56 GMT 48.036278 16.929508 36,000 307 433 0
2022-08-16 11:41:53 GMT 48.028656 16.944901 36,000 307 433 0
2022-08-16 11:41:50 GMT 48.028656 16.944901 36,000 307 433 0
2022-08-16 11:41:47 GMT 48.025337 16.951624 36,000 307 433 0
2022-08-16 11:41:44 GMT 48.020588 16.961271 36,000 307 433 0
2022-08-16 11:41:41 GMT 48.012543 16.977654 36,000 307 434 0
2022-08-16 11:41:37 GMT 48.012543 16.977654 36,000 307 434 0
2022-08-16 11:41:34 GMT 48.009064 16.984589 36,000 307 434 0
2022-08-16 11:41:31 GMT 48.005737 16.991343 36,000 307 434 0
2022-08-16 11:41:28 GMT 48.002655 16.997566 36,000 307 434 0
2022-08-16 11:41:26 GMT 47.999779 17.003386 36,000 307 434 0
2022-08-16 11:41:21 GMT 47.990982 17.021202 36,000 307 434 -64
2022-08-16 11:41:18 GMT 47.987137 17.028877 36,000 307 434 -64
2022-08-16 11:41:15 GMT 47.987137 17.028877 36,000 307 434 0
2022-08-16 11:41:12 GMT 47.984043 17.035147 36,000 307 434 0
2022-08-16 11:41:09 GMT 47.980366 17.042612 36,000 307 434 0
2022-08-16 11:41:06 GMT 47.977020 17.049339 36,000 307 434 0
2022-08-16 11:41:03 GMT 47.971893 17.059725 36,000 307 434 0
2022-08-16 11:41:00 GMT 47.970200 17.063072 36,000 307 435 0
2022-08-16 11:40:57 GMT 47.965935 17.071768 36,000 307 435 0
2022-08-16 11:40:55 GMT 47.961979 17.079725 36,000 307 435 0
2022-08-16 11:40:52 GMT 47.959465 17.084797 36,000 307 435 0
2022-08-16 11:40:49 GMT 47.956020 17.091768 36,000 307 435 0
2022-08-16 11:40:45 GMT 47.951645 17.100782 36,000 304 435 0
2022-08-16 11:40:42 GMT 47.947502 17.109657 36,000 304 434 0
2022-08-16 11:40:38 GMT 47.944149 17.117050 36,000 304 436 0
2022-08-16 11:40:35 GMT 47.940170 17.126106 36,000 304 436 0
2022-08-16 11:40:32 GMT 47.936890 17.133600 36,000 304 436 0
2022-08-16 11:40:28 GMT 47.932793 17.142897 36,000 304 436 0
2022-08-16 11:40:25 GMT 47.929161 17.151136 36,000 304 436 0
2022-08-16 11:40:22 GMT 47.924969 17.160715 36,000 304 436 0
2022-08-16 11:40:18 GMT 47.920876 17.170012 36,000 304 436 0
2022-08-16 11:40:14 GMT 47.912682 17.188534 36,000 304 436 0
2022-08-16 11:40:10 GMT 47.909470 17.195856 36,000 304 437 0
2022-08-16 11:40:07 GMT 47.909470 17.195856 36,000 304 437 0
2022-08-16 11:40:04 GMT 47.906258 17.203112 36,000 304 437 0
2022-08-16 11:40:01 GMT 47.902626 17.211420 36,000 304 437 0
2022-08-16 11:39:58 GMT 47.899292 17.218941 36,000 304 437 0
2022-08-16 11:39:55 GMT 47.895317 17.227970 36,000 304 437 0
2022-08-16 11:39:49 GMT 47.886612 17.247849 36,000 304 437 0
2022-08-16 11:39:46 GMT 47.886612 17.247849 36,000 304 437 0
2022-08-16 11:39:44 GMT 47.883636 17.254646 36,000 304 437 0
2022-08-16 11:39:40 GMT 47.878979 17.265156 36,000 304 437 0
2022-08-16 11:39:37 GMT 47.875530 17.272972 36,000 304 437 0
2022-08-16 11:39:34 GMT 47.872192 17.280464 36,000 304 437 0
2022-08-16 11:39:30 GMT 47.868408 17.289030 36,000 304 437 64
2022-08-16 11:39:27 GMT 47.864964 17.296776 36,000 304 437 64
2022-08-16 11:39:24 GMT 47.862171 17.303043 36,000 304 437 0
2022-08-16 11:39:21 GMT 47.858368 17.311569 36,000 304 438 0
2022-08-16 11:39:18 GMT 47.851509 17.326847 36,000 304 438 0
2022-08-16 11:39:15 GMT 47.851509 17.326847 36,000 304 438 0
2022-08-16 11:39:12 GMT 47.848812 17.332905 36,000 304 439 -64
2022-08-16 11:39:09 GMT 47.843582 17.344666 36,000 304 439 -64
2022-08-16 11:39:05 GMT 47.839733 17.353188 36,000 304 439 -64
2022-08-16 11:39:02 GMT 47.832870 17.368492 36,000 304 443 0
2022-08-16 11:38:59 GMT 47.832870 17.368492 36,000 304 439 0
2022-08-16 11:38:56 GMT 47.829712 17.375496 36,000 304 439 0
2022-08-16 11:38:53 GMT 47.827377 17.380783 36,000 304 439 0
2022-08-16 11:38:50 GMT 47.823997 17.388260 36,000 304 439 0
2022-08-16 11:38:47 GMT 47.815979 17.406120 36,000 304 439 64
2022-08-16 11:38:44 GMT 47.815979 17.406120 36,000 304 440 0
2022-08-16 11:38:40 GMT 47.809021 17.421707 36,000 304 440 0
2022-08-16 11:38:37 GMT 47.809021 17.421707 36,000 304 440 0
2022-08-16 11:38:34 GMT 47.805656 17.429247 36,000 304 440 0
2022-08-16 11:38:32 GMT 47.803329 17.434528 36,000 304 440 0
2022-08-16 11:38:29 GMT 47.800415 17.441071 36,000 304 440 0
2022-08-16 11:38:26 GMT 47.795925 17.451147 36,000 304 440 0
2022-08-16 11:38:23 GMT 47.793461 17.456713 36,000 304 441 0
2022-08-16 11:38:20 GMT 47.788651 17.467575 36,000 304 441 0
2022-08-16 11:38:17 GMT 47.786453 17.472656 36,000 304 440 0
2022-08-16 11:38:14 GMT 47.782192 17.482277 36,000 304 440 64
2022-08-16 11:38:11 GMT 47.775833 17.496689 36,000 304 440 0
2022-08-16 11:38:08 GMT 47.775833 17.496689 36,000 304 441 0
2022-08-16 11:38:05 GMT 47.772045 17.505236 36,000 304 441 0
2022-08-16 11:38:02 GMT 47.769928 17.510078 36,000 304 442 0
2022-08-16 11:37:59 GMT 47.766357 17.518181 36,000 304 442 64
2022-08-16 11:37:56 GMT 47.762783 17.526293 36,000 304 441 0
2022-08-16 11:37:53 GMT 47.759895 17.532843 36,000 304 441 0
2022-08-16 11:37:51 GMT 47.758221 17.536646 36,000 304 441 64
2022-08-16 11:37:48 GMT 47.753265 17.547775 36,000 304 443 0
2022-08-16 11:37:45 GMT 47.750427 17.554092 36,000 304 444 0
2022-08-16 11:37:41 GMT 47.746490 17.562950 36,000 304 444 0
2022-08-16 11:37:38 GMT 47.742554 17.571808 36,000 304 443 0
2022-08-16 11:37:35 GMT 47.736328 17.585747 36,000 304 443 -64
2022-08-16 11:37:32 GMT 47.736328 17.585747 36,000 304 447 0
2022-08-16 11:37:29 GMT 47.731266 17.597139 36,000 304 443 0
2022-08-16 11:37:26 GMT 47.724792 17.611565 36,000 304 443 0
2022-08-16 11:37:23 GMT 47.724792 17.611565 36,000 304 445 0
2022-08-16 11:37:20 GMT 47.719299 17.623993 36,000 304 443 0
2022-08-16 11:37:17 GMT 47.719299 17.623993 36,000 304 443 0
2022-08-16 11:37:14 GMT 47.713482 17.636860 36,000 304 445 0
2022-08-16 11:37:09 GMT 47.705570 17.654608 36,000 304 445 0
2022-08-16 11:37:05 GMT 47.705570 17.654608 36,000 304 445 0
2022-08-16 11:37:01 GMT 47.700806 17.665260 36,000 304 445 0
2022-08-16 11:36:57 GMT 47.693188 17.682283 36,000 304 445 0
2022-08-16 11:36:54 GMT 47.693188 17.682283 36,000 304 445 0
2022-08-16 11:36:52 GMT 47.690811 17.687635 36,000 304 445 0
2022-08-16 11:36:49 GMT 47.687553 17.694960 36,000 304 445 0
2022-08-16 11:36:46 GMT 47.682667 17.705875 36,000 304 445 0
2022-08-16 11:36:43 GMT 47.679359 17.713270 36,000 304 445 0
2022-08-16 11:36:39 GMT 47.676056 17.720594 36,000 304 445 0
2022-08-16 11:36:34 GMT 47.670227 17.733582 36,000 304 445 0
2022-08-16 11:36:31 GMT 47.665558 17.743950 36,000 304 445 0
2022-08-16 11:36:27 GMT 47.662136 17.751581 36,000 304 446 0
2022-08-16 11:36:24 GMT 47.658600 17.759470 36,000 304 447 0
2022-08-16 11:36:22 GMT 47.655167 17.767090 36,000 304 447 0
2022-08-16 11:36:19 GMT 47.652191 17.773682 36,000 304 447 0
2022-08-16 11:36:16 GMT 47.649536 17.779518 36,000 304 447 0
2022-08-16 11:36:13 GMT 47.645657 17.788134 36,000 304 447 0
2022-08-16 11:36:10 GMT 47.642899 17.794281 36,000 304 447 0
2022-08-16 11:36:07 GMT 47.639000 17.802921 36,000 304 447 0
2022-08-16 11:36:03 GMT 47.634659 17.812546 36,000 304 447 -64
2022-08-16 11:36:00 GMT 47.628113 17.827034 36,000 304 447 0
2022-08-16 11:35:57 GMT 47.628113 17.827034 36,000 304 447 0
2022-08-16 11:35:54 GMT 47.620789 17.843307 36,000 304 447 0
2022-08-16 11:35:50 GMT 47.620789 17.843307 36,000 304 447 0
2022-08-16 11:35:47 GMT 47.617352 17.850882 36,000 304 447 0
2022-08-16 11:35:44 GMT 47.612885 17.860811 36,000 304 447 64
2022-08-16 11:35:41 GMT 47.609531 17.868135 36,000 304 447 64
2022-08-16 11:35:34 GMT 47.601379 17.886154 36,000 304 448 -64
2022-08-16 11:35:31 GMT 47.597488 17.894806 36,000 304 448 -64
2022-08-16 11:35:26 GMT 47.592262 17.906237 36,000 304 448 -64
2022-08-16 11:35:22 GMT 47.588585 17.914335 36,000 304 448 -64
2022-08-16 11:35:19 GMT 47.583279 17.926025 36,000 304 448 0
2022-08-16 11:35:14 GMT 47.578667 17.936167 36,000 304 448 0
2022-08-16 11:35:10 GMT 47.569107 17.957222 36,000 304 448 0
2022-08-16 11:35:07 GMT 47.569107 17.957222 36,000 304 448 0
2022-08-16 11:35:03 GMT 47.563305 17.969900 36,000 304 448 0
2022-08-16 11:35:00 GMT 47.563305 17.969900 36,000 305 448 0
2022-08-16 11:34:57 GMT 47.558578 17.980293 36,000 305 448 0
2022-08-16 11:34:54 GMT 47.554504 17.989220 36,000 305 448 0
2022-08-16 11:34:50 GMT 47.550598 17.997789 36,000 305 448 0
2022-08-16 11:34:47 GMT 47.545944 18.007965 36,000 305 448 0
2022-08-16 11:34:42 GMT 47.541687 18.017372 36,000 305 448 0
2022-08-16 11:34:39 GMT 47.538448 18.024481 36,000 305 448 0
2022-08-16 11:34:35 GMT 47.533932 18.034410 36,000 304 449 0
2022-08-16 11:34:32 GMT 47.529510 18.044014 36,000 304 449 0
2022-08-16 11:34:29 GMT 47.526627 18.050400 36,000 304 449 0
2022-08-16 11:34:25 GMT 47.521641 18.061312 36,000 304 449 0
2022-08-16 11:34:22 GMT 47.517593 18.070187 36,000 304 449 0
2022-08-16 11:34:18 GMT 47.514084 18.077797 36,000 304 449 0
2022-08-16 11:34:14 GMT 47.509445 18.088003 36,000 304 449 0
2022-08-16 11:34:11 GMT 47.505627 18.096384 36,000 304 449 0
2022-08-16 11:34:08 GMT 47.498108 18.112885 36,000 304 449 0
2022-08-16 11:34:05 GMT 47.494492 18.120712 36,000 304 449 0
2022-08-16 11:34:02 GMT 47.490921 18.128609 36,000 304 449 0
2022-08-16 11:33:58 GMT 47.490921 18.128609 36,000 304 449 0
2022-08-16 11:33:55 GMT 47.486729 18.137724 36,000 304 449 0
2022-08-16 11:33:51 GMT 47.482544 18.146873 36,000 304 449 0
2022-08-16 11:33:48 GMT 47.479294 18.154015 36,000 304 449 0
2022-08-16 11:33:45 GMT 47.475723 18.161842 36,000 304 449 0
2022-08-16 11:33:42 GMT 47.468666 18.177374 36,000 304 449 0
2022-08-16 11:33:39 GMT 47.465195 18.184982 36,000 304 449 0
2022-08-16 11:33:36 GMT 47.465195 18.184982 36,000 304 449 0
2022-08-16 11:33:33 GMT 47.461964 18.192093 36,000 304 449 0
2022-08-16 11:33:30 GMT 47.454666 18.208122 36,000 304 449 0
2022-08-16 11:33:27 GMT 47.454666 18.208122 36,000 304 449 0
2022-08-16 11:33:24 GMT 47.450638 18.217049 36,000 304 449 0
2022-08-16 11:33:21 GMT 47.448441 18.221855 36,000 304 449 0
2022-08-16 11:33:18 GMT 47.444038 18.231459 36,000 304 449 0
2022-08-16 11:33:15 GMT 47.440567 18.239090 36,000 304 449 0
2022-08-16 11:33:12 GMT 47.435806 18.249527 36,000 304 449 0
2022-08-16 11:33:09 GMT 47.432419 18.256874 36,000 304 449 64
2022-08-16 11:33:06 GMT 47.429886 18.262445 36,000 304 449 64
2022-08-16 11:33:03 GMT 47.426769 18.269278 36,000 305 449 -64
2022-08-16 11:33:00 GMT 47.423138 18.277164 36,000 305 449 0
2022-08-16 11:32:57 GMT 47.419647 18.284752 36,000 305 449 -64
2022-08-16 11:32:53 GMT 47.415455 18.293856 36,000 305 448 0
2022-08-16 11:32:50 GMT 47.411175 18.303223 36,000 305 449 0
2022-08-16 11:32:46 GMT 47.406418 18.313591 36,000 304 449 0
2022-08-16 11:32:42 GMT 47.403030 18.321007 36,000 304 449 -64
2022-08-16 11:32:39 GMT 47.398884 18.330126 36,000 304 449 0
2022-08-16 11:32:36 GMT 47.395386 18.337692 36,000 305 450 0
2022-08-16 11:32:33 GMT 47.387054 18.355957 36,000 305 448 0
2022-08-16 11:32:29 GMT 47.387054 18.355957 36,000 304 449 -64
2022-08-16 11:32:26 GMT 47.384583 18.361244 36,000 304 449 -64
2022-08-16 11:32:23 GMT 47.380077 18.371183 36,000 304 449 -64
2022-08-16 11:32:20 GMT 47.376118 18.379774 36,000 304 449 -64
2022-08-16 11:32:16 GMT 47.370998 18.390902 36,000 305 450 0
2022-08-16 11:32:13 GMT 47.367508 18.398529 36,000 305 449 0
2022-08-16 11:32:07 GMT 47.361454 18.411676 36,000 305 449 0
2022-08-16 11:32:04 GMT 47.358215 18.418716 36,000 305 449 0
2022-08-16 11:32:01 GMT 47.354706 18.426327 36,000 305 449 0
2022-08-16 11:31:58 GMT 47.351212 18.433960 36,000 305 446 0
2022-08-16 11:31:55 GMT 47.344139 18.449354 36,000 305 449 0
2022-08-16 11:31:52 GMT 47.339447 18.459435 36,000 305 448 0
2022-08-16 11:31:49 GMT 47.339447 18.459435 36,000 305 449 0
2022-08-16 11:31:45 GMT 47.335144 18.468773 36,000 305 448 0
2022-08-16 11:31:42 GMT 47.332592 18.474356 36,000 305 448 0
2022-08-16 11:31:39 GMT 47.328644 18.482918 36,000 305 448 0
2022-08-16 11:31:35 GMT 47.324913 18.490976 36,000 305 448 0
2022-08-16 11:31:32 GMT 47.320583 18.500343 36,000 305 448 0
2022-08-16 11:31:27 GMT 47.315689 18.510933 36,000 305 449 0
2022-08-16 11:31:24 GMT 47.311646 18.519711 36,000 305 448 0
2022-08-16 11:31:21 GMT 47.302521 18.539358 36,000 305 448 0
2022-08-16 11:31:16 GMT 47.302521 18.539358 36,000 305 449 0
2022-08-16 11:31:13 GMT 47.298798 18.547394 36,000 305 448 0
2022-08-16 11:31:10 GMT 47.295868 18.553711 36,000 305 448 0
2022-08-16 11:31:06 GMT 47.287392 18.572037 36,000 305 448 0
2022-08-16 11:31:03 GMT 47.287392 18.572037 36,000 305 448 0
2022-08-16 11:31:00 GMT 47.284458 18.578302 36,000 305 447 0
2022-08-16 11:30:56 GMT 47.278748 18.590652 36,000 305 446 0
2022-08-16 11:30:52 GMT 47.272934 18.603149 36,000 305 447 0
2022-08-16 11:30:49 GMT 47.269638 18.610222 36,000 305 446 0
2022-08-16 11:30:46 GMT 47.266163 18.617743 36,000 305 446 0
2022-08-16 11:30:43 GMT 47.263462 18.623516 36,000 305 446 0
2022-08-16 11:30:40 GMT 47.260574 18.629723 36,000 305 446 64
2022-08-16 11:30:37 GMT 47.254150 18.643517 36,000 305 446 0
2022-08-16 11:30:34 GMT 47.254150 18.643517 36,000 305 446 64
2022-08-16 11:30:31 GMT 47.245075 18.663025 36,000 305 446 0
2022-08-16 11:30:28 GMT 47.245075 18.663025 36,000 305 445 0
2022-08-16 11:30:25 GMT 47.242840 18.667814 36,000 305 446 0
2022-08-16 11:30:22 GMT 47.238190 18.677788 36,000 305 446 0
2022-08-16 11:30:19 GMT 47.230957 18.693306 36,000 305 446 0
2022-08-16 11:30:16 GMT 47.230957 18.693306 36,000 305 446 64
2022-08-16 11:30:13 GMT 47.229813 18.695778 36,000 305 446 64
2022-08-16 11:30:10 GMT 47.225849 18.704294 36,000 305 446 0
2022-08-16 11:30:07 GMT 47.221207 18.714317 36,000 305 446 0
2022-08-16 11:30:04 GMT 47.218277 18.720566 36,000 305 446 0
2022-08-16 11:29:59 GMT 47.213058 18.731827 36,000 305 446 0
2022-08-16 11:29:56 GMT 47.209213 18.740067 36,000 305 446 0
2022-08-16 11:29:53 GMT 47.206055 18.746796 36,000 305 446 0
2022-08-16 11:29:50 GMT 47.201294 18.757027 36,000 305 446 0
2022-08-16 11:29:46 GMT 47.198009 18.764015 36,000 305 446 0
2022-08-16 11:29:43 GMT 47.194145 18.772255 36,000 305 446 0
2022-08-16 11:29:39 GMT 47.189941 18.781197 36,000 305 446 0
2022-08-16 11:29:36 GMT 47.184952 18.791908 36,000 305 446 0
2022-08-16 11:29:33 GMT 47.182251 18.797676 36,000 305 446 0
2022-08-16 11:29:30 GMT 47.178738 18.805143 36,000 305 446 0
2022-08-16 11:29:26 GMT 47.173710 18.815847 36,000 305 446 0
2022-08-16 11:29:23 GMT 47.170441 18.822807 36,000 305 446 0
2022-08-16 11:29:18 GMT 47.164948 18.834549 36,000 305 446 0
2022-08-16 11:29:15 GMT 47.161469 18.841974 36,000 305 446 0
2022-08-16 11:29:12 GMT 47.158173 18.848969 36,000 305 446 0
2022-08-16 11:29:08 GMT 47.148514 18.869637 36,000 305 446 0
2022-08-16 11:29:05 GMT 47.148514 18.869637 36,000 305 446 0
2022-08-16 11:29:02 GMT 47.146755 18.873384 36,000 305 446 0
2022-08-16 11:28:58 GMT 47.141281 18.885086 36,000 305 446 0
2022-08-16 11:28:55 GMT 47.136017 18.896278 36,000 305 446 0
2022-08-16 11:28:52 GMT 47.134369 18.899780 36,000 305 446 0
2022-08-16 11:28:49 GMT 47.130066 18.908981 36,000 305 446 0
2022-08-16 11:28:45 GMT 47.125626 18.918457 36,000 305 446 0
2022-08-16 11:28:41 GMT 47.122467 18.925186 36,000 305 446 0
2022-08-16 11:28:38 GMT 47.118256 18.934181 36,000 305 446 0
2022-08-16 11:28:34 GMT 47.111797 18.947824 36,000 305 447 0
2022-08-16 11:28:31 GMT 47.110634 18.950359 36,000 305 447 0
2022-08-16 11:28:27 GMT 47.105118 18.962059 36,000 305 447 0
2022-08-16 11:28:24 GMT 47.101601 18.969515 36,000 305 447 0
2022-08-16 11:28:21 GMT 47.093628 18.986435 36,000 305 447 0
2022-08-16 11:28:18 GMT 47.093628 18.986435 36,000 305 447 0
2022-08-16 11:28:14 GMT 47.089371 18.995361 36,000 305 447 0
2022-08-16 11:28:11 GMT 47.086578 19.001335 36,000 305 447 0
2022-08-16 11:28:07 GMT 47.081635 19.011772 36,000 305 446 0
2022-08-16 11:28:04 GMT 47.074448 19.026947 36,000 305 446 0
2022-08-16 11:28:01 GMT 47.074448 19.026947 36,000 302 446 0
2022-08-16 11:27:58 GMT 47.071621 19.032898 36,000 305 446 0
2022-08-16 11:27:53 GMT 47.063847 19.049236 36,000 305 446 0
2022-08-16 11:27:50 GMT 47.062317 19.052490 36,000 302 446 0
2022-08-16 11:27:47 GMT 47.058773 19.059940 36,000 305 446 0
2022-08-16 11:27:43 GMT 47.050507 19.077278 36,000 305 446 0
2022-08-16 11:27:40 GMT 47.050507 19.077278 36,000 302 446 0
2022-08-16 11:27:37 GMT 47.046661 19.085518 36,000 305 447 0
2022-08-16 11:27:33 GMT 47.037964 19.103851 36,000 305 446 0
2022-08-16 11:27:30 GMT 47.037964 19.103851 36,000 302 446 0
2022-08-16 11:27:27 GMT 47.035358 19.109308 36,000 303 446 64
2022-08-16 11:27:24 GMT 47.031166 19.118605 36,000 302 446 64
2022-08-16 11:27:20 GMT 47.021210 19.142303 36,000 302 446 0
2022-08-16 11:27:15 GMT 47.021210 19.142303 36,000 302 446 0
2022-08-16 11:27:11 GMT 47.017273 19.151848 36,000 302 446 0
2022-08-16 11:27:08 GMT 47.013702 19.160362 36,000 302 446 0
2022-08-16 11:27:05 GMT 47.010498 19.168043 36,000 302 446 0
2022-08-16 11:27:02 GMT 47.002487 19.187416 36,000 302 446 0
2022-08-16 11:26:58 GMT 47.002487 19.187416 36,000 302 446 0
2022-08-16 11:26:54 GMT 46.999466 19.194593 36,000 302 446 -64
2022-08-16 11:26:51 GMT 46.996262 19.202385 36,000 302 446 0
2022-08-16 11:26:47 GMT 46.991318 19.214243 36,000 302 446 0
2022-08-16 11:26:43 GMT 46.987518 19.223534 36,000 302 446 0
2022-08-16 11:26:40 GMT 46.984287 19.231285 36,000 302 447 0
2022-08-16 11:26:37 GMT 46.980984 19.239244 36,000 302 447 0
2022-08-16 11:26:34 GMT 46.974472 19.255051 36,000 302 447 0
2022-08-16 11:26:31 GMT 46.974472 19.255051 36,000 302 447 -64
2022-08-16 11:26:27 GMT 46.969528 19.266930 36,000 302 447 -64
2022-08-16 11:26:24 GMT 46.966740 19.273611 36,000 302 446 -64
2022-08-16 11:26:21 GMT 46.963760 19.280869 36,000 302 446 0
2022-08-16 11:26:18 GMT 46.960419 19.288834 36,000 302 446 0
2022-08-16 11:26:15 GMT 46.957939 19.294739 36,000 302 446 64
2022-08-16 11:26:11 GMT 46.952587 19.307627 36,000 302 447 0
2022-08-16 11:26:06 GMT 46.947327 19.320282 36,000 302 447 0
2022-08-16 11:26:01 GMT 46.936707 19.345757 36,000 302 447 0
2022-08-16 11:25:56 GMT 46.936707 19.345757 36,000 302 447 0
2022-08-16 11:25:50 GMT 46.924988 19.373840 36,000 302 447 0
2022-08-16 11:25:46 GMT 46.924988 19.373840 36,000 302 447 0
2022-08-16 11:25:43 GMT 46.922188 19.380587 36,000 302 447 0
2022-08-16 11:25:38 GMT 46.917534 19.391644 36,000 302 447 0
2022-08-16 11:25:35 GMT 46.913452 19.401443 36,000 302 447 0
2022-08-16 11:25:30 GMT 46.908966 19.412292 36,000 302 447 0
2022-08-16 11:25:25 GMT 46.902283 19.428223 36,000 302 447 0
2022-08-16 11:25:22 GMT 46.900215 19.433125 36,000 302 447 0
2022-08-16 11:25:19 GMT 46.896866 19.441082 36,000 302 447 0
2022-08-16 11:25:15 GMT 46.892670 19.451157 36,000 302 447 0
2022-08-16 11:25:12 GMT 46.889877 19.457817 36,000 302 447 0
2022-08-16 11:25:09 GMT 46.885784 19.467562 36,000 302 447 0
2022-08-16 11:25:05 GMT 46.881775 19.477112 36,000 302 447 0
2022-08-16 11:25:02 GMT 46.878525 19.484802 36,000 302 447 0
2022-08-16 11:24:59 GMT 46.871960 19.500450 36,000 302 447 0
2022-08-16 11:24:56 GMT 46.871960 19.500450 36,000 302 447 0
2022-08-16 11:24:53 GMT 46.867210 19.511719 36,000 302 447 0
2022-08-16 11:24:49 GMT 46.863720 19.519958 36,000 302 447 0
2022-08-16 11:24:45 GMT 46.861019 19.526344 36,000 302 447 0
2022-08-16 11:24:42 GMT 46.856369 19.537376 36,000 302 447 0
2022-08-16 11:24:39 GMT 46.853664 19.543716 36,000 302 447 0
2022-08-16 11:24:36 GMT 46.850544 19.551201 36,000 302 447 0
2022-08-16 11:24:33 GMT 46.845562 19.563011 36,000 302 447 0
2022-08-16 11:24:29 GMT 46.843506 19.567856 36,000 302 446 0
2022-08-16 11:24:24 GMT 46.837463 19.582191 36,000 302 446 0
2022-08-16 11:24:21 GMT 46.833801 19.590900 36,000 302 446 0
2022-08-16 11:24:16 GMT 46.829082 19.602219 36,000 302 445 0
2022-08-16 11:24:12 GMT 46.822380 19.618080 36,000 302 446 0
2022-08-16 11:24:09 GMT 46.816864 19.631096 36,000 302 445 0
2022-08-16 11:24:05 GMT 46.816864 19.631096 36,000 302 445 0
2022-08-16 11:24:01 GMT 46.809265 19.648914 36,000 302 445 0
2022-08-16 11:23:57 GMT 46.809265 19.648914 36,000 302 445 0
2022-08-16 11:23:53 GMT 46.804504 19.660172 36,000 302 445 0
2022-08-16 11:23:49 GMT 46.800385 19.669815 36,000 302 445 0
2022-08-16 11:23:46 GMT 46.796494 19.678991 36,000 302 446 0
2022-08-16 11:23:43 GMT 46.793331 19.686401 36,000 302 445 0
2022-08-16 11:23:40 GMT 46.789444 19.695606 36,000 302 446 0
2022-08-16 11:23:37 GMT 46.786583 19.702538 36,000 302 446 0
2022-08-16 11:23:33 GMT 46.782349 19.712420 36,000 302 445 0
2022-08-16 11:23:29 GMT 46.778778 19.720861 36,000 302 446 0
2022-08-16 11:23:26 GMT 46.775734 19.728012 36,000 302 446 0
2022-08-16 11:23:23 GMT 46.770988 19.739204 36,000 302 445 0
2022-08-16 11:23:19 GMT 46.764332 19.755066 36,000 302 445 0
2022-08-16 11:23:16 GMT 46.764332 19.755066 36,000 302 445 0
2022-08-16 11:23:13 GMT 46.760559 19.764002 36,000 302 445 0
2022-08-16 11:23:07 GMT 46.754181 19.779099 36,000 302 446 0
2022-08-16 11:23:02 GMT 46.749664 19.789793 36,000 302 446 0
2022-08-16 11:22:59 GMT 46.745453 19.799774 36,000 302 446 0
2022-08-16 11:22:55 GMT 46.741055 19.810204 36,000 302 446 0
2022-08-16 11:22:52 GMT 46.738682 19.815834 36,000 302 445 0
2022-08-16 11:22:47 GMT 46.732067 19.831421 36,000 302 445 0
2022-08-16 11:22:44 GMT 46.729694 19.836983 36,000 302 445 0
2022-08-16 11:22:41 GMT 46.724945 19.848209 36,000 302 446 -64
2022-08-16 11:22:38 GMT 46.721966 19.855385 36,000 302 446 -64
2022-08-16 11:22:34 GMT 46.718803 19.862732 36,000 302 446 -64
2022-08-16 11:22:29 GMT 46.714188 19.873732 36,000 302 446 -64
2022-08-16 11:22:26 GMT 46.710049 19.883400 36,000 302 446 -64
2022-08-16 11:22:23 GMT 46.700317 19.906357 36,000 302 445 0
2022-08-16 11:22:18 GMT 46.700317 19.906357 36,000 302 445 64
2022-08-16 11:22:14 GMT 46.692307 19.925180 36,000 302 445 0
2022-08-16 11:22:09 GMT 46.692307 19.925180 36,000 302 445 0
2022-08-16 11:22:06 GMT 46.685165 19.941994 36,000 302 445 -64
2022-08-16 11:22:03 GMT 46.685165 19.941994 36,000 302 445 0
2022-08-16 11:21:56 GMT 46.678253 19.958273 36,000 302 445 -64
2022-08-16 11:21:53 GMT 46.674637 19.966646 36,000 302 445 0
2022-08-16 11:21:48 GMT 46.669556 19.978571 36,000 302 445 0
2022-08-16 11:21:45 GMT 46.665546 19.987976 36,000 302 444 0
2022-08-16 11:21:42 GMT 46.662937 19.994087 36,000 302 445 0
2022-08-16 11:21:38 GMT 46.658192 20.005280 36,000 302 445 0
2022-08-16 11:21:35 GMT 46.653954 20.015167 36,000 302 445 0
2022-08-16 11:21:32 GMT 46.651627 20.020454 36,000 302 445 0
2022-08-16 11:21:29 GMT 46.647308 20.030622 36,000 302 445 0
2022-08-16 11:21:24 GMT 46.643200 20.040298 36,000 302 445 0
2022-08-16 11:21:21 GMT 46.639252 20.049379 36,000 302 445 0
2022-08-16 11:21:18 GMT 46.636688 20.055475 36,000 302 445 0
2022-08-16 11:21:14 GMT 46.631332 20.067867 36,000 302 444 0
2022-08-16 11:21:10 GMT 46.627670 20.076443 36,000 302 444 0
2022-08-16 11:21:06 GMT 46.622906 20.087608 36,000 302 444 0
2022-08-16 11:21:02 GMT 46.618561 20.097746 36,000 302 444 0
2022-08-16 11:20:57 GMT 46.614246 20.107864 36,000 302 444 0
2022-08-16 11:20:54 GMT 46.609818 20.118311 36,000 302 444 0
2022-08-16 11:20:50 GMT 46.607075 20.124619 36,000 302 444 0
2022-08-16 11:20:45 GMT 46.600792 20.139313 36,000 302 445 0
2022-08-16 11:20:41 GMT 46.592785 20.158058 36,000 302 445 0
2022-08-16 11:20:38 GMT 46.592785 20.158058 36,000 302 445 0
2022-08-16 11:20:34 GMT 46.589081 20.166677 36,000 302 445 0
2022-08-16 11:20:30 GMT 46.584641 20.176994 36,000 302 445 0
2022-08-16 11:20:25 GMT 46.577682 20.193207 36,000 302 445 0
2022-08-16 11:20:20 GMT 46.573746 20.202347 36,000 302 445 0
2022-08-16 11:20:16 GMT 46.570084 20.210958 36,000 302 445 0
2022-08-16 11:20:12 GMT 46.565086 20.222603 36,000 302 444 0
2022-08-16 11:20:09 GMT 46.562256 20.229179 36,000 302 445 0
2022-08-16 11:20:06 GMT 46.558868 20.237017 36,000 302 444 0
2022-08-16 11:20:03 GMT 46.554337 20.247602 36,000 302 444 0
2022-08-16 11:20:00 GMT 46.552139 20.252693 36,000 303 444 -64
2022-08-16 11:19:57 GMT 46.548141 20.262016 36,000 302 445 64
2022-08-16 11:19:53 GMT 46.544998 20.269373 36,000 302 444 64
2022-08-16 11:19:49 GMT 46.540089 20.280762 36,000 302 444 0
2022-08-16 11:19:44 GMT 46.530312 20.303421 36,000 303 444 -64
2022-08-16 11:19:40 GMT 46.530312 20.303421 36,000 302 445 0
2022-08-16 11:19:36 GMT 46.525749 20.314064 36,000 302 445 0
2022-08-16 11:19:30 GMT 46.515747 20.337301 36,000 302 445 0
2022-08-16 11:19:22 GMT 46.510944 20.348396 36,000 303 444 0
2022-08-16 11:19:18 GMT 46.503357 20.366112 36,000 303 444 -64
2022-08-16 11:19:15 GMT 46.503357 20.366112 36,000 303 444 0
2022-08-16 11:19:11 GMT 46.498096 20.378197 36,000 303 445 0
2022-08-16 11:19:08 GMT 46.495239 20.384729 36,000 303 444 0
2022-08-16 11:19:04 GMT 46.490341 20.396051 36,000 303 444 0
2022-08-16 11:19:01 GMT 46.487595 20.402348 36,000 303 445 64
2022-08-16 11:18:57 GMT 46.483795 20.411192 36,000 303 444 0
2022-08-16 11:18:52 GMT 46.477982 20.424522 36,000 303 444 0
2022-08-16 11:18:48 GMT 46.473633 20.434637 36,000 303 444 0
2022-08-16 11:18:45 GMT 46.470245 20.442408 36,000 303 444 0
2022-08-16 11:18:38 GMT 46.462856 20.459221 36,000 303 443 0
2022-08-16 11:18:35 GMT 46.459274 20.467529 36,000 303 444 -64
2022-08-16 11:18:30 GMT 46.454224 20.479118 36,000 303 443 -64
2022-08-16 11:18:27 GMT 46.451157 20.486086 36,000 303 443 0
2022-08-16 11:18:24 GMT 46.447403 20.494659 36,000 303 443 0
2022-08-16 11:18:19 GMT 46.436646 20.519178 36,000 303 442 0
2022-08-16 11:18:15 GMT 46.436646 20.519178 36,000 303 443 0
2022-08-16 11:18:08 GMT 46.430271 20.533653 36,000 303 443 0
2022-08-16 11:18:04 GMT 46.425430 20.544640 36,000 303 442 0
2022-08-16 11:17:58 GMT 46.418728 20.559814 36,000 303 442 0
2022-08-16 11:17:53 GMT 46.413651 20.571281 36,000 303 442 0
2022-08-16 11:17:49 GMT 46.408577 20.582748 36,000 303 442 0
2022-08-16 11:17:46 GMT 46.400246 20.601700 36,000 303 442 0
2022-08-16 11:17:40 GMT 46.399128 20.604172 36,000 308 441 0
2022-08-16 11:17:37 GMT 46.395962 20.611450 36,000 308 441 0
2022-08-16 11:17:33 GMT 46.391464 20.621607 36,000 303 441 0
2022-08-16 11:17:28 GMT 46.385906 20.634315 36,000 308 441 0
2022-08-16 11:17:24 GMT 46.379902 20.648048 36,000 303 441 0
2022-08-16 11:17:19 GMT 46.374454 20.660545 36,000 303 442 0
2022-08-16 11:17:16 GMT 46.372547 20.665077 36,000 303 441 -64
2022-08-16 11:17:13 GMT 46.369034 20.673054 36,000 304 441 0
2022-08-16 11:17:10 GMT 46.364773 20.682381 36,000 306 441 0
2022-08-16 11:17:06 GMT 46.361187 20.689934 36,000 312 441 0
2022-08-16 11:16:58 GMT 46.351913 20.708223 36,000 310 441 0
2022-08-16 11:16:55 GMT 46.347656 20.716061 36,000 310 441 0
2022-08-16 11:16:49 GMT 46.340103 20.729258 36,000 311 441 0
2022-08-16 11:16:46 GMT 46.336098 20.735870 36,000 313 441 0
2022-08-16 11:16:41 GMT 46.327652 20.749020 36,000 321 440 64
2022-08-16 11:16:38 GMT 46.323528 20.755096 36,000 316 441 0
2022-08-16 11:16:35 GMT 46.320923 20.758867 36,000 319 440 0
2022-08-16 11:16:29 GMT 46.311081 20.772064 36,000 320 440 0
2022-08-16 11:16:25 GMT 46.306320 20.778027 36,000 321 440 64
2022-08-16 11:16:19 GMT 46.297085 20.789085 36,000 321 440 0
2022-08-16 11:16:16 GMT 46.291809 20.795511 36,000 321 440 0
2022-08-16 11:16:09 GMT 46.275253 20.815384 36,000 321 440 0
2022-08-16 11:16:06 GMT 46.265430 20.827194 36,000 321 440 0
2022-08-16 11:16:00 GMT 46.265430 20.827194 36,000 321 439 0
2022-08-16 11:15:57 GMT 46.260590 20.833031 36,000 321 439 64
2022-08-16 11:15:53 GMT 46.248440 20.847656 36,000 321 439 0
2022-08-16 11:15:48 GMT 46.248440 20.847656 36,000 321 439 -64
2022-08-16 11:15:45 GMT 46.243790 20.853325 36,000 321 439 -64
2022-08-16 11:15:36 GMT 46.224747 20.876167 36,000 321 439 0
2022-08-16 11:15:33 GMT 46.224747 20.876167 36,000 321 439 0
2022-08-16 11:15:26 GMT 46.213577 20.889631 36,000 321 438 0
2022-08-16 11:15:23 GMT 46.209229 20.894924 36,000 321 438 0
2022-08-16 11:15:16 GMT 46.197136 20.909523 36,000 321 438 64
2022-08-16 11:15:08 GMT 46.186066 20.922726 36,000 321 438 0
2022-08-16 11:15:04 GMT 46.179680 20.930328 36,000 321 437 0
2022-08-16 11:14:57 GMT 46.168739 20.943237 36,000 321 438 0
2022-08-16 11:14:53 GMT 46.162922 20.950035 36,000 321 437 0
2022-08-16 11:14:45 GMT 46.143089 20.973175 36,000 322 438 0
2022-08-16 11:14:35 GMT 46.120834 20.998892 36,000 322 439 0
2022-08-16 11:14:27 GMT 46.120834 20.998892 36,000 322 439 0
2022-08-16 11:14:23 GMT 46.115112 21.005447 36,000 322 438 0
2022-08-16 11:14:17 GMT 46.105957 21.015907 36,000 322 438 0
2022-08-16 11:14:13 GMT 46.099751 21.023026 36,000 322 438 0
2022-08-16 11:14:07 GMT 46.089432 21.034800 36,000 322 438 64
2022-08-16 11:14:01 GMT 46.080433 21.045135 36,000 322 438 0
2022-08-16 11:13:54 GMT 46.064697 21.063057 36,000 322 439 0
2022-08-16 11:13:47 GMT 46.056923 21.071983 36,000 322 439 0
2022-08-16 11:13:43 GMT 46.051243 21.078506 36,000 322 439 0
2022-08-16 11:13:33 GMT 46.028275 21.104870 36,000 322 438 0
2022-08-16 11:13:22 GMT 46.018330 21.116341 36,000 322 438 0
2022-08-16 11:13:15 GMT 46.007904 21.128357 36,000 322 438 64
2022-08-16 11:13:12 GMT 46.002548 21.134615 36,000 322 438 64
2022-08-16 11:13:05 GMT 45.991005 21.147858 36,000 322 439 64
2022-08-16 11:13:02 GMT 45.986397 21.153145 36,000 322 439 0
2022-08-16 11:12:56 GMT 45.976089 21.164961 36,000 322 439 0
2022-08-16 11:12:51 GMT 45.958786 21.184723 36,000 322 440 0
2022-08-16 11:12:44 GMT 45.958786 21.184723 36,000 322 439 0
2022-08-16 11:12:41 GMT 45.953388 21.190910 36,000 322 439 0
2022-08-16 11:12:32 GMT 45.937611 21.208763 36,000 322 440 0
2022-08-16 11:12:24 GMT 45.926559 21.221165 36,000 322 440 0
2022-08-16 11:12:19 GMT 45.919189 21.229471 36,000 322 441 -64
2022-08-16 11:12:14 GMT 45.911167 21.238495 36,000 322 441 0
2022-08-16 11:12:09 GMT 45.902836 21.247902 36,000 322 441 -64
2022-08-16 11:12:03 GMT 45.893433 21.258545 36,000 322 441 -64
2022-08-16 11:12:00 GMT 45.887657 21.265068 36,000 322 441 -64
2022-08-16 11:11:54 GMT 45.878254 21.275780 36,000 322 440 -64
2022-08-16 11:11:51 GMT 45.872341 21.282440 36,025 322 440 -128
2022-08-16 11:11:43 GMT 45.861309 21.295006 36,025 322 440 0
2022-08-16 11:11:40 GMT 45.855770 21.301323 35,975 322 439 832
2022-08-16 11:11:33 GMT 45.844437 21.314146 35,925 322 439 1024
2022-08-16 11:11:30 GMT 45.828537 21.332291 35,725 322 441 896
2022-08-16 11:11:24 GMT 45.828537 21.332291 35,750 322 441 960
2022-08-16 11:11:19 GMT 45.822300 21.339363 35,650 322 441 896
2022-08-16 11:11:10 GMT 45.806423 21.357559 35,550 322 439 1024
2022-08-16 11:10:58 GMT 45.789665 21.377197 35,325 319 442 1344
2022-08-16 11:10:50 GMT 45.777237 21.393597 35,225 315 444 1024
2022-08-16 11:10:48 GMT 45.774628 21.397728 35,150 311 443 960
2022-08-16 11:10:41 GMT 45.765427 21.413359 35,025 310 442 960
2022-08-16 11:10:38 GMT 45.761314 21.420593 34,975 310 442 960
2022-08-16 11:10:29 GMT 45.748978 21.442085 34,825 310 442 896
2022-08-16 11:10:22 GMT 45.740925 21.456024 34,725 310 442 896
2022-08-16 11:10:18 GMT 45.735477 21.465500 34,375 310 442 960
2022-08-16 11:10:09 GMT 45.724457 21.484636 34,500 310 443 1024
2022-08-16 11:10:06 GMT 45.720428 21.491669 34,450 310 442 1152
2022-08-16 11:09:56 GMT 45.706375 21.515987 34,250 310 443 1408
2022-08-16 11:09:51 GMT 45.700657 21.525925 34,150 310 442 192
2022-08-16 11:09:46 GMT 45.693535 21.538422 34,075 310 443 320
2022-08-16 11:09:41 GMT 45.687855 21.548378 34,050 310 442 192
2022-08-16 11:09:37 GMT 45.682457 21.557922 34,050 310 439 0
2022-08-16 11:09:26 GMT 45.667515 21.583878 34,000 310 435 192
2022-08-16 11:09:22 GMT 45.663418 21.590950 34,000 310 434 0
2022-08-16 11:09:16 GMT 45.655224 21.605095 34,000 310 434 0
2022-08-16 11:09:09 GMT 45.646797 21.619720 34,000 310 434 0
2022-08-16 11:09:06 GMT 45.641071 21.629677 34,000 310 433 0
2022-08-16 11:08:56 GMT 45.630505 21.648010 34,000 310 434 0
2022-08-16 11:08:51 GMT 45.624115 21.659077 34,000 310 433 0
2022-08-16 11:08:39 GMT 45.608952 21.685364 34,000 310 434 0
2022-08-16 11:08:35 GMT 45.592983 21.712967 34,000 310 434 0
2022-08-16 11:08:28 GMT 45.592983 21.712967 34,000 310 434 -64
2022-08-16 11:08:22 GMT 45.584839 21.727072 34,000 310 434 -64
2022-08-16 11:08:17 GMT 45.579849 21.735645 34,000 310 434 0
2022-08-16 11:08:13 GMT 45.575684 21.742949 34,000 310 434 64
2022-08-16 11:08:07 GMT 45.566620 21.758556 34,000 310 434 64
2022-08-16 11:07:56 GMT 45.553135 21.781906 34,000 310 434 -64
2022-08-16 11:07:46 GMT 45.539383 21.805702 34,000 310 434 0
2022-08-16 11:07:35 GMT 45.526520 21.827938 34,000 310 433 0
2022-08-16 11:07:25 GMT 45.513145 21.851070 34,000 310 433 0
2022-08-16 11:07:14 GMT 45.500019 21.873646 34,000 310 433 0
2022-08-16 11:07:06 GMT 45.490196 21.890528 34,000 310 433 0
2022-08-16 11:07:03 GMT 45.473110 21.919935 34,000 310 431 0
2022-08-16 11:06:54 GMT 45.473110 21.919935 34,000 310 432 0
2022-08-16 11:06:47 GMT 45.463985 21.935678 34,000 310 431 0
2022-08-16 11:06:43 GMT 45.460190 21.942247 34,000 310 431 0
2022-08-16 11:06:32 GMT 45.445816 21.966902 34,000 310 431 0
2022-08-16 11:06:26 GMT 45.438538 21.979326 34,000 310 431 0
2022-08-16 11:06:22 GMT 45.433319 21.988285 34,000 310 431 0
2022-08-16 11:06:16 GMT 45.425812 22.001127 34,000 310 431 0
2022-08-16 11:06:11 GMT 45.420227 22.010715 34,000 310 431 0
2022-08-16 11:06:05 GMT 45.412354 22.024187 34,000 310 430 0
2022-08-16 11:06:02 GMT 45.407238 22.032881 34,000 310 430 0
2022-08-16 11:05:56 GMT 45.399719 22.045702 34,000 310 430 0
2022-08-16 11:05:50 GMT 45.393768 22.055904 34,000 310 430 0
2022-08-16 11:05:41 GMT 45.381031 22.077562 34,000 310 430 0
2022-08-16 11:05:33 GMT 45.371109 22.094486 34,000 310 430 0
2022-08-16 11:05:30 GMT 45.367809 22.100138 34,000 310 430 0
2022-08-16 11:05:19 GMT 45.354080 22.123522 34,000 310 430 0
2022-08-16 11:05:14 GMT 45.347046 22.135441 34,000 310 430 0
2022-08-16 11:05:10 GMT 45.341080 22.145626 34,000 310 429 64
2022-08-16 11:04:59 GMT 45.327988 22.167860 34,000 310 430 0
2022-08-16 11:04:52 GMT 45.319675 22.181932 34,000 310 430 0
2022-08-16 11:04:49 GMT 45.314228 22.191244 34,000 310 430 0
2022-08-16 11:04:38 GMT 45.301483 22.212851 34,000 310 430 0
2022-08-16 11:04:33 GMT 45.295120 22.223707 34,000 310 430 0
2022-08-16 11:04:26 GMT 45.285786 22.239410 34,000 310 430 -64
2022-08-16 11:04:24 GMT 45.282619 22.244837 34,000 310 430 -64
2022-08-16 11:04:17 GMT 45.274567 22.258432 34,000 310 429 0
2022-08-16 11:04:10 GMT 45.265411 22.273930 34,000 310 429 0
2022-08-16 11:04:07 GMT 45.261623 22.280407 34,000 310 429 0
2022-08-16 11:04:04 GMT 45.259048 22.284719 34,000 310 429 0
2022-08-16 11:04:00 GMT 45.253372 22.294464 34,000 310 428 0
2022-08-16 11:03:54 GMT 45.246002 22.306955 34,000 310 428 0
2022-08-16 11:03:50 GMT 45.240143 22.316895 34,000 310 428 0
2022-08-16 11:03:46 GMT 45.230026 22.334093 34,000 310 428 0
2022-08-16 11:03:42 GMT 45.230026 22.334093 34,000 310 428 0
2022-08-16 11:03:35 GMT 45.221924 22.347893 34,000 310 428 64
2022-08-16 11:03:32 GMT 45.217346 22.355675 34,000 310 428 64
2022-08-16 11:03:26 GMT 45.209114 22.369638 34,000 310 428 0
2022-08-16 11:03:22 GMT 45.204300 22.377777 34,000 310 428 0
2022-08-16 11:03:15 GMT 45.195801 22.392145 34,000 310 428 0
2022-08-16 11:03:12 GMT 45.191986 22.398573 34,000 310 428 0
2022-08-16 11:03:05 GMT 45.179039 22.420483 34,000 310 428 0
2022-08-16 11:03:01 GMT 45.179039 22.420483 34,000 310 428 0
2022-08-16 11:02:53 GMT 45.167355 22.440178 34,000 311 428 0
2022-08-16 11:02:49 GMT 45.153576 22.463289 34,025 311 427 0
2022-08-16 11:02:42 GMT 45.153576 22.463289 34,000 311 428 0
2022-08-16 11:02:30 GMT 45.137516 22.490286 34,000 310 428 0
2022-08-16 11:02:21 GMT 45.125923 22.509714 34,000 310 428 -64
2022-08-16 11:02:10 GMT 45.113354 22.530949 34,000 311 428 0
2022-08-16 11:02:06 GMT 45.108353 22.539303 34,000 311 428 0
2022-08-16 11:01:59 GMT 45.099854 22.553659 34,025 311 427 -64
2022-08-16 11:01:55 GMT 45.095619 22.560694 34,025 311 428 128
2022-08-16 11:01:50 GMT 45.086060 22.576708 34,000 311 428 128
2022-08-16 11:01:46 GMT 45.083084 22.581614 34,000 311 427 -64
2022-08-16 11:01:39 GMT 45.073551 22.597605 34,000 311 427 -64
2022-08-16 11:01:34 GMT 45.067638 22.607386 34,000 311 427 -64
2022-08-16 11:01:27 GMT 45.058472 22.622725 34,000 311 427 0
2022-08-16 11:01:18 GMT 45.046143 22.643345 34,000 311 427 0
2022-08-16 11:01:14 GMT 45.041943 22.650393 34,000 311 427 0
2022-08-16 11:01:12 GMT 45.039989 22.653608 34,000 311 427 0
2022-08-16 11:01:09 GMT 45.036030 22.660173 34,000 311 427 0
2022-08-16 11:01:04 GMT 45.028793 22.672251 34,000 311 427 0
2022-08-16 11:00:58 GMT 45.020016 22.686901 34,000 311 425 0
2022-08-16 11:00:47 GMT 45.007187 22.708282 34,000 311 425 0
2022-08-16 11:00:37 GMT 44.994461 22.729668 34,000 311 423 -64
2022-08-16 11:00:27 GMT 44.981323 22.751574 34,000 311 422 0
2022-08-16 11:00:19 GMT 44.970905 22.769032 34,000 311 422 64
2022-08-16 11:00:15 GMT 44.967865 22.774071 34,000 311 422 0
2022-08-16 11:00:05 GMT 44.954865 22.795715 34,000 311 422 0
2022-08-16 10:59:56 GMT 44.941624 22.817734 34,000 311 422 0
2022-08-16 10:59:48 GMT 44.932892 22.832207 34,000 311 422 64
2022-08-16 10:59:44 GMT 44.928726 22.839136 34,000 311 422 64
2022-08-16 10:59:35 GMT 44.915726 22.860653 34,000 311 420 0
2022-08-16 10:59:28 GMT 44.906384 22.876015 34,000 311 419 0
2022-08-16 10:59:24 GMT 44.902473 22.882511 34,000 311 419 0
2022-08-16 10:59:14 GMT 44.889404 22.904009 34,000 311 418 0
2022-08-16 10:59:07 GMT 44.881245 22.917480 34,000 311 417 -64
2022-08-16 10:59:03 GMT 44.876591 22.925117 34,000 311 417 -64
2022-08-16 10:58:52 GMT 44.863312 22.946909 34,000 311 417 64
2022-08-16 10:58:43 GMT 44.850311 22.968292 34,000 311 415 0
2022-08-16 10:58:37 GMT 44.843071 22.980249 34,000 311 415 0
2022-08-16 10:58:32 GMT 44.837345 22.989695 34,000 311 414 0
2022-08-16 10:58:23 GMT 44.825912 23.008511 34,000 311 413 0
2022-08-16 10:58:21 GMT 44.823944 23.011780 34,000 311 412 0
2022-08-16 10:58:13 GMT 44.814396 23.027477 34,000 311 412 -64
2022-08-16 10:58:11 GMT 44.802567 23.047028 34,000 311 411 0
2022-08-16 10:58:03 GMT 44.802567 23.047028 34,000 311 410 0
2022-08-16 10:58:00 GMT 44.798721 23.053305 34,000 311 410 0
2022-08-16 10:57:56 GMT 44.792191 23.064054 34,000 311 410 0
2022-08-16 10:57:51 GMT 44.785347 23.075375 34,000 311 408 0
2022-08-16 10:57:44 GMT 44.778969 23.085894 34,000 311 409 0
2022-08-16 10:57:40 GMT 44.773197 23.095406 34,000 311 408 0
2022-08-16 10:57:36 GMT 44.768326 23.103462 34,000 311 408 0
2022-08-16 10:57:34 GMT 44.765762 23.107714 34,000 311 408 0
2022-08-16 10:57:29 GMT 44.760269 23.116804 34,000 311 408 0
2022-08-16 10:57:22 GMT 44.751038 23.132183 34,000 311 407 0
2022-08-16 10:57:19 GMT 44.747410 23.138212 34,000 311 407 0
2022-08-16 10:57:13 GMT 44.740612 23.149532 34,000 311 406 0
2022-08-16 10:57:09 GMT 44.728882 23.169161 34,000 311 406 0
2022-08-16 10:57:03 GMT 44.728882 23.169161 34,000 311 406 -64
2022-08-16 10:56:58 GMT 44.722137 23.180695 34,000 307 405 0
2022-08-16 10:56:54 GMT 44.711887 23.200645 34,000 303 403 0
2022-08-16 10:56:49 GMT 44.711887 23.200645 34,000 303 403 0
2022-08-16 10:56:45 GMT 44.709274 23.206394 34,000 302 402 64
2022-08-16 10:56:43 GMT 44.707233 23.211029 34,000 301 402 64
2022-08-16 10:56:37 GMT 44.701675 23.224901 34,000 297 401 0
2022-08-16 10:56:33 GMT 44.698380 23.233927 34,000 296 401 0
2022-08-16 10:56:28 GMT 44.693779 23.247873 34,000 292 401 -64
2022-08-16 10:56:24 GMT 44.686569 23.273685 34,000 291 401 0
2022-08-16 10:56:17 GMT 44.686569 23.273685 34,000 287 400 128
2022-08-16 10:56:12 GMT 44.683914 23.286438 34,000 286 400 64
2022-08-16 10:56:06 GMT 44.681164 23.300125 34,000 286 400 64
2022-08-16 10:56:00 GMT 44.678375 23.314165 34,000 286 402 0
2022-08-16 10:55:57 GMT 44.676228 23.324911 34,000 286 402 0
2022-08-16 10:55:50 GMT 44.673019 23.340715 34,000 286 402 -64
2022-08-16 10:55:46 GMT 44.670784 23.351707 34,000 286 402 0
2022-08-16 10:55:42 GMT 44.668873 23.361288 34,000 286 402 0
2022-08-16 10:55:35 GMT 44.665604 23.377272 34,000 286 402 0
2022-08-16 10:55:31 GMT 44.663242 23.389090 34,000 286 402 0
2022-08-16 10:55:26 GMT 44.660385 23.403103 34,000 286 402 0
2022-08-16 10:55:22 GMT 44.658867 23.410660 34,000 286 402 -64
2022-08-16 10:55:17 GMT 44.656071 23.424191 34,000 286 402 -64
2022-08-16 10:55:15 GMT 44.655003 23.429417 34,000 286 402 -64
2022-08-16 10:55:11 GMT 44.653374 23.437454 34,000 287 402 0
2022-08-16 10:55:05 GMT 44.649742 23.455275 34,000 286 403 0
2022-08-16 10:54:59 GMT 44.647385 23.466797 34,000 286 403 0
2022-08-16 10:54:52 GMT 44.643131 23.487900 34,000 286 403 0
2022-08-16 10:54:49 GMT 44.642029 23.493151 34,000 286 403 0
2022-08-16 10:54:43 GMT 44.638916 23.508715 34,000 286 403 0
2022-08-16 10:54:40 GMT 44.637543 23.515516 34,000 286 403 0
2022-08-16 10:54:35 GMT 44.634846 23.528896 34,000 286 403 64
2022-08-16 10:54:33 GMT 44.633587 23.535192 34,000 286 404 0
2022-08-16 10:54:30 GMT 44.632191 23.542227 34,000 286 404 0
2022-08-16 10:54:25 GMT 44.629944 23.553576 34,000 286 404 0
2022-08-16 10:54:21 GMT 44.623444 23.585880 34,000 286 405 0
2022-08-16 10:54:13 GMT 44.623444 23.585880 34,000 286 406 0
2022-08-16 10:54:09 GMT 44.621716 23.594479 34,000 286 406 0
2022-08-16 10:54:05 GMT 44.619781 23.604126 34,000 286 406 0
2022-08-16 10:54:02 GMT 44.618088 23.612431 34,000 286 406 64
2022-08-16 10:53:59 GMT 44.616531 23.620277 34,000 286 406 0
2022-08-16 10:53:49 GMT 44.611710 23.644655 34,000 286 407 -64
2022-08-16 10:53:45 GMT 44.609657 23.655039 34,000 286 407 -64
2022-08-16 10:53:42 GMT 44.606819 23.669308 34,000 286 408 -64
2022-08-16 10:53:36 GMT 44.605545 23.675928 34,000 286 408 -64
2022-08-16 10:53:33 GMT 44.603420 23.686590 34,000 286 408 0
2022-08-16 10:53:29 GMT 44.601700 23.695566 34,000 286 408 0
2022-08-16 10:53:23 GMT 44.598301 23.712582 34,000 286 408 -64
2022-08-16 10:53:21 GMT 44.597672 23.715952 34,000 286 408 -64
2022-08-16 10:53:18 GMT 44.595928 23.724573 34,000 286 409 -64
2022-08-16 10:53:11 GMT 44.592484 23.741924 34,000 286 410 64
2022-08-16 10:53:08 GMT 44.591171 23.748583 34,000 286 410 64
2022-08-16 10:53:04 GMT 44.588837 23.760288 34,000 286 410 64
2022-08-16 10:53:01 GMT 44.587315 23.767982 34,000 286 410 0
2022-08-16 10:52:58 GMT 44.586197 23.773609 34,000 286 410 0
2022-08-16 10:52:53 GMT 44.583435 23.787624 34,000 286 410 0
2022-08-16 10:52:50 GMT 44.580780 23.800964 34,000 286 410 0
2022-08-16 10:52:43 GMT 44.578491 23.812735 34,000 286 410 0
2022-08-16 10:52:40 GMT 44.576141 23.824522 34,000 286 410 0
2022-08-16 10:52:37 GMT 44.575630 23.827068 34,000 286 410 0
2022-08-16 10:52:29 GMT 44.570881 23.850849 34,000 286 411 64
2022-08-16 10:52:22 GMT 44.567780 23.866489 34,000 286 411 64
2022-08-16 10:52:20 GMT 44.566498 23.872898 34,000 286 412 0
2022-08-16 10:52:17 GMT 44.564804 23.881399 34,000 286 412 -64
2022-08-16 10:52:13 GMT 44.563019 23.890360 34,000 286 412 0
2022-08-16 10:52:09 GMT 44.561058 23.900154 34,000 286 413 0
2022-08-16 10:52:06 GMT 44.559814 23.906315 34,000 286 413 0
2022-08-16 10:52:03 GMT 44.557568 23.917639 34,000 286 413 0
2022-08-16 10:51:57 GMT 44.554123 23.934855 34,000 286 413 0
2022-08-16 10:51:50 GMT 44.550797 23.951307 34,000 286 414 0
2022-08-16 10:51:46 GMT 44.549194 23.959351 34,000 286 414 0
2022-08-16 10:51:41 GMT 44.546440 23.972973 34,000 286 414 0
2022-08-16 10:51:37 GMT 44.544209 23.984093 34,000 286 414 0
2022-08-16 10:51:32 GMT 44.541832 23.995949 34,000 286 415 0
2022-08-16 10:51:27 GMT 44.539318 24.008610 34,000 286 415 0
2022-08-16 10:51:24 GMT 44.538017 24.015041 34,000 286 415 0
2022-08-16 10:51:19 GMT 44.535034 24.030046 34,000 286 415 0
2022-08-16 10:51:15 GMT 44.533035 24.040096 34,000 286 416 0
2022-08-16 10:51:12 GMT 44.531452 24.048134 34,000 286 416 64
2022-08-16 10:51:06 GMT 44.528229 24.064440 34,000 286 416 64
2022-08-16 10:51:01 GMT 44.526146 24.074797 34,000 286 416 0
2022-08-16 10:50:57 GMT 44.523911 24.086252 34,000 286 416 0
2022-08-16 10:50:54 GMT 44.522324 24.094000 34,000 286 417 -64
2022-08-16 10:50:52 GMT 44.521088 24.100210 34,000 286 417 0
2022-08-16 10:50:44 GMT 44.517105 24.120222 34,000 286 417 0
2022-08-16 10:50:34 GMT 44.511841 24.146379 34,000 286 417 0
2022-08-16 10:50:24 GMT 44.503693 24.187185 34,000 286 417 0
2022-08-16 10:50:18 GMT 44.503693 24.187185 34,000 286 418 0
2022-08-16 10:50:15 GMT 44.501816 24.196539 34,000 286 418 0
2022-08-16 10:50:10 GMT 44.499802 24.206675 34,000 286 418 64
2022-08-16 10:50:06 GMT 44.497055 24.220209 34,000 286 418 0
2022-08-16 10:49:55 GMT 44.490997 24.249842 34,000 286 418 -64
2022-08-16 10:49:53 GMT 44.490253 24.253458 34,000 286 418 64
2022-08-16 10:49:48 GMT 44.487305 24.267754 34,000 286 418 0
2022-08-16 10:49:42 GMT 44.484573 24.281260 34,000 286 418 0
2022-08-16 10:49:37 GMT 44.482040 24.294041 34,000 286 419 -64
2022-08-16 10:49:34 GMT 44.480385 24.302361 34,000 286 419 0
2022-08-16 10:49:32 GMT 44.479221 24.308390 34,000 286 419 0
2022-08-16 10:49:23 GMT 44.474670 24.331055 34,000 286 419 0
2022-08-16 10:49:21 GMT 44.473984 24.334717 34,000 286 420 0
2022-08-16 10:49:15 GMT 44.468327 24.362585 34,000 286 420 0
2022-08-16 10:49:12 GMT 44.468327 24.362585 34,000 287 420 0
2022-08-16 10:49:07 GMT 44.466141 24.373236 34,000 287 420 0
2022-08-16 10:49:04 GMT 44.464603 24.380806 34,000 287 420 0
2022-08-16 10:49:00 GMT 44.462509 24.390987 34,000 287 420 0
2022-08-16 10:48:57 GMT 44.460648 24.400099 34,000 287 420 0
2022-08-16 10:48:53 GMT 44.458878 24.408417 34,000 287 420 0
2022-08-16 10:48:50 GMT 44.457294 24.416243 34,000 287 420 0
2022-08-16 10:48:46 GMT 44.455215 24.426140 34,000 286 421 -64
2022-08-16 10:48:41 GMT 44.451847 24.442570 34,000 286 421 -64
2022-08-16 10:48:34 GMT 44.448311 24.459854 34,000 286 421 64
2022-08-16 10:48:30 GMT 44.446354 24.469500 34,000 286 421 64
2022-08-16 10:48:24 GMT 44.443176 24.484928 34,000 286 422 64
2022-08-16 10:48:21 GMT 44.440254 24.499311 34,000 286 421 0
2022-08-16 10:48:18 GMT 44.440254 24.499311 34,000 286 421 0
2022-08-16 10:48:13 GMT 44.437088 24.514814 34,000 286 422 0
2022-08-16 10:48:09 GMT 44.435089 24.524767 34,000 286 423 0
2022-08-16 10:48:02 GMT 44.431316 24.543121 34,000 287 423 0
2022-08-16 10:47:59 GMT 44.429718 24.550978 34,000 287 423 0
2022-08-16 10:47:51 GMT 44.425545 24.571192 34,000 287 423 64
2022-08-16 10:47:49 GMT 44.424042 24.578508 34,000 287 423 0
2022-08-16 10:47:43 GMT 44.420658 24.595106 34,000 286 424 64
2022-08-16 10:47:38 GMT 44.418423 24.605892 34,000 286 424 64
2022-08-16 10:47:32 GMT 44.415443 24.620562 34,000 286 424 0
2022-08-16 10:47:24 GMT 44.411316 24.640829 34,000 286 424 0
2022-08-16 10:47:21 GMT 44.409348 24.650574 34,000 286 424 0
2022-08-16 10:47:18 GMT 44.407150 24.661364 34,000 286 424 -64
2022-08-16 10:47:14 GMT 44.405994 24.667187 34,000 286 424 -64
2022-08-16 10:47:11 GMT 44.403667 24.678440 34,000 286 424 -64
2022-08-16 10:47:05 GMT 44.400513 24.693996 34,000 286 424 64
2022-08-16 10:47:00 GMT 44.398266 24.705036 34,000 286 424 64
2022-08-16 10:46:54 GMT 44.394974 24.721069 34,000 286 424 -64
2022-08-16 10:46:51 GMT 44.393051 24.730553 34,000 286 424 -64
2022-08-16 10:46:47 GMT 44.390678 24.742149 34,000 286 424 0
2022-08-16 10:46:44 GMT 44.389389 24.748404 34,000 286 424 0
2022-08-16 10:46:40 GMT 44.387100 24.759718 34,000 286 424 64
2022-08-16 10:46:34 GMT 44.384159 24.774237 34,000 286 424 64
2022-08-16 10:46:29 GMT 44.381599 24.786831 34,000 286 424 -64
2022-08-16 10:46:26 GMT 44.379684 24.796339 34,000 286 424 -64
2022-08-16 10:46:23 GMT 44.378632 24.801571 34,000 286 424 0
2022-08-16 10:46:20 GMT 44.376850 24.810545 34,000 286 424 64
2022-08-16 10:46:13 GMT 44.373047 24.829559 34,000 286 424 64
2022-08-16 10:46:10 GMT 44.371452 24.837475 34,000 286 424 0
2022-08-16 10:46:04 GMT 44.367775 24.855898 34,000 286 425 -64
2022-08-16 10:46:00 GMT 44.365997 24.864874 34,000 286 425 64
2022-08-16 10:45:53 GMT 44.362656 24.881809 34,000 286 425 -64
2022-08-16 10:45:49 GMT 44.360779 24.891293 34,000 286 425 -64
2022-08-16 10:45:43 GMT 44.357300 24.908688 34,000 286 425 64
2022-08-16 10:45:40 GMT 44.355881 24.915880 34,000 286 425 64
2022-08-16 10:45:32 GMT 44.351852 24.936218 34,000 286 425 0
2022-08-16 10:45:29 GMT 44.350315 24.943855 34,000 286 426 0
2022-08-16 10:45:22 GMT 44.346546 24.962879 34,000 286 426 0
2022-08-16 10:45:19 GMT 44.344986 24.970812 34,000 286 426 0
2022-08-16 10:45:14 GMT 44.342010 24.985657 34,000 286 426 0
2022-08-16 10:45:10 GMT 44.339981 24.995974 34,000 286 426 0
2022-08-16 10:45:02 GMT 44.335785 25.016850 34,000 286 426 0
2022-08-16 10:44:59 GMT 44.334045 25.025549 34,000 286 426 0
2022-08-16 10:44:52 GMT 44.330658 25.042484 34,000 286 426 0
2022-08-16 10:44:49 GMT 44.328857 25.051777 34,000 286 426 0
2022-08-16 10:44:39 GMT 44.323456 25.079041 34,000 286 427 0
2022-08-16 10:44:32 GMT 44.319992 25.096828 34,000 286 427 0
2022-08-16 10:44:28 GMT 44.318069 25.106636 34,000 286 426 0
2022-08-16 10:44:21 GMT 44.314636 25.124163 34,000 286 427 0
2022-08-16 10:44:18 GMT 44.312714 25.133972 34,000 286 427 0
2022-08-16 10:44:12 GMT 44.309444 25.150721 34,000 286 428 0
2022-08-16 10:44:09 GMT 44.308182 25.157122 34,000 286 427 0
2022-08-16 10:44:01 GMT 44.304062 25.178047 34,000 286 428 0
2022-08-16 10:43:57 GMT 44.302231 25.187334 34,000 286 428 0
2022-08-16 10:43:51 GMT 44.298595 25.205650 34,000 286 427 0
2022-08-16 10:43:48 GMT 44.296738 25.215193 34,000 286 427 0
2022-08-16 10:43:41 GMT 44.293488 25.231672 34,000 286 427 0
2022-08-16 10:43:37 GMT 44.291428 25.242294 34,000 286 427 0
2022-08-16 10:43:31 GMT 44.286575 25.267246 34,000 286 427 0
2022-08-16 10:43:28 GMT 44.286575 25.267246 34,000 286 427 0
2022-08-16 10:43:25 GMT 44.285568 25.272545 34,000 286 427 0
2022-08-16 10:43:21 GMT 44.282631 25.287714 34,000 286 426 0
2022-08-16 10:43:17 GMT 44.281139 25.295418 34,000 286 426 0
2022-08-16 10:43:11 GMT 44.277649 25.313438 34,000 286 426 0
2022-08-16 10:43:08 GMT 44.276321 25.320347 34,000 285 426 0
2022-08-16 10:43:06 GMT 44.275772 25.323225 34,000 285 426 0
2022-08-16 10:43:01 GMT 44.272900 25.338091 34,000 285 426 0
2022-08-16 10:42:58 GMT 44.271103 25.347616 34,000 285 426 0
2022-08-16 10:42:56 GMT 44.270573 25.350283 34,000 285 426 64
2022-08-16 10:42:53 GMT 44.266068 25.373905 34,000 285 426 64
2022-08-16 10:42:48 GMT 44.266068 25.373905 34,000 285 426 64
2022-08-16 10:42:46 GMT 44.265335 25.377829 34,000 285 426 64
2022-08-16 10:42:40 GMT 44.262268 25.393785 34,000 286 426 0
2022-08-16 10:42:37 GMT 44.260574 25.402483 34,000 286 425 0
2022-08-16 10:42:30 GMT 44.257050 25.420467 34,000 286 426 0
2022-08-16 10:42:27 GMT 44.255814 25.426809 34,000 286 426 0
2022-08-16 10:42:23 GMT 44.252930 25.441387 34,000 286 426 -64
2022-08-16 10:42:20 GMT 44.251740 25.447475 34,000 286 426 -64
2022-08-16 10:42:16 GMT 44.249542 25.458527 34,000 286 426 0
2022-08-16 10:42:10 GMT 44.246273 25.474882 34,000 286 426 0
2022-08-16 10:42:07 GMT 44.245201 25.480442 34,000 286 426 64
2022-08-16 10:42:05 GMT 44.244083 25.486004 34,000 286 425 64
2022-08-16 10:42:00 GMT 44.239849 25.507641 34,000 286 425 0
2022-08-16 10:41:57 GMT 44.239849 25.507641 34,000 286 425 0
2022-08-16 10:41:55 GMT 44.238777 25.513201 34,000 286 425 0
2022-08-16 10:41:49 GMT 44.235764 25.528435 34,000 286 424 64
2022-08-16 10:41:46 GMT 44.234207 25.536085 34,000 286 424 64
2022-08-16 10:41:44 GMT 44.233425 25.540064 34,000 286 424 64
2022-08-16 10:41:40 GMT 44.229004 25.561903 34,000 286 424 0
2022-08-16 10:41:37 GMT 44.229004 25.561903 34,000 286 424 0
2022-08-16 10:41:29 GMT 44.224915 25.582123 34,000 286 424 0
2022-08-16 10:41:26 GMT 44.223740 25.587894 34,000 286 424 0
2022-08-16 10:41:24 GMT 44.222809 25.592651 34,000 286 424 0
2022-08-16 10:41:19 GMT 44.218388 25.614758 34,000 286 424 0
2022-08-16 10:41:16 GMT 44.218388 25.614758 34,000 286 425 0
2022-08-16 10:41:14 GMT 44.217087 25.621098 34,000 286 425 0
2022-08-16 10:41:06 GMT 44.212894 25.641287 34,000 288 424 -64
2022-08-16 10:41:03 GMT 44.211452 25.647783 34,000 290 424 -128
2022-08-16 10:40:58 GMT 44.207520 25.662361 34,000 296 424 -64
2022-08-16 10:40:55 GMT 44.204746 25.670494 34,000 298 424 0
2022-08-16 10:40:53 GMT 44.203629 25.673349 34,000 300 424 0
2022-08-16 10:40:46 GMT 44.194061 25.695999 34,000 301 426 -64
2022-08-16 10:40:44 GMT 44.194061 25.695999 34,025 301 426 0
2022-08-16 10:40:38 GMT 44.188084 25.709839 33,975 301 427 512
2022-08-16 10:40:35 GMT 44.183426 25.720694 33,950 301 428 896
2022-08-16 10:40:33 GMT 44.183426 25.720694 33,925 301 428 1024
2022-08-16 10:40:27 GMT 44.177216 25.735153 33,775 301 432 1984
2022-08-16 10:40:23 GMT 44.172821 25.745375 33,625 301 435 2304
2022-08-16 10:40:17 GMT 44.166714 25.759474 33,400 301 437 2048
2022-08-16 10:40:13 GMT 44.162430 25.769390 33,275 301 439 2240
2022-08-16 10:40:07 GMT 44.155838 25.784657 33,025 302 442 2304
2022-08-16 10:40:04 GMT 44.151764 25.794109 32,875 302 443 2304
2022-08-16 10:39:56 GMT 44.144836 25.810024 32,575 302 447 2240
2022-08-16 10:39:53 GMT 44.140823 25.819340 32,575 302 447 2304
2022-08-16 10:39:50 GMT 44.137711 25.826494 32,425 301 448 2048
2022-08-16 10:39:45 GMT 44.132355 25.838821 32,275 302 450 1600
2022-08-16 10:39:43 GMT 44.131302 25.841312 32,250 302 450 1600
2022-08-16 10:39:41 GMT 44.128372 25.847956 32,175 302 450 1344
2022-08-16 10:39:35 GMT 44.121735 25.863350 32,075 302 450 832
2022-08-16 10:39:33 GMT 44.120636 25.865841 32,050 302 450 704
2022-08-16 10:39:30 GMT 44.117523 25.872993 32,025 302 450 512
2022-08-16 10:39:26 GMT 44.112167 25.885386 32,000 302 449 64
2022-08-16 10:39:23 GMT 44.109688 25.891048 32,000 302 449 0
2022-08-16 10:39:21 GMT 44.106384 25.898699 32,000 302 449 0
2022-08-16 10:39:16 GMT 44.101868 25.909031 32,000 302 449 0
2022-08-16 10:39:13 GMT 44.098618 25.916430 32,000 302 449 128
2022-08-16 10:39:11 GMT 44.097027 25.920149 32,000 302 449 -64
2022-08-16 10:39:06 GMT 44.087715 25.941599 32,000 302 449 0
2022-08-16 10:39:03 GMT 44.087715 25.941599 32,000 302 449 0
2022-08-16 10:39:00 GMT 44.084366 25.949249 32,000 302 449 -64
2022-08-16 10:38:56 GMT 44.079758 25.959864 32,000 302 449 0
2022-08-16 10:38:53 GMT 44.074905 25.970913 32,000 302 449 0
2022-08-16 10:38:44 GMT 44.067398 25.988159 32,000 302 449 -64
2022-08-16 10:38:42 GMT 44.065887 25.991608 32,000 302 449 -64
2022-08-16 10:38:40 GMT 44.063828 25.996334 32,000 302 449 -64
2022-08-16 10:38:35 GMT 44.058342 26.008888 32,000 302 449 0
2022-08-16 10:38:32 GMT 44.054802 26.016998 32,000 302 449 0
2022-08-16 10:38:30 GMT 44.052662 26.021902 32,000 302 449 0
2022-08-16 10:38:27 GMT 44.048889 26.030535 32,000 302 449 -64
2022-08-16 10:38:24 GMT 44.046066 26.036959 31,950 302 448 256
2022-08-16 10:38:21 GMT 44.042313 26.045519 31,975 302 447 640
2022-08-16 10:38:14 GMT 44.034599 26.063168 31,875 302 446 1024
2022-08-16 10:38:12 GMT 44.032459 26.068071 31,825 302 446 1024
2022-08-16 10:38:09 GMT 44.030411 26.072781 31,800 302 446 1024
2022-08-16 10:38:05 GMT 44.025696 26.083523 31,700 302 446 1088
2022-08-16 10:38:02 GMT 44.023102 26.089390 31,675 302 445 1088
2022-08-16 10:38:00 GMT 44.020340 26.095722 31,625 302 445 1088
2022-08-16 10:37:54 GMT 44.013836 26.110643 31,400 302 445 1152
2022-08-16 10:37:51 GMT 44.010952 26.117249 31,475 302 445 1088
2022-08-16 10:37:49 GMT 44.008575 26.122610 31,425 302 445 1088
2022-08-16 10:37:45 GMT 44.003174 26.135069 31,325 302 445 1088
2022-08-16 10:37:42 GMT 43.999878 26.142607 31,250 302 445 1088
2022-08-16 10:37:39 GMT 43.997635 26.147717 31,250 302 445 1088
2022-08-16 10:37:33 GMT 43.991215 26.162567 31,075 301 443 1216
2022-08-16 10:37:30 GMT 43.987747 26.170647 31,050 301 443 1216
2022-08-16 10:37:23 GMT 43.980042 26.188137 30,900 304 443 1152
2022-08-16 10:37:19 GMT 43.976807 26.194983 30,875 305 442 1152
2022-08-16 10:37:13 GMT 43.968750 26.210442 30,725 310 443 1152
2022-08-16 10:37:10 GMT 43.963531 26.219576 30,650 310 443 1152
2022-08-16 10:37:04 GMT 43.957077 26.229921 30,550 314 443 1280
2022-08-16 10:37:01 GMT 43.952499 26.236820 30,475 315 444 1472
2022-08-16 10:36:58 GMT 43.948929 26.241932 30,425 316 444 1600
2022-08-16 10:36:53 GMT 43.940563 26.252943 30,225 320 445 1792
2022-08-16 10:36:50 GMT 43.934692 26.260136 30,150 322 446 1408
2022-08-16 10:36:43 GMT 43.926041 26.269552 30,025 326 449 576
2022-08-16 10:36:40 GMT 43.917755 26.277636 30,000 326 448 192
2022-08-16 10:36:31 GMT 43.904858 26.289696 30,000 326 448 0
2022-08-16 10:36:28 GMT 43.899506 26.294664 30,000 326 448 64
2022-08-16 10:36:24 GMT 43.888000 26.305485 30,000 326 449 0
2022-08-16 10:36:21 GMT 43.888000 26.305485 30,000 326 449 0
2022-08-16 10:36:18 GMT 43.882515 26.310621 30,000 326 449 0
2022-08-16 10:36:12 GMT 43.871853 26.320560 30,000 326 449 0
2022-08-16 10:36:09 GMT 43.867538 26.324583 30,000 326 449 0
2022-08-16 10:36:07 GMT 43.865105 26.326839 30,000 326 449 0
2022-08-16 10:36:01 GMT 43.853745 26.337498 30,000 326 449 0
2022-08-16 10:35:58 GMT 43.847580 26.343300 30,000 326 450 0
2022-08-16 10:35:52 GMT 43.837402 26.352800 30,000 326 450 0
2022-08-16 10:35:49 GMT 43.832378 26.357445 30,000 326 450 0
2022-08-16 10:35:47 GMT 43.829819 26.359842 30,000 326 450 -64
2022-08-16 10:35:42 GMT 43.819839 26.369230 30,000 326 450 0
2022-08-16 10:35:38 GMT 43.813110 26.375490 30,000 326 450 0
2022-08-16 10:35:36 GMT 43.810501 26.377918 30,000 327 449 0
2022-08-16 10:35:31 GMT 43.800842 26.386862 30,000 326 450 -64
2022-08-16 10:35:28 GMT 43.797409 26.390118 30,000 326 450 -64
2022-08-16 10:35:26 GMT 43.794113 26.393120 30,000 326 450 -64
2022-08-16 10:35:23 GMT 43.786377 26.400337 30,000 327 449 64
2022-08-16 10:35:20 GMT 43.782890 26.403547 30,000 327 449 320
2022-08-16 10:35:16 GMT 43.776512 26.409498 29,950 327 449 832
2022-08-16 10:35:10 GMT 43.765686 26.419628 29,825 327 449 1536
2022-08-16 10:35:08 GMT 43.762920 26.422186 29,775 326 450 1856
2022-08-16 10:35:06 GMT 43.758266 26.426500 29,700 326 450 1856
2022-08-16 10:35:01 GMT 43.749794 26.434347 29,550 326 451 1856
2022-08-16 10:34:59 GMT 43.746323 26.437576 29,425 326 451 1856
2022-08-16 10:34:56 GMT 43.740967 26.442558 29,400 326 452 1856
2022-08-16 10:34:51 GMT 43.733185 26.449841 29,125 326 452 1664
2022-08-16 10:34:48 GMT 43.727634 26.454947 29,175 327 453 1408
2022-08-16 10:34:46 GMT 43.723633 26.458675 29,125 326 452 1216
2022-08-16 10:34:39 GMT 43.712357 26.469130 28,950 327 451 1280
2022-08-16 10:34:36 GMT 43.706451 26.474625 28,925 327 451 1280
2022-08-16 10:34:31 GMT 43.699356 26.481203 28,825 327 451 1280
2022-08-16 10:34:28 GMT 43.692261 26.487782 28,750 327 451 1216
2022-08-16 10:34:26 GMT 43.687592 26.492062 28,700 327 450 1152
2022-08-16 10:34:21 GMT 43.680988 26.498173 28,600 327 449 1152
2022-08-16 10:34:18 GMT 43.675308 26.503405 28,500 327 449 1216
2022-08-16 10:34:15 GMT 43.670979 26.507395 28,500 327 449 1216
2022-08-16 10:34:10 GMT 43.662556 26.515177 28,300 327 448 1216
2022-08-16 10:34:07 GMT 43.657379 26.519974 28,350 327 448 1216
2022-08-16 10:34:05 GMT 43.653244 26.523808 28,300 327 447 1152
2022-08-16 10:33:59 GMT 43.644104 26.532173 28,200 327 446 1280
2022-08-16 10:33:56 GMT 43.638950 26.536951 28,125 327 446 1280
2022-08-16 10:33:54 GMT 43.635555 26.540091 28,100 327 446 1280
2022-08-16 10:33:48 GMT 43.624241 26.550489 27,925 327 445 1344
2022-08-16 10:33:45 GMT 43.617538 26.556702 27,850 327 445 1344
2022-08-16 10:33:40 GMT 43.610695 26.562981 27,625 327 444 1216
2022-08-16 10:33:37 GMT 43.604919 26.568327 27,700 327 444 1216
2022-08-16 10:33:34 GMT 43.600662 26.572287 27,650 327 443 1280
2022-08-16 10:33:30 GMT 43.592819 26.579523 27,525 327 441 1088
2022-08-16 10:33:26 GMT 43.587021 26.584806 27,475 327 441 1216
2022-08-16 10:33:24 GMT 43.582764 26.588766 27,450 327 441 1088
2022-08-16 10:33:20 GMT 43.575829 26.595154 27,375 327 440 1088
2022-08-16 10:33:16 GMT 43.569717 26.600775 27,300 327 439 1152
2022-08-16 10:33:13 GMT 43.565495 26.604635 27,250 327 439 1216
2022-08-16 10:33:10 GMT 43.557903 26.611633 27,150 327 438 1280
2022-08-16 10:33:06 GMT 43.552689 26.616425 27,100 327 437 1216
2022-08-16 10:33:03 GMT 43.548828 26.620005 27,050 327 436 1152
2022-08-16 10:32:57 GMT 43.531742 26.635763 26,875 327 434 1152
2022-08-16 10:32:54 GMT 43.531742 26.635763 26,850 327 434 1152
2022-08-16 10:32:48 GMT 43.523392 26.643442 26,700 327 433 1024
2022-08-16 10:32:45 GMT 43.517899 26.648489 26,700 327 431 1088
2022-08-16 10:32:43 GMT 43.514603 26.651554 26,675 327 431 1152
2022-08-16 10:32:37 GMT 43.502838 26.662350 26,525 327 429 1344
2022-08-16 10:32:34 GMT 43.499527 26.665388 26,475 327 429 1344
2022-08-16 10:32:32 GMT 43.496063 26.668545 26,425 327 429 1344
2022-08-16 10:32:28 GMT 43.490295 26.673847 26,350 327 428 1280
2022-08-16 10:32:24 GMT 43.482056 26.681448 26,250 327 427 1216
2022-08-16 10:32:22 GMT 43.480583 26.682783 26,225 327 427 1216
2022-08-16 10:32:19 GMT 43.473862 26.688986 26,150 327 426 1280
2022-08-16 10:32:14 GMT 43.467133 26.695181 26,050 327 425 1408
2022-08-16 10:32:12 GMT 43.463867 26.698151 26,000 327 425 1408
2022-08-16 10:32:08 GMT 43.456696 26.704762 25,900 327 423 1408
2022-08-16 10:32:05 GMT 43.452465 26.708679 25,800 327 422 1344
2022-08-16 10:32:02 GMT 43.447437 26.713322 25,800 327 422 1344
2022-08-16 10:31:58 GMT 43.440453 26.719730 25,675 327 422 1472
2022-08-16 10:31:53 GMT 43.432159 26.727373 25,550 327 421 1536
2022-08-16 10:31:50 GMT 43.428631 26.730585 25,500 327 421 1472
2022-08-16 10:31:47 GMT 43.422951 26.735819 25,400 327 420 1472
2022-08-16 10:31:43 GMT 43.416504 26.741745 25,300 327 419 1536
2022-08-16 10:31:41 GMT 43.413300 26.744682 25,250 327 418 1600
2022-08-16 10:31:37 GMT 43.407166 26.750303 25,150 327 418 1664
2022-08-16 10:31:34 GMT 43.401215 26.755796 24,975 327 417 1408
2022-08-16 10:31:32 GMT 43.397999 26.758705 25,000 327 417 1408
2022-08-16 10:31:27 GMT 43.391109 26.765051 24,900 327 416 1408
2022-08-16 10:31:24 GMT 43.385010 26.770617 24,800 327 415 1728
2022-08-16 10:31:22 GMT 43.381519 26.773811 24,750 327 415 1856
2022-08-16 10:31:18 GMT 43.374802 26.779942 24,625 327 414 1792
2022-08-16 10:31:13 GMT 43.368763 26.785519 24,500 327 414 1664
2022-08-16 10:31:11 GMT 43.365555 26.788437 24,450 327 414 1664
2022-08-16 10:31:07 GMT 43.359173 26.794281 24,325 327 413 1792
2022-08-16 10:31:03 GMT 43.352966 26.799934 24,225 327 413 1920
2022-08-16 10:31:00 GMT 43.348045 26.804417 24,100 327 413 1984
2022-08-16 10:30:56 GMT 43.341202 26.810665 23,975 327 413 1984
2022-08-16 10:30:52 GMT 43.334499 26.816776 23,825 327 413 1792
2022-08-16 10:30:50 GMT 43.331474 26.819523 23,775 327 413 1984
2022-08-16 10:30:47 GMT 43.326542 26.824036 23,675 327 413 1856
2022-08-16 10:30:43 GMT 43.320190 26.829826 23,550 327 412 1856
2022-08-16 10:30:40 GMT 43.315567 26.834044 23,450 327 411 1856
2022-08-16 10:30:37 GMT 43.310528 26.838619 23,350 327 411 1856
2022-08-16 10:30:31 GMT 43.300053 26.848166 23,175 327 409 1792
2022-08-16 10:30:27 GMT 43.293766 26.853922 23,050 327 409 1856
2022-08-16 10:30:23 GMT 43.288376 26.858826 22,875 327 409 1856
2022-08-16 10:30:20 GMT 43.283665 26.863075 22,850 327 408 1920
2022-08-16 10:30:15 GMT 43.276871 26.869223 22,700 327 408 1920
2022-08-16 10:30:10 GMT 43.268070 26.877268 22,525 327 407 1920
2022-08-16 10:30:06 GMT 43.261688 26.883099 22,400 327 406 1984
2022-08-16 10:30:01 GMT 43.253826 26.890215 22,225 327 406 2048
2022-08-16 10:29:56 GMT 43.246170 26.897215 22,050 327 405 2176
2022-08-16 10:29:50 GMT 43.236145 26.906284 21,875 327 405 2176
2022-08-16 10:29:45 GMT 43.229897 26.911991 21,675 327 404 2048
2022-08-16 10:29:42 GMT 43.224609 26.916822 21,575 327 403 1920
2022-08-16 10:29:39 GMT 43.220078 26.920912 21,500 327 403 1920
2022-08-16 10:29:35 GMT 43.214348 26.926117 21,375 327 402 1984
2022-08-16 10:29:31 GMT 43.207855 26.932089 21,225 327 402 2048
2022-08-16 10:29:29 GMT 43.203827 26.935730 21,175 327 402 2048
2022-08-16 10:29:26 GMT 43.197777 26.941290 21,000 327 400 1856
2022-08-16 10:29:22 GMT 43.187485 26.950741 20,800 327 399 1856
2022-08-16 10:29:18 GMT 43.187485 26.950741 20,800 327 399 1856
2022-08-16 10:29:15 GMT 43.182926 26.954956 20,725 327 397 2048
2022-08-16 10:29:09 GMT 43.171940 26.965027 20,475 327 394 1792
2022-08-16 10:29:04 GMT 43.166912 26.969604 20,375 327 394 1856
2022-08-16 10:29:00 GMT 43.158875 26.976929 20,200 327 391 2048
2022-08-16 10:28:54 GMT 43.151505 26.983730 20,050 327 391 2048
2022-08-16 10:28:50 GMT 43.142612 26.991838 19,850 327 389 2176
2022-08-16 10:28:48 GMT 43.142612 26.991838 19,775 327 389 2240
2022-08-16 10:28:44 GMT 43.135769 26.998117 19,675 327 389 2304
2022-08-16 10:28:40 GMT 43.129486 27.003883 19,500 327 388 2176
2022-08-16 10:28:38 GMT 43.127975 27.005289 19,425 327 387 1728
2022-08-16 10:28:35 GMT 43.115471 27.016689 19,200 327 386 1600
2022-08-16 10:28:31 GMT 43.115471 27.016689 19,225 327 384 2048
2022-08-16 10:28:27 GMT 43.111191 27.020613 19,125 326 384 2624
2022-08-16 10:28:23 GMT 43.104950 27.026239 18,925 326 385 2688
2022-08-16 10:28:20 GMT 43.100418 27.030519 18,800 324 383 2112
2022-08-16 10:28:18 GMT 43.096107 27.034803 18,650 323 383 1920
2022-08-16 10:28:14 GMT 43.091904 27.039143 18,600 322 381 1728
2022-08-16 10:28:09 GMT 43.086227 27.045275 18,475 322 379 2432
2022-08-16 10:28:07 GMT 43.082047 27.049713 18,350 322 378 2688
2022-08-16 10:28:04 GMT 43.078091 27.053965 18,225 322 379 2752
2022-08-16 10:27:59 GMT 43.072540 27.059900 18,025 322 379 2624
2022-08-16 10:27:57 GMT 43.068130 27.064623 17,900 322 379 2560
2022-08-16 10:27:53 GMT 43.062881 27.070250 17,725 322 379 2368
2022-08-16 10:27:50 GMT 43.059006 27.074368 16,950 322 378 2560
2022-08-16 10:27:46 GMT 43.053589 27.080086 17,475 322 378 2432
2022-08-16 10:27:41 GMT 43.044621 27.089668 17,200 322 378 2496
2022-08-16 10:27:38 GMT 43.041874 27.092611 17,100 322 377 2560
2022-08-16 10:27:34 GMT 43.036652 27.098162 16,950 323 376 2304
2022-08-16 10:27:28 GMT 43.028000 27.107391 16,600 322 374 2368
2022-08-16 10:27:25 GMT 43.023926 27.111767 16,600 322 374 2368
2022-08-16 10:27:21 GMT 43.019527 27.116417 16,475 323 374 2368
2022-08-16 10:27:18 GMT 43.015320 27.120964 16,350 323 372 2432
2022-08-16 10:27:15 GMT 43.011520 27.124989 16,225 323 372 2432
2022-08-16 10:27:11 GMT 43.005798 27.131058 16,075 322 371 2560
2022-08-16 10:27:08 GMT 43.001633 27.135529 15,925 322 371 2560
2022-08-16 10:27:05 GMT 42.997276 27.140154 15,800 323 370 2560
2022-08-16 10:26:59 GMT 42.988770 27.149197 15,525 323 370 2688
2022-08-16 10:26:53 GMT 42.980942 27.157501 15,275 323 369 2560
2022-08-16 10:26:48 GMT 42.974232 27.164677 15,050 322 368 2752
2022-08-16 10:26:46 GMT 42.969902 27.169254 14,900 323 367 2752
2022-08-16 10:26:43 GMT 42.966568 27.172831 14,800 323 366 1984
2022-08-16 10:26:38 GMT 42.961060 27.178673 14,625 322 366 2240
2022-08-16 10:26:34 GMT 42.955719 27.184328 14,500 322 363 1664
2022-08-16 10:26:31 GMT 42.951874 27.188416 14,425 322 361 1728
2022-08-16 10:26:27 GMT 42.947250 27.193335 14,200 322 358 2304
2022-08-16 10:26:22 GMT 42.939926 27.201191 13,900 323 357 2880
2022-08-16 10:26:18 GMT 42.934711 27.206726 13,900 323 357 2688
2022-08-16 10:26:15 GMT 42.930149 27.211565 13,775 323 354 1728
2022-08-16 10:26:11 GMT 42.925507 27.216520 13,675 322 354 1664
2022-08-16 10:26:07 GMT 42.920975 27.221312 13,600 323 349 1088
2022-08-16 10:26:05 GMT 42.917496 27.225016 13,525 323 347 1024
2022-08-16 10:26:02 GMT 42.913559 27.229168 13,500 323 341 896
2022-08-16 10:25:58 GMT 42.908455 27.234585 13,425 323 338 768
2022-08-16 10:25:55 GMT 42.904591 27.238705 13,375 323 333 832
2022-08-16 10:25:51 GMT 42.900467 27.243092 13,350 322 331 1024
2022-08-16 10:25:44 GMT 42.891647 27.252373 13,200 323 322 960
2022-08-16 10:25:41 GMT 42.888718 27.255510 13,175 323 319 576
2022-08-16 10:25:34 GMT 42.879913 27.264809 13,075 323 310 1152
2022-08-16 10:25:31 GMT 42.876709 27.268194 13,000 323 307 1792
2022-08-16 10:25:27 GMT 42.872314 27.272858 12,850 323 306 2496
2022-08-16 10:25:24 GMT 42.868420 27.276960 12,600 323 305 2496
2022-08-16 10:25:20 GMT 42.864510 27.281145 12,575 322 304 2624
2022-08-16 10:25:14 GMT 42.857155 27.288927 12,275 323 302 2560
2022-08-16 10:25:11 GMT 42.854176 27.292067 12,175 323 302 2560
2022-08-16 10:25:06 GMT 42.849194 27.297298 11,975 323 302 2560
2022-08-16 10:25:03 GMT 42.845795 27.300896 11,850 323 301 2432
2022-08-16 10:25:00 GMT 42.842491 27.304426 11,725 323 300 2304
2022-08-16 10:24:57 GMT 42.838303 27.308819 11,575 323 298 3392
2022-08-16 10:24:52 GMT 42.833275 27.314104 11,375 323 297 2944
2022-08-16 10:24:46 GMT 42.827087 27.320635 11,050 323 298 3456
2022-08-16 10:24:43 GMT 42.823357 27.324503 10,875 323 300 2880
2022-08-16 10:24:33 GMT 42.812977 27.335487 10,600 323 294 768
2022-08-16 10:24:30 GMT 42.808784 27.339926 10,525 322 292 640
2022-08-16 10:24:22 GMT 42.801338 27.347845 10,325 322 283 2304
2022-08-16 10:24:07 GMT 42.785431 27.364634 9,800 325 279 2432
2022-08-16 10:24:00 GMT 42.777458 27.371096 9,425 333 278 2048
2022-08-16 10:23:51 GMT 42.767395 27.377117 9,275 350 277 2432
2022-08-16 10:23:35 GMT 42.747665 27.383736 8,400 350 277 2432
2022-08-16 10:23:20 GMT 42.728203 27.388533 7,650 351 278 3392
2022-08-16 10:23:05 GMT 42.709255 27.393196 7,025 350 272 1600
2022-08-16 10:22:49 GMT 42.690262 27.398092 6,725 350 250 896
2022-08-16 10:22:34 GMT 42.673321 27.402075 6,300 351 238 2240
2022-08-16 10:22:19 GMT 42.656933 27.405970 5,975 349 221 896
2022-08-16 10:22:03 GMT 42.641758 27.410187 5,525 344 214 2304
2022-08-16 10:21:46 GMT 42.626301 27.418362 4,800 334 216 2560

Making use of Plane Finder data

You are free to use the raw flight data, aircraft information and images provided in this report for your own purposes provided the data is correctly attributed to Plane Finder. We ask that you please credit Plane Finder and link to planefinder.net in close proximity to the content.

Optionally one of the following logos (no smaller then 150x24px) can be used and must link to planefinder.net

Embedding the Plane Finder map

You are welcome to embed the Plane Finder playback map on your website to offer visitors a more interactive experience. We suggest using the following HTML code:

<iframe src="//planefinder.net/data/report/LS860-G-JZBI-7700-squawk-2022-08-16/map" width="800" height="600" seamless="seamless"></iframe>

Where our data comes from

Plane Finder has a global network of data feeds and antenna radars that receive data broadcast directly from aircraft. The primary technologies used are ADS-B and MLAT. We also show feeds from the FAA and a FLARM glider feed.

Click here to find out more about the Plane Finder network.

How we collect our data